[[{"header":{"parameterUnit":"m.s-1","parameterCategory":1,"la1":30.6,"la2":28.766,"lo1":-90.7593,"lo2":-88.6598,"dy":0.0162,"dx":0.0183,"nx":116,"ny":114,"refTime":"2023-04-27T00:00:00:Z","depth":0,"parameterNumber":2,"parameterNumberName":"U-component_of_WINDS"},"data":[0.0,0.0,0.0,0.0,0.0,0.0,0.0,0.0,0.0,0.0,0.0,0.0,0.0,0.0,0.0,0.0,0.0,0.0,0.0,0.0,0.0,0.0,0.0,0.0,0.0,0.0,0.0,0.0,0.0,0.0,0.0,0.0,0.0,0.0,0.0,0.0,0.0,0.0,0.0,0.0,0.0,0.0,0.0,0.0,0.0,0.0,0.0,0.0,0.0,0.0,0.0,0.0,0.0,0.0,0.0,0.0,0.0,0.0,0.0,0.0,0.0,0.0,0.0,0.0,0.0,0.0,0.0,0.0,0.0,0.0,0.0,0.0,0.0,0.0,0.0,0.0,0.0,0.0,0.0,0.0,0.0,0.0,0.0,0.0,0.0,0.0,0.0,0.0,0.0,0.0,0.0,0.0,0.0,0.0,0.0,0.0,0.0,0.0,0.0,0.0,0.0,0.0,0.0,0.0,0.0,0.0,0.0,0.0,0.0,0.0,0.0,0.0,0.0,0.0,0.0,0.0,0.0,0.0,0.0,0.0,0.0,0.0,0.0,0.0,0.0,0.0,0.0,0.0,0.0,0.0,0.0,0.0,0.0,0.0,0.0,0.0,0.0,0.0,0.0,0.0,0.0,0.0,0.0,0.0,0.0,0.0,0.0,0.0,0.0,0.0,0.0,0.0,0.0,0.0,0.0,0.0,0.0,0.0,0.0,0.0,0.0,0.0,0.0,0.0,0.0,0.0,0.0,0.0,0.0,0.0,0.0,0.0,0.0,0.0,0.0,0.0,0.0,0.0,0.0,0.0,0.0,0.0,0.0,0.0,0.0,0.0,0.0,0.0,0.0,0.0,0.0,0.0,0.0,0.0,0.0,0.0,0.0,0.0,0.0,0.0,0.0,0.0,0.0,0.0,0.0,0.0,0.0,0.0,0.0,0.0,0.0,0.0,0.0,0.0,0.0,0.0,0.0,0.0,0.0,0.0,0.0,0.0,0.0,0.0,0.0,0.0,0.0,0.0,0.0,0.0,0.0,0.0,0.0,0.0,0.0,0.0,0.0,0.0,0.0,0.0,0.0,0.0,0.0,0.0,0.0,0.0,0.0,0.0,0.0,0.0,0.0,0.0,0.0,0.0,0.0,0.0,0.0,0.0,0.0,0.0,0.0,0.0,0.0,0.0,0.0,0.0,0.0,0.0,0.0,0.0,0.0,0.0,0.0,0.0,0.0,0.0,0.0,0.0,0.0,0.0,0.0,0.0,0.0,0.0,0.0,0.0,0.0,0.0,0.0,0.0,0.0,0.0,0.0,0.0,0.0,0.0,0.0,0.0,0.0,0.0,0.0,0.0,0.0,0.0,0.0,0.0,0.0,0.0,0.0,0.0,0.0,0.0,0.0,0.0,0.0,0.0,0.0,0.0,0.0,0.0,0.0,0.0,0.0,0.0,0.0,0.0,0.0,0.0,0.0,0.0,0.0,0.0,0.0,0.0,0.0,0.0,0.0,0.0,0.0,0.0,0.0,0.0,0.0,0.0,0.0,0.0,0.0,0.0,0.0,0.0,0.0,0.0,0.0,0.0,0.0,0.0,0.0,0.0,0.0,0.0,0.0,0.0,0.0,0.0,0.0,0.0,0.0,0.0,0.0,0.0,0.0,0.0,0.0,0.0,0.0,0.0,0.0,0.0,0.0,0.0,0.0,0.0,0.0,0.0,0.0,0.0,0.0,0.0,0.0,0.0,0.0,0.0,0.0,0.0,0.0,0.0,0.0,0.0,0.0,0.0,0.0,0.0,0.0,0.0,0.0,0.0,0.0,0.0,0.0,0.0,0.0,0.0,0.0,0.0,0.0,0.0,0.0,0.0,0.0,0.0,0.0,0.0,0.0,0.0,0.0,0.0,0.0,0.0,0.0,0.0,0.0,0.0,0.0,0.0,0.0,0.0,0.0,0.0,0.0,0.0,0.0,0.0,0.0,0.0,0.0,0.0,0.0,0.0,0.0,0.0,0.0,0.0,0.0,0.0,0.0,0.0,0.0,0.0,0.0,0.0,0.0,0.0,0.0,0.0,0.0,0.0,0.0,0.0,0.0,0.0,0.0,0.0,0.0,0.0,0.0,0.0,0.0,0.0,0.0,0.0,0.0,0.0,0.0,0.0,0.0,0.0,0.0,0.0,0.0,0.0,0.0,0.0,0.0,0.0,0.0,0.0,0.0,0.0,0.0,0.0,0.0,0.0,0.0,0.0,0.0,0.0,0.0,0.0,0.0,0.0,0.0,0.0,0.0,0.0,0.0,0.0,0.0,0.0,0.0,0.0,0.0,0.0,0.0,0.0,0.0,0.0,0.0,0.0,0.0,0.0,0.0,0.0,0.0,0.0,0.0,0.0,0.0,0.0,0.0,0.0,0.0,0.0,0.0,0.0,0.0,0.0,0.0,0.0,0.0,0.0,0.0,0.0,0.0,0.0,0.0,0.0,0.0,0.0,0.0,0.0,0.0,0.0,0.0,0.0,0.0,0.0,0.0,0.0,0.0,0.0,0.0,0.0,0.0,0.0,0.0,0.0,0.0,0.0,0.0,0.0,0.0,0.0,0.0,0.0,0.0,0.0,0.0,0.0,0.0,0.0,0.0,0.0,0.0,0.0,0.0,0.0,0.0,0.0,0.0,0.0,0.0,0.0,0.0,0.0,0.0,0.0,0.0,0.0,0.0,0.0,0.0,0.0,0.0,0.0,0.0,0.0,0.0,0.0,0.0,0.0,0.0,0.0,0.0,0.0,0.0,0.0,0.0,0.0,0.0,0.0,0.0,0.0,0.0,0.0,0.0,0.0,0.0,0.0,0.0,0.0,0.0,0.0,0.0,0.0,0.0,0.0,0.0,0.0,0.0,0.0,0.0,0.0,0.0,0.0,0.0,0.0,0.0,0.0,0.0,0.0,0.0,0.0,0.0,0.0,0.0,0.0,0.0,0.0,0.0,0.0,0.0,0.0,0.0,0.0,0.0,0.0,0.0,0.0,0.0,0.0,0.0,0.0,0.0,0.0,0.0,0.0,0.0,0.0,0.0,0.0,0.0,0.0,0.0,0.0,0.0,0.0,0.0,0.0,0.0,0.0,0.0,0.0,0.0,0.0,0.0,0.0,0.0,0.0,0.0,0.0,0.0,0.0,0.0,0.0,0.0,0.0,0.0,0.0,0.0,0.0,0.0,0.0,0.0,0.0,0.0,0.0,0.0,0.0,0.0,0.0,0.0,0.0,0.0,0.0,0.0,0.0,0.0,0.0,0.0,0.0,0.0,0.0,0.0,0.0,0.0,0.0,0.0,0.0,0.0,0.0,0.0,0.0,0.0,0.0,0.0,0.0,0.0,0.0,0.0,0.0,0.0,0.0,0.0,0.0,0.0,0.0,0.0,0.0,0.0,0.0,0.0,0.0,0.0,0.0,0.0,0.0,0.0,0.0,0.0,0.0,0.0,0.0,0.0,0.0,0.0,0.0,0.0,0.0,0.0,0.0,0.0,0.0,0.0,0.0,0.0,0.0,0.0,0.0,0.0,0.0,0.0,0.0,0.0,0.0,0.0,0.0,0.0,0.0,0.0,0.0,0.0,0.0,0.0,0.0,0.0,0.0,0.0,0.0,0.0,0.0,0.0,0.0,0.0,0.0,0.0,0.0,0.0,0.0,0.0,0.0,0.0,0.0,0.0,0.0,0.0,0.0,0.0,0.0,0.0,0.0,0.0,0.0,0.0,0.0,0.0,0.0,0.0,0.0,0.0,0.0,0.0,0.0,0.0,0.0,0.0,0.0,0.0,0.0,0.0,0.0,0.0,0.0,0.0,0.0,0.0,0.0,0.0,0.0,0.0,0.0,0.0,0.0,0.0,0.0,0.0,0.0,0.0,0.0,0.0,0.0,0.0,0.0,0.0,0.0,0.0,0.0,0.0,0.0,0.0,0.0,0.0,0.0,0.0,0.0,0.0,0.0,0.0,0.0,0.0,0.0,0.0,0.0,0.0,0.0,0.0,0.0,0.0,0.0,0.0,0.0,0.0,0.0,0.0,0.0,0.0,0.0,0.0,0.0,0.0,0.0,0.0,0.0,0.0,0.0,0.0,0.0,0.0,0.0,0.0,0.0,0.0,0.0,0.0,0.0,0.0,0.0,0.0,0.0,0.0,0.0,0.0,0.0,0.0,0.0,0.0,0.0,0.0,0.0,0.0,0.0,0.0,0.0,0.0,0.0,0.0,0.0,0.0,0.0,0.0,0.0,0.0,0.0,0.0,0.0,0.0,0.0,0.0,0.0,0.0,0.0,0.0,0.0,0.0,0.0,0.0,0.0,0.0,0.0,0.0,0.0,0.0,0.0,0.0,0.0,0.0,0.0,0.0,0.0,0.0,0.0,0.0,0.0,0.0,0.0,0.0,0.0,0.0,0.0,0.0,0.0,0.0,0.0,0.0,0.0,0.0,0.0,0.0,0.0,0.0,0.0,0.0,0.0,0.0,0.0,0.0,0.0,0.0,0.0,0.0,0.0,0.0,0.0,0.0,0.0,0.0,0.0,0.0,0.0,0.0,0.0,0.0,0.0,0.0,0.0,0.0,0.0,0.0,0.0,0.0,0.0,0.0,0.0,0.0,0.0,0.0,0.0,0.0,0.0,0.0,0.0,0.0,0.0,0.0,0.0,0.0,0.0,0.0,0.0,0.0,0.0,0.0,0.0,0.0,0.0,0.0,0.0,0.0,0.0,0.0,0.0,0.0,0.0,0.0,0.0,0.0,0.0,0.0,0.0,0.0,0.0,0.0,0.0,0.0,0.0,0.0,0.0,0.0,0.0,0.0,0.0,0.0,0.0,0.0,0.0,0.0,0.0,0.0,0.0,0.0,0.0,0.0,0.0,0.0,0.0,0.0,0.0,0.0,0.0,0.0,0.0,0.0,0.0,0.0,0.0,0.0,0.0,0.0,0.0,0.0,0.0,0.0,0.0,0.0,0.0,0.0,0.0,0.0,0.0,0.0,0.0,0.0,0.0,0.0,0.0,0.0,0.0,0.0,0.0,0.0,0.0,0.0,0.0,0.0,0.0,0.0,0.0,0.0,0.0,0.0,0.0,0.0,0.0,0.0,0.0,0.0,0.0,0.0,0.0,0.0,0.0,0.0,0.0,0.0,0.0,0.0,0.0,0.0,0.0,0.0,0.0,0.0,0.0,0.0,0.0,0.0,0.0,0.0,0.0,0.0,0.0,0.0,0.0,0.0,0.0,0.0,0.0,0.0,0.0,0.0,0.0,0.0,0.0,0.0,0.0,0.0,0.0,0.0,0.0,0.0,0.0,0.0,0.0,0.0,0.0,0.0,0.0,0.0,0.0,0.0,0.0,0.0,0.0,0.0,0.0,0.0,0.0,0.0,0.0,0.0,0.0,0.0,0.0,0.0,0.0,0.0,0.0,0.0,0.0,0.0,0.0,0.0,0.0,0.0,0.0,0.0,0.0,0.0,0.0,0.0,0.0,0.0,0.0,0.0,0.0,0.0,0.0,0.0,0.0,0.0,0.0,0.0,0.0,0.0,0.0,0.0,0.0,0.0,0.0,0.0,0.0,0.0,0.0,0.0,0.0,0.0,0.0,0.0,0.0,0.0,0.0,0.0,0.0,0.0,0.0,0.0,0.0,0.0,0.0,0.0,0.0,0.0,0.0,0.0,0.0,0.0,0.0,0.0,0.0,0.0,0.0,0.0,0.0,0.0,0.0,0.0,0.0,0.0,0.0,0.0,0.0,0.0,0.0,0.0,0.0,0.0,0.0,0.0,0.0,0.0,0.0,0.0,0.0,0.0,0.0,0.0,0.0,0.0,0.0,0.0,0.0,0.0,0.0,0.0,0.0,0.0,0.0,0.0,0.0,0.0,0.0,0.0,0.0,0.0,0.0,0.0,0.0,0.0,0.0,0.0,0.0,0.0,0.0,0.0,0.0,0.0,0.0,0.0,0.0,0.0,0.0,0.0,0.0,0.0,0.0,0.0,0.0,0.0,0.0,0.0,0.0,0.0,0.0,0.0,0.0,0.0,0.0,0.0,0.0,0.0,0.0,0.0,0.0,0.0,0.0,0.0,0.0,0.0,0.0,0.0,0.0,-0.8129,0.0,0.0,0.0,0.0,0.0,0.0,0.0,0.0,0.0,0.0,0.0,0.0,0.0,0.0,0.0,0.0,0.0,0.0,0.0,0.0,0.0,0.0,0.0,0.0,0.0,0.0,0.0,0.0,0.0,0.0,0.0,0.0,0.0,0.0,0.0,0.0,0.0,0.0,-1.2078,-1.1973,-1.1899,-1.1857,-1.2305,-1.1788,-1.0404,0.0,0.0,0.0,0.0,0.0,0.0,0.0,0.0,0.0,0.0,0.0,0.0,0.0,0.0,0.0,0.0,0.0,0.0,0.0,0.0,0.0,0.0,0.0,0.0,0.0,0.0,0.0,0.0,0.0,0.0,0.0,0.0,0.0,0.0,0.0,0.0,0.0,0.0,0.0,0.0,0.0,0.0,0.0,0.0,0.0,0.0,0.0,0.0,0.0,0.0,0.0,0.0,0.0,0.0,0.0,0.0,0.0,0.0,0.0,0.0,0.0,0.0,0.0,0.0,0.0,0.0,0.0,0.0,0.0,0.0,0.0,-0.8761,0.0,0.0,0.0,0.0,0.0,0.0,0.0,0.0,0.0,0.0,0.0,0.0,0.0,0.0,0.0,0.0,0.0,0.0,0.0,0.0,0.0,0.0,0.0,-1.2522,-1.2462,-1.2231,-1.2225,-1.2225,0.0,0.0,0.0,0.0,0.0,0.0,-1.2305,-1.2305,-1.2278,-1.2225,-1.2027,-1.2107,-1.2465,-1.2804,-1.2056,-1.0361,-0.9124,0.0,0.0,0.0,0.0,0.0,0.0,0.0,0.0,0.0,0.0,0.0,0.0,0.0,0.0,0.0,0.0,0.0,0.0,0.0,0.0,0.0,0.0,0.0,0.0,0.0,0.0,0.0,0.0,0.0,0.0,0.0,0.0,0.0,0.0,0.0,0.0,0.0,0.0,0.0,0.0,0.0,0.0,0.0,0.0,0.0,0.0,0.0,0.0,0.0,0.0,0.0,0.0,0.0,0.0,0.0,0.0,0.0,0.0,0.0,0.0,0.0,0.0,0.0,-1.3279,-1.343,-1.3456,-1.4184,-1.3372,-1.143,-1.0786,-1.0067,-0.9333,0.0,0.0,0.0,0.0,0.0,0.0,0.0,0.0,0.0,0.0,0.0,0.0,0.0,0.0,0.0,0.0,0.0,0.0,0.0,0.0,0.0,0.0,-1.3366,-1.3093,-1.2051,-1.196,-1.196,-1.196,0.0,0.0,0.0,0.0,0.0,-1.2305,-1.2305,-1.2178,-1.196,-1.1926,-1.2328,-1.31,-1.3347,-1.2853,-1.1595,-0.9912,-0.8797,-0.8118,0.0,0.0,0.0,0.0,0.0,0.0,0.0,0.0,0.0,0.0,0.0,0.0,0.0,0.0,0.0,0.0,0.0,0.0,0.0,0.0,0.0,0.0,0.0,0.0,0.0,0.0,0.0,0.0,0.0,0.0,0.0,0.0,0.0,0.0,0.0,0.0,0.0,0.0,0.0,0.0,0.0,-1.2305,-1.2305,0.0,0.0,0.0,0.0,0.0,0.0,0.0,0.0,0.0,0.0,0.0,0.0,0.0,-1.3459,-1.3831,-1.4333,-1.4625,-1.4672,-1.4955,-1.4798,-1.4307,-1.4449,-1.4302,-1.4,-1.3922,0.0,-1.1279,-1.0851,0.0,0.0,0.0,0.0,0.0,0.0,0.0,0.0,0.0,0.0,0.0,0.0,0.0,0.0,0.0,0.0,0.0,0.0,0.0,0.0,0.0,-1.4067,-1.3795,-1.2708,-1.3073,-1.3073,-1.2442,-1.2679,0.0,0.0,0.0,-1.2305,-1.2305,-1.2144,-1.2078,-1.2111,-1.2786,-1.3313,-1.3714,-1.4175,-1.4025,-1.3326,-1.2034,-1.0608,-0.9127,-0.8635,0.0,0.0,0.0,0.0,0.0,0.0,0.0,0.0,0.0,0.0,0.0,0.0,0.0,0.0,0.0,0.0,0.0,0.0,0.0,0.0,0.0,0.0,0.0,0.0,0.0,0.0,0.0,0.0,0.0,0.0,0.0,0.0,0.0,0.0,0.0,0.0,0.0,0.0,0.0,-1.3213,-1.33,-1.267,-1.3487,-1.3968,0.0,0.0,0.0,0.0,0.0,0.0,0.0,0.0,0.0,-1.3707,-1.4309,-1.4676,-1.477,-1.5391,-1.5745,-1.5752,-1.5992,-1.5999,-1.5745,-1.5745,-1.5745,-1.5738,-1.5578,-1.4929,-1.3926,-1.3041,-1.2609,-1.2276,0.0,0.0,0.0,0.0,-0.6627,-0.6841,0.0,0.0,0.0,0.0,0.0,0.0,0.0,0.0,0.0,0.0,0.0,0.0,-1.4711,-1.4613,-1.4298,-1.3501,-1.3919,-1.3921,-1.3072,-1.318,-1.3033,-1.2438,-1.2345,-1.2338,-1.2412,-1.2285,-1.2425,-1.2866,-1.3761,-1.4355,-1.4656,-1.5142,-1.5217,-1.5032,-1.4372,-1.2833,-1.0684,-1.0264,-0.9389,-0.8326,0.0,0.0,0.0,0.0,0.0,0.0,0.0,0.0,0.0,0.0,0.0,0.0,0.0,0.0,0.0,0.0,0.0,0.0,0.0,0.0,0.0,0.0,0.0,0.0,0.0,0.0,0.0,0.0,0.0,0.0,0.0,0.0,0.0,0.0,0.0,0.0,0.0,-1.3561,-1.3707,-1.2784,-1.3748,-1.4376,0.0,0.0,0.0,0.0,0.0,0.0,-1.4019,-1.4532,-1.4756,-1.4543,-1.5244,-1.5625,-1.5678,-1.6254,-1.6623,-1.6727,-1.686,-1.6894,-1.682,-1.682,-1.6774,-1.6693,-1.648,-1.6213,-1.5852,-1.4676,-1.3981,-1.3464,-1.1287,-1.0583,-1.0491,-0.8229,-0.7512,-0.7645,0.0,0.0,0.0,0.0,0.0,0.0,0.0,0.0,0.0,0.0,0.0,-1.6008,-1.5937,-1.5127,-1.4432,-1.4079,-1.378,-1.362,-1.356,-1.2826,-1.2478,-1.275,-1.2452,-1.2438,-1.2757,-1.2999,-1.3561,-1.4409,-1.4469,-1.507,-1.6214,-1.6241,-1.6346,-1.6593,-1.6544,-1.5159,-1.2755,-1.1219,-1.0462,-1.0215,-0.9916,0.0,0.0,0.0,0.0,0.0,0.0,0.0,0.0,0.0,0.0,0.0,0.0,0.0,0.0,0.0,0.0,0.0,0.0,0.0,0.0,0.0,0.0,0.0,0.0,0.0,0.0,0.0,0.0,0.0,0.0,0.0,0.0,0.0,0.0,0.0,0.0,0.0,0.0,-1.2365,-1.3621,0.0,0.0,0.0,0.0,-1.5264,-1.5068,-1.5028,-1.5291,-1.5598,-1.5711,-1.5691,-1.6059,-1.667,-1.7442,-1.7273,-1.7395,-1.7896,-1.7675,-1.7395,-1.7179,-1.7179,-1.7025,-1.6707,-1.6693,-1.652,-1.6159,-1.4983,-1.4649,-1.4701,-1.2741,-1.2435,-1.2681,-0.9862,-0.8961,-0.8967,0.0,0.0,0.0,0.0,0.0,0.0,0.0,0.0,-1.6285,-1.7375,-1.7193,-1.6889,-1.6594,-1.624,-1.5791,-1.5261,-1.5284,-1.5097,-1.4529,-1.4392,-1.4158,-1.3648,-1.3747,-1.3621,-1.3313,-1.3621,-1.4021,-1.4522,-1.5277,-1.5865,-1.6328,-1.671,-1.6837,-1.6727,-1.7101,-1.6568,-1.5319,-1.398,-1.2736,-1.1545,-1.0899,-1.0186,0.0,0.0,0.0,0.0,0.0,0.0,0.0,0.0,0.0,0.0,0.0,0.0,0.0,0.0,0.0,0.0,0.0,0.0,0.0,0.0,0.0,0.0,0.0,0.0,0.0,0.0,0.0,0.0,0.0,0.0,0.0,0.0,0.0,0.0,0.0,0.0,0.0,-1.4543,-1.5211,0.0,-1.5357,-1.5184,-1.5324,-1.5912,-1.5913,-1.6067,-1.6549,-1.6987,-1.721,-1.721,-1.7303,-1.7655,-1.8163,-1.7675,-1.7635,-1.7989,-1.7736,-1.7528,-1.7481,-1.7481,-1.7368,-1.7261,-1.7125,-1.6827,-1.6506,-1.5899,-1.5491,-1.5099,-1.347,-1.2969,-1.3012,-1.1308,-1.0774,-1.0678,0.0,0.0,0.0,0.0,0.0,0.0,0.0,0.0,-1.634,-1.762,-1.7755,-1.7699,-1.7733,-1.7814,-1.769,-1.7287,-1.6904,-1.6374,-1.5655,-1.5271,-1.4672,-1.3829,-1.4092,-1.4111,-1.3788,-1.4369,-1.4816,-1.511,-1.5992,-1.6466,-1.6623,-1.7018,-1.7206,-1.7174,-1.7562,-1.7582,-1.7241,-1.6259,-1.4852,-1.3157,-1.2447,-1.1838,-1.1257,0.0,0.0,0.0,0.0,0.0,0.0,0.0,0.0,0.0,0.0,0.0,0.0,0.0,0.0,0.0,0.0,0.0,0.0,0.0,0.0,0.0,0.0,0.0,0.0,0.0,0.0,0.0,0.0,0.0,0.0,0.0,0.0,0.0,0.0,0.0,-1.6269,-1.6819,-1.6811,-1.6923,-1.7302,-1.7064,-1.7287,-1.8294,-1.8381,-1.8369,-1.838,-1.87,-1.8666,-1.8196,-1.8042,-1.8135,-1.849,-1.7989,-1.7842,-1.7989,-1.7836,-1.7682,-1.7582,-1.7582,-1.7582,-1.7569,-1.7434,-1.7179,-1.6834,-1.654,-1.6192,-1.5704,-1.4551,-1.4084,-1.3976,-1.2945,-1.2501,-1.2263,0.0,0.0,0.0,0.0,0.0,0.0,0.0,-1.5701,-1.6239,-1.7274,-1.7828,-1.8454,-1.9295,-1.9687,-1.9966,-2.0102,-1.8462,-1.7221,-1.6896,-1.5238,-1.3992,-1.3339,-1.3514,-1.378,-1.4148,-1.5264,-1.5992,-1.6348,-1.6593,-1.6881,-1.7213,-1.7213,-1.7482,-1.7995,-1.7995,-1.8217,-1.845,-1.7862,-1.667,-1.5075,-1.4676,-1.3861,-1.2841,0.0,0.0,0.0,0.0,0.0,0.0,0.0,0.0,0.0,0.0,0.0,0.0,0.0,0.0,0.0,0.0,0.0,0.0,0.0,0.0,0.0,0.0,0.0,0.0,0.0,0.0,0.0,0.0,0.0,0.0,0.0,0.0,0.0,-1.8802,-1.8386,-1.8416,-1.9071,-1.8322,-1.8213,-1.9434,-1.9742,-2.0631,-2.2376,-2.2522,-2.2043,-2.0831,-2.0792,-2.0106,-1.8621,-1.8278,-1.8217,-1.8517,-1.8217,-1.8009,-1.8015,-1.8002,-1.7836,-1.7595,-1.7589,-1.7582,-1.7569,-1.7582,-1.7467,-1.7166,-1.682,-1.67,-1.6633,-1.6017,-1.5798,-1.5695,-1.4722,-1.4211,-1.3752,0.0,0.0,0.0,0.0,0.0,0.0,-1.427,-1.5118,-1.6058,-1.7236,-1.8054,-1.8739,-1.9185,-1.9654,-2.0025,-2.0293,-1.8239,-1.742,-1.8536,-1.6485,-1.5415,-1.5867,-1.4853,-1.4716,-1.5651,-1.5985,-1.64,-1.6958,-1.7201,-1.7382,-1.7514,-1.7514,-1.7669,-1.7995,-1.7995,-1.8217,-1.8477,-1.831,-1.7836,-1.7061,-1.5478,-1.4777,-1.4585,0.0,0.0,0.0,0.0,0.0,0.0,0.0,0.0,0.0,0.0,0.0,0.0,0.0,0.0,0.0,0.0,0.0,0.0,0.0,0.0,0.0,0.0,0.0,0.0,0.0,0.0,0.0,0.0,0.0,0.0,0.0,0.0,-2.2306,-2.1239,-2.0551,-2.0606,-2.1705,-2.1594,-2.1663,-2.2257,-2.2363,-2.2621,-2.3096,-2.3344,-2.3316,-2.2965,-2.2973,-2.2259,-2.0769,-2.04,-1.9906,-1.9182,-1.8624,-1.847,-1.8621,-1.8195,-1.7949,-1.7856,-1.7689,-1.7468,-1.7333,-1.7548,-1.7295,-1.682,-1.674,-1.6587,-1.638,-1.6213,-1.6279,-1.6424,-1.6143,-1.5407,-1.4427,0.0,0.0,0.0,0.0,0.0,0.0,-1.302,-1.4498,-1.5574,-1.5794,-1.8119,-1.9638,-1.9331,-2.0437,-2.12,-2.1057,-1.8762,-1.7664,-1.8566,-1.6619,-1.5685,-1.6308,-1.5396,-1.5324,-1.6301,-1.6683,-1.7054,-1.7528,-1.7816,-1.7963,-1.7963,-1.7836,-1.8003,-1.8355,-1.8283,-1.8464,-1.8851,-1.8724,-1.8571,-1.8235,-1.684,-1.6279,-1.6199,-1.5144,-1.4611,-1.4356,-1.3754,-1.3344,-1.3072,-1.2576,0.0,0.0,0.0,0.0,0.0,0.0,0.0,0.0,0.0,0.0,0.0,0.0,0.0,0.0,0.0,0.0,0.0,0.0,0.0,0.0,0.0,0.0,0.0,0.0,-2.3877,-2.4493,-2.4154,-2.3251,-2.2977,-2.4136,-2.3682,-2.3603,-2.4422,-2.4556,-2.4783,-2.5388,-2.5593,-2.5434,-2.482,-2.4765,-2.41,-2.2589,-2.2205,-2.1468,-2.0117,-1.9759,-1.9285,-1.8738,-1.8462,-1.8295,-1.8223,-1.7916,-1.7682,0.0,-1.7569,-1.7388,-1.7061,-1.6941,-1.6844,0.0,0.0,0.0,0.0,0.0,-1.6392,-1.5889,0.0,0.0,0.0,0.0,0.0,0.0,-1.1896,-1.3889,-1.4967,-1.3844,-1.7843,-2.0357,-1.9193,-2.1151,-2.2363,-2.1797,-1.9486,-1.7934,-1.7672,-1.6172,-1.5371,-1.5644,-1.5528,-1.5752,-1.6406,-1.7215,-1.7802,-1.8089,-1.8377,-1.851,-1.8537,-1.8149,-1.8288,-1.8865,-1.8604,-1.8798,-1.9299,-1.9072,-1.8978,-1.8925,-1.8348,-1.7969,-1.7542,-1.6693,-1.6533,-1.6673,-1.6278,-1.6008,-1.5865,-1.5538,0.0,0.0,0.0,0.0,0.0,0.0,0.0,0.0,0.0,0.0,0.0,0.0,0.0,0.0,0.0,0.0,0.0,0.0,0.0,0.0,0.0,0.0,0.0,0.0,-2.5401,-2.6328,-2.7187,-2.612,-2.5527,-2.6245,-2.5194,-2.4889,-2.6273,-2.6445,-2.6954,-2.8252,-2.8359,-2.7783,-2.6436,0.0,0.0,0.0,0.0,-2.2905,-2.12,-2.1145,-2.0303,-1.8591,-1.8818,-1.8791,-1.8531,-1.823,-1.8029,-1.7975,-1.7756,-1.7615,-1.7562,-1.732,-1.7199,-1.7152,-1.6623,-1.6442,-1.6446,-1.6673,-1.7108,-1.7495,0.0,0.0,0.0,0.0,0.0,0.0,-1.2581,-1.3779,-1.4455,-1.426,-1.6757,-1.8138,-1.7014,-1.8396,-1.9764,-2.0761,-1.9342,-1.8114,-1.7399,-1.6746,-1.6437,-1.6521,-1.6021,-1.6239,-1.7308,-1.7742,-1.8169,-1.8758,-1.8577,-1.8611,-1.8831,-1.8242,-1.8237,-1.8577,-1.8517,-1.8684,-1.9018,-1.9205,-1.9279,-1.9272,-1.9158,-1.8651,-1.7883,-1.7228,-1.7065,-1.7184,-1.778,-1.839,-1.8866,-1.8386,-1.832,-1.8113,-1.6001,-1.4773,0.0,0.0,0.0,0.0,0.0,0.0,0.0,0.0,0.0,0.0,0.0,0.0,0.0,0.0,0.0,0.0,0.0,0.0,0.0,-2.6309,-2.7236,-2.8096,-2.8955,-2.8542,-2.8035,-2.7916,-2.7905,-2.806,-2.8334,-2.8343,-2.8452,-2.8744,-2.8799,-2.8534,-2.7916,-2.7897,-2.7168,-2.5709,-2.5583,-2.4268,-2.1545,-2.1489,-2.0743,-1.9199,0.0,0.0,-1.8831,-1.8537,-1.827,-1.7989,-1.7929,-1.7816,-1.7562,-1.732,-1.7199,-1.7192,-1.7079,-1.7172,-1.7308,-1.7179,-1.7281,-1.7495,0.0,0.0,0.0,0.0,0.0,0.0,-1.1663,-1.302,-1.3805,-1.3447,-1.6242,-1.7909,-1.6952,-1.8061,-1.9097,-1.9563,-1.8762,-1.7734,-1.6464,-1.7006,-1.7098,-1.6558,-1.6538,-1.6907,-1.7796,-1.8116,-1.8484,-1.8925,-1.8778,-1.8858,-1.9132,-1.8544,-1.8504,-1.8925,-1.8771,-1.8871,-1.9158,-1.9305,-1.9424,-1.9424,-1.9424,-1.9105,-1.8657,-1.821,-1.8412,-1.9005,-1.9449,-2.0259,-2.1087,-2.067,-2.0528,-2.0261,-1.8775,-1.7375,-1.6186,0.0,0.0,0.0,0.0,0.0,0.0,0.0,0.0,0.0,0.0,0.0,0.0,0.0,0.0,-2.3898,0.0,0.0,-2.6963,-2.7832,-2.8506,-2.9082,-2.9567,-2.956,-2.9404,-2.8984,-2.8926,-2.9004,-2.9219,-2.9248,-2.9248,-2.9248,-2.9043,-2.8828,-2.8613,-2.8408,-2.795,-2.7222,-2.7222,-2.61,-2.3869,-2.3869,-2.3095,-2.1601,-2.1429,-2.1354,-2.1339,-2.0303,-1.9693,-1.9476,-1.8435,-1.7902,-1.7776,-1.7387,-1.7286,-1.7407,-1.7259,-1.738,-1.7562,-1.7474,-1.7455,-1.7542,0.0,0.0,0.0,0.0,0.0,0.0,0.0,-1.2404,-1.3329,-1.2546,-1.5719,-1.7751,-1.6908,-1.7892,-1.8614,-1.8617,-1.8408,-1.7633,-1.6133,-1.723,-1.7445,-1.641,-1.6864,-1.7402,-1.8062,-1.837,-1.8631,-1.8925,-1.8985,-1.9098,-1.9272,-1.8798,-1.8824,-1.933,-1.9303,-1.9494,-1.9726,-2.0127,-2.0097,-1.9815,-1.9815,-1.9815,-1.9788,-1.9542,-2.0053,-2.0888,-2.1024,-2.1783,-2.2681,-2.2435,-2.2126,-2.1588,-2.0704,-1.9573,-1.8333,-1.7239,-1.65,0.0,0.0,0.0,0.0,0.0,0.0,0.0,0.0,0.0,-2.4639,-2.498,-2.5742,-2.6493,-2.7148,-2.7959,-2.8682,-2.9101,-2.9541,-2.9824,-2.9824,-3.0039,-3.0068,-2.9792,-2.9307,-2.9219,-2.9648,-2.9675,-2.96,-2.9687,-2.9287,-2.9014,-2.8926,-2.8525,-2.8291,-2.8291,-2.8291,-2.7609,-2.61,-2.6181,-2.5395,-2.3822,-2.3896,-2.3896,-2.3758,-2.2299,-2.162,-2.1534,-1.9775,-1.9024,-1.8926,-1.8411,-1.832,-1.8464,-1.8271,-1.8292,-1.8349,-1.7786,-1.7582,-1.7582,0.0,0.0,0.0,0.0,0.0,0.0,0.0,0.0,-1.3337,-1.2679,-1.4679,-1.5833,-1.4839,-1.5642,-1.6896,-1.8459,-1.8945,-1.8814,-1.7945,-1.7738,-1.736,-1.6693,-1.672,-1.7288,-1.8417,-1.847,-1.8631,-1.8925,-1.9192,-1.9199,-1.8971,-1.8905,-1.8911,-1.9028,-2.0292,-2.0892,-2.1,-2.2632,-2.254,-2.1358,-2.1358,-2.1358,-2.1358,-2.1321,-2.1398,-2.1568,-2.2116,-2.278,-2.3397,-2.3352,-2.2895,-2.2125,-2.1199,-2.0527,-1.9737,-1.8226,-1.8082,-1.8146,-1.69,-1.8488,-2.1166,-2.384,-2.4339,-2.4704,0.0,0.0,-2.7297,-2.7346,-2.7978,-2.8476,-2.8203,-2.8848,-2.957,-2.998,-3.0439,-3.0742,-3.0742,-3.043,-3.0176,-3.0137,-2.9756,-2.9668,-3.0088,-2.9785,-2.9726,-3.0098,-2.9736,-2.9326,-2.8935,-2.8525,-2.8291,-2.8291,-2.8291,-2.7609,-2.61,-2.6462,-2.5675,-2.383,-2.4208,-2.4192,-2.3766,-2.3613,-2.3486,-2.3461,-2.3015,-2.2611,-2.2339,-2.1888,-2.175,-2.1783,-2.1742,-2.1547,-2.0939,-1.8499,-1.7582,-1.7582,0.0,0.0,0.0,0.0,0.0,0.0,0.0,0.0,0.0,-1.3261,-1.5025,-1.6311,-1.6173,-1.6713,-1.7411,-1.8163,-1.8627,-1.876,-1.8521,-1.875,-1.8894,-1.8964,-1.8388,-1.8825,-2.0582,-2.0044,-2.0292,-2.1385,-2.1633,-2.1732,-2.1777,-2.1587,-2.1595,-2.1777,-2.2378,-2.2648,-2.272,-2.3478,-2.3609,-2.3293,-2.3293,-2.3293,-2.3245,-2.2728,-2.2753,-2.3098,-2.3322,-2.3856,0.0,-2.4107,-2.4003,-2.39,-2.3524,-2.2404,-2.118,-2.0571,-1.9773,-1.9173,-1.9622,-2.1138,-2.3027,0.0,-2.5879,-2.6914,-2.7822,-2.8418,-2.8892,-2.9092,-2.9629,-3.001,-2.9834,-3.0098,-3.04,0.0,-3.0762,-3.0889,-3.0889,-3.0488,-3.0107,-2.9863,-2.9453,-2.9453,-3.0127,-3.0039,-3.0117,-3.0566,-3.0185,-2.9746,-2.9316,-2.8887,-2.8545,-2.8301,-2.8291,-2.813,-2.7744,-2.7924,-2.7584,-2.6784,-2.6957,-2.6829,-2.6391,-2.5544,-2.4535,-2.3563,-2.3469,-2.3187,-2.2892,-2.2742,-2.2631,-2.2606,-2.2399,-2.2217,-2.1827,-1.9859,-1.9022,-1.8655,0.0,0.0,0.0,0.0,0.0,0.0,0.0,0.0,0.0,0.0,-1.5374,-1.6758,-1.7324,-1.7656,-1.7842,-1.7842,-1.8188,-1.8349,-1.8196,-1.9007,-1.967,-2.0019,-1.9513,-2.0163,-2.204,-2.1551,-2.1851,-2.3037,-2.3343,-2.3522,-2.3525,-2.3522,-2.3629,-2.3822,-2.4267,-2.4433,-2.4488,-2.4884,-2.4984,-2.4952,-2.4952,-2.4777,-2.4522,-2.3715,-2.3669,-2.3974,-2.357,-2.3782,-2.4186,-2.3828,-2.3848,-2.4053,-2.4287,-2.3458,-2.228,-2.2044,-2.0947,-2.0235,-2.2043,-2.337,0.0,-2.5538,-2.7139,-2.8564,-2.8926,-2.9668,-3.0332,-3.0527,-3.0928,-3.1172,-3.0928,-3.0889,-3.0889,-3.0889,-3.0889,-3.0889,-3.0889,-3.0488,-2.999,-2.9453,-2.9014,-2.8994,-2.9609,-2.9775,-3.0078,-3.0654,-3.0283,-2.9941,-2.9756,-2.9219,-2.8779,-2.8476,-2.8359,-2.8437,-2.874,-2.8857,-2.8916,-2.8916,-2.8916,-2.876,-2.8403,-2.7215,-2.601,-2.475,-2.475,-2.4593,-2.4385,-2.428,-2.4236,-2.421,-2.3878,-2.3643,-2.3263,-2.2058,-2.0765,-1.9428,0.0,0.0,0.0,0.0,0.0,0.0,0.0,0.0,0.0,0.0,0.0,0.0,0.0,-1.7393,-1.7435,-1.7435,-1.7793,-1.7685,-1.6918,-1.8018,-1.8726,-1.8641,-1.9448,-2.0589,-2.2084,-2.2461,-2.2642,-2.2712,-2.3467,-2.3459,-2.2737,-2.3483,-2.3813,-2.3877,-2.5371,-2.6036,-2.61,-2.7565,-2.734,-2.6063,-2.6063,-2.555,-2.4717,-2.4253,-2.3934,-2.3632,-2.2189,-2.1789,-2.1982,-2.1963,-2.1689,-2.1453,-2.2324,-2.2861,-2.2911,-2.1678,-2.1275,-2.1698,-2.3739,-2.469,-2.5488,-2.7168,-2.8252,-2.9238,-3.0518,-3.1475,-3.1973,-3.1562,-3.1826,-3.1875,-3.1045,-3.0889,-3.0889,-3.0889,-3.0889,-3.0889,-3.0889,-3.0488,-2.9883,-2.9043,-2.8564,-2.832,0.0,-2.8721,-2.9307,-3.0156,-2.9824,-2.9766,-3.0156,-2.9375,-2.8916,-2.8896,-2.8506,-2.8301,-2.831,-2.8711,-2.8916,-2.8916,-2.8916,-2.8916,-2.8887,-2.8423,-2.8174,-2.8165,-2.8165,-2.8155,-2.8116,-2.7707,-2.7532,-2.7532,-2.7522,-2.7017,-2.6176,-2.5194,-2.2634,-1.9428,0.0,0.0,0.0,0.0,0.0,0.0,0.0,0.0,0.0,0.0,0.0,0.0,0.0,0.0,0.0,0.0,-1.7048,-1.7378,-1.7956,-1.8711,-1.9615,-2.0758,-2.0722,-2.1502,-2.3183,-2.3006,-2.3384,-2.4295,-2.4799,-2.5066,-2.5178,-2.5404,-2.582,-2.6391,-2.6933,-2.7308,-2.7599,-2.782,-2.7752,-2.7508,-2.6955,-2.6513,-2.6123,-2.481,-2.393,-2.3218,0.0,-2.1393,-2.1406,-2.1153,-2.1113,-2.1249,-2.1531,-2.1768,-2.186,-2.1744,-2.3177,-2.506,-2.6067,-2.8466,-3.0626,-3.0473,-3.1511,-3.2527,-3.2214,-3.2373,-3.2383,-3.166,-3.0947,-3.0185,-2.9326,-2.916,-2.9258,-2.9531,-3.0059,-3.0537,-3.085,-3.0488,-2.9883,-2.9023,-2.8789,0.0,0.0,0.0,0.0,-2.9717,-2.9902,-2.9922,-2.9785,-2.9775,-2.9639,-2.9365,-2.9209,-2.9268,-2.9551,-2.9697,-2.9766,-2.9766,-2.9189,-2.8916,-2.8906,-2.8486,-2.8291,-2.8291,-2.8291,-2.8291,-2.8281,-2.8135,-2.8086,-2.8057,-2.7826,-2.7314,-2.6625,-2.5103,-2.3618,-2.2013,0.0,0.0,0.0,0.0,0.0,0.0,0.0,0.0,0.0,0.0,0.0,0.0,0.0,0.0,0.0,0.0,0.0,-1.6836,-1.7666,-1.8418,-1.9394,-2.0674,-2.0869,-2.1597,-2.3096,-2.2902,-2.325,-2.416,-2.459,-2.4951,-2.5244,-2.5547,-2.6055,-2.6799,-2.6904,-2.7129,-2.7353,-2.6924,-2.6797,-2.6846,-2.6143,-2.5586,-2.4992,-2.338,-2.2433,0.0,-2.0646,-2.0341,-2.0547,-2.0595,-2.0752,-2.1025,-2.1142,-2.1405,-2.1765,-2.2393,-2.473,-2.7334,-2.8258,-3.1202,-3.3945,-3.3661,-3.465,-3.5301,-3.3963,-3.3547,-3.2924,-3.1172,-3.0029,-2.9033,-2.8018,-2.7715,-2.7803,-2.8379,-2.8935,-2.9551,-3.0312,-3.0166,-2.9775,-2.9219,-2.9014,-2.8711,0.0,0.0,0.0,-2.9287,-2.9873,-3.0078,-2.9814,-3.0049,-3.0068,-2.9805,-2.9648,-2.9697,-2.9971,-2.9971,-2.9971,-2.9971,-2.956,-2.9219,-2.8906,-2.8643,-2.8437,-2.8291,-2.8291,-2.8291,-2.8291,-2.8291,-2.8291,-2.8262,-2.7998,-2.7529,-2.689,-2.5857,-2.5047,-2.3949,0.0,0.0,0.0,0.0,0.0,0.0,0.0,0.0,0.0,0.0,0.0,0.0,0.0,0.0,0.0,0.0,0.0,0.0,-1.6095,-1.7246,-1.81,-1.8549,-1.9824,-2.0938,-2.1768,-2.2197,-2.2412,-2.2412,-2.2812,-2.3061,-2.3163,-2.4012,-2.4585,-2.5045,-2.5429,-2.5586,-2.5528,-2.5127,-2.4707,-2.4316,-2.3867,-2.2978,-2.1783,-2.0331,-1.9869,-1.9828,-1.8831,-1.8836,-1.9424,-2.0341,-2.0664,-2.0781,-2.1231,-2.1987,-2.283,-2.3757,-2.611,-2.881,-3.0571,-3.3174,-3.5628,-3.6771,-3.7379,-3.7261,-3.5572,-3.4742,-3.3443,-3.0198,-2.9053,-2.831,0.0,0.0,-2.6572,-2.7513,-2.7728,-2.8237,-2.9518,-2.9695,-2.9685,0.0,0.0,0.0,0.0,0.0,0.0,-2.8926,0.0,-3.0176,-3.0195,-3.0215,-3.0234,-3.0234,-2.9844,-2.9695,-2.9695,-2.9695,-2.9695,-2.9648,-3.0019,-2.9766,-2.8955,-2.8926,-2.8691,-2.8291,-2.8291,-2.8291,-2.8291,-2.8271,-2.8262,-2.8262,-2.8262,-2.7734,-2.7031,-2.7471,-2.6826,-2.5128,0.0,0.0,0.0,0.0,0.0,0.0,0.0,0.0,0.0,0.0,0.0,0.0,0.0,0.0,0.0,0.0,0.0,0.0,-1.6075,-1.6689,-1.736,-1.8135,-1.9092,-1.9863,-2.041,-2.084,-2.1064,-2.1064,-2.1857,-2.2358,-2.2706,-2.3558,-2.4022,-2.4122,-2.4245,-2.4095,-2.3734,-2.334,-2.3281,-2.3354,-2.2666,-2.2363,-2.2139,-2.0351,-1.9968,-2.0236,-1.8856,-1.876,-1.9473,-2.0664,-2.1484,-2.2247,-2.3482,-2.4386,-2.5222,-2.6472,-2.9853,-3.3486,-3.5113,-3.7921,-4.0233,-3.9758,-3.9484,-3.8436,-3.5393,-3.3512,-3.1657,-2.8803,-2.6777,-2.5273,0.0,0.0,0.0,-2.6514,-2.7773,0.0,-3.0371,-3.0557,0.0,-3.0078,0.0,-2.9746,-2.9434,-2.959,0.0,0.0,-2.9609,-2.9863,-3.0176,-3.0527,-3.0713,-3.0713,-3.0605,-3.0557,-3.0557,-3.0557,-3.0557,-3.0557,-3.0312,-2.9922,-2.9394,-2.9062,-2.8691,-2.8291,-2.8291,-2.8291,-2.8271,-2.7959,-2.7822,-2.7822,-2.7822,-2.7305,-2.6602,-2.7021,-2.6572,-2.543,0.0,0.0,0.0,0.0,0.0,0.0,0.0,0.0,0.0,0.0,0.0,0.0,0.0,0.0,0.0,0.0,0.0,0.0,0.0,-1.6377,-1.6911,-1.7399,-1.8271,-1.875,-1.8799,-1.9079,-1.9072,-1.8887,-1.9389,-1.9834,-2.0291,-2.1136,-2.1631,-2.1836,-2.2221,-2.2259,-2.1992,-2.1758,-2.168,0.0,0.0,-2.1055,-2.0876,-1.8881,-1.8896,-1.9839,-1.8246,-1.8981,-2.0918,-2.2301,-2.3446,-2.4676,-2.6778,-2.7974,-2.8956,-3.0618,-3.3719,-3.6998,-3.8484,-4.0992,-4.3069,-4.223,-4.144,-3.9718,-3.5424,-3.3149,-3.079,-2.6824,-2.4844,-2.3603,-2.2764,-2.3144,0.0,0.0,0.0,0.0,-3.0078,-3.0644,-3.0859,0.0,-3.0781,0.0,-3.0449,-3.0283,-3.0185,0.0,-3.0146,-3.0166,-3.0195,-3.0635,-3.0889,-3.0889,-3.0889,-3.0889,-3.0889,-3.0889,-3.0889,-3.0889,-3.0625,-3.0264,-2.9834,-2.9404,-2.8975,-2.8555,0.0,-2.8291,-2.8271,-2.8037,-2.7885,-2.7718,-2.7718,-2.72,-2.6435,-2.6865,-2.6475,-2.5606,0.0,0.0,0.0,0.0,0.0,0.0,0.0,0.0,0.0,0.0,0.0,0.0,0.0,0.0,0.0,0.0,0.0,0.0,0.0,0.0,-1.6668,-1.6785,-1.7529,-1.7783,-1.7471,-1.7471,-1.7275,-1.6872,-1.6931,-1.7162,-1.7589,-1.8388,-1.8934,-1.9232,-2.0051,-2.0367,-2.0263,-2.0263,-2.0078,-1.9824,-1.9824,-1.9678,-1.9259,0.0,-1.7725,-1.9174,-1.7734,-1.9388,-2.2522,-2.4395,-2.5888,-2.7454,-3.0208,-3.1888,-3.3239,-3.5274,-3.7529,-3.9764,-4.1184,-4.3148,-4.4581,-4.3953,-4.2737,-4.0412,-3.5352,-3.2778,-2.9987,-2.4691,-2.3242,-2.2709,-2.1855,-2.2148,-2.3096,-2.4863,0.0,-2.7305,-2.9443,-3.0459,-3.1103,-3.1475,-3.1572,-3.1601,-3.1601,-3.0908,-3.0625,-3.1025,-3.1006,-3.0771,-3.0312,-3.0674,-3.0889,-3.0889,-3.0889,-3.0889,-3.0889,-3.0889,-3.0889,-3.0889,-3.0889,-3.0644,-3.0185,-2.9766,-2.9336,-2.8896,0.0,0.0,-2.8291,-2.8232,-2.7998,-2.7708,-2.765,-2.709,-2.6435,-2.6797,-2.6426,-2.5742,0.0,0.0,0.0,0.0,0.0,0.0,0.0,0.0,0.0,0.0,-1.5635,-1.541,0.0,0.0,0.0,0.0,0.0,0.0,0.0,0.0,0.0,-1.7236,-1.7412,-1.7627,-1.79,-1.79,-1.7871,-1.775,-1.811,-1.831,-1.8425,-1.9264,-1.9318,-1.8733,-1.9272,-1.912,-1.8447,-1.8447,-1.8818,-1.9394,-1.9394,-1.9775,-2.0217,-1.8985,0.0,0.0,-1.9104,-1.9764,-2.1471,-2.5025,-2.7434,-2.9375,-3.1856,-3.4226,-3.6561,-3.8666,-4.0701,-4.2619,-4.429,-4.5007,-4.5095,-4.4066,-4.1527,-3.8245,-3.4095,-3.053,0.0,0.0,-2.2109,-2.1406,-2.0928,-2.1738,-2.3193,-2.5283,-2.665,-2.8203,-3.0351,-3.1094,-3.1435,0.0,0.0,0.0,0.0,0.0,0.0,0.0,0.0,-3.1221,-3.0791,-3.085,-3.0889,-3.0889,-3.0889,-3.0889,-3.0889,-3.0889,-3.0889,-3.0889,-3.0889,-3.0644,-3.0185,-2.9766,-2.9336,-2.8896,-2.8476,0.0,-2.8262,-2.792,-2.7787,-2.7679,-2.7266,-2.6826,-2.6396,-2.6465,-2.6172,-2.5703,0.0,0.0,0.0,0.0,0.0,0.0,0.0,-1.5752,-1.6026,-1.6692,-1.6572,-1.626,-1.5801,-1.5547,-1.541,0.0,0.0,0.0,0.0,0.0,0.0,0.0,-1.7266,-1.748,-1.7676,-1.7686,-1.7578,-1.7311,0.0,-1.7609,-1.7619,-1.8289,-1.8371,-1.7983,-1.8428,-1.8524,-1.8315,-1.8574,-1.9033,-1.9639,-1.9863,-2.0233,-2.0479,0.0,0.0,0.0,-1.9868,-2.0654,-2.196,-2.4291,-2.7035,-3.0087,-3.4079,-3.5908,-3.7092,-3.9884,-4.1453,-4.2625,-4.4133,-4.5215,-4.5573,-4.4154,-4.1047,-3.7183,-3.288,0.0,0.0,-2.2175,-2.1172,-2.082,-2.0644,-2.1455,0.0,-2.4443,-2.543,-2.6885,-2.9492,-3.0234,0.0,0.0,0.0,0.0,0.0,0.0,0.0,0.0,0.0,-3.1435,-3.123,-3.1006,-3.0889,-3.0889,-3.0889,-3.0889,-3.0889,-3.0889,-3.0889,-3.0889,-3.0889,-3.0771,-3.0537,-2.9873,-2.9453,-2.9219,-2.8574,0.0,-2.8281,-2.8076,-2.7861,-2.7679,-2.7187,-2.6758,-2.6357,-2.6133,-2.5869,-2.5693,0.0,0.0,0.0,0.0,0.0,0.0,0.0,-1.6036,-1.6408,-1.7298,-1.7305,-1.6982,-1.631,-1.5898,-1.5586,0.0,0.0,0.0,0.0,0.0,0.0,0.0,0.0,0.0,0.0,0.0,0.0,0.0,-1.6843,0.0,0.0,0.0,0.0,0.0,-1.7822,-1.8193,-1.849,-1.8965,-1.9394,0.0,0.0,-2.0517,0.0,0.0,0.0,0.0,0.0,-2.1221,-2.2256,-2.3301,-2.5619,-2.8929,-3.3868,-3.5673,-3.6545,-3.9488,-4.0999,-4.2078,-4.3519,-4.5184,-4.605,-4.4254,-4.0575,-3.6272,-3.1831,-2.7613,0.0,-2.1174,-2.0605,-2.0605,-2.0605,-2.1211,-2.2197,0.0,-2.4141,-2.5469,-2.8496,-2.9375,-3.0322,0.0,0.0,0.0,0.0,0.0,0.0,0.0,0.0,0.0,-3.1396,-3.1064,-3.0889,-3.0889,-3.0889,-3.0889,-3.0889,-3.0889,-3.0889,-3.0889,-3.0889,-3.0889,-3.0859,-3.0068,-2.9707,-2.9658,-2.8799,0.0,0.0,-2.833,-2.8096,-2.7754,-2.7324,-2.6894,-2.6475,-2.6035,-2.5771,-2.5693,0.0,0.0,0.0,0.0,0.0,0.0,0.0,-1.584,-1.6408,-1.7298,-1.7041,-1.6726,-1.6648,-1.6609,-1.6258,0.0,0.0,0.0,0.0,0.0,0.0,0.0,0.0,0.0,0.0,0.0,0.0,0.0,0.0,0.0,0.0,0.0,0.0,0.0,0.0,0.0,-1.8096,-1.8481,0.0,0.0,0.0,0.0,0.0,0.0,0.0,0.0,0.0,-2.0683,-2.1036,-2.2604,-2.3408,-2.4282,-2.7723,-3.1953,-3.5921,-3.7258,0.0,0.0,-4.4168,-4.5796,-4.6539,-4.4342,-3.9666,-3.4688,-3.1008,0.0,-2.2345,-2.0879,-2.0605,-2.0605,-2.0605,-2.0967,-2.1836,-2.3516,-2.4141,-2.5469,-2.8496,-2.9648,-3.0674,0.0,0.0,0.0,0.0,0.0,0.0,0.0,0.0,0.0,-3.0986,-3.0918,-3.0889,-3.0889,-3.0889,-3.0889,-3.0889,-3.0889,-3.0889,-3.0889,-3.0889,-3.0889,-3.0869,-3.0371,-3.0137,-3.0098,-2.9228,0.0,0.0,-2.8447,-2.8271,-2.8193,-2.7826,-2.7344,-2.6904,-2.6484,-2.6084,-2.5693,0.0,0.0,0.0,0.0,0.0,0.0,-1.5791,-1.5977,-1.6506,-1.7607,-1.7607,-1.7369,-1.7148,-1.7119,-1.666,-1.5508,0.0,0.0,0.0,0.0,0.0,0.0,0.0,0.0,0.0,0.0,0.0,-1.7383,0.0,0.0,0.0,0.0,0.0,0.0,0.0,0.0,0.0,0.0,0.0,0.0,0.0,0.0,0.0,0.0,0.0,0.0,0.0,0.0,-2.1074,-2.1717,-2.2292,-2.2918,-2.3941,-2.6393,-2.9516,-3.2998,-3.6331,-3.9395,-4.1291,-4.4181,-4.61,-4.3865,-3.9093,-3.4136,-3.087,0.0,-2.1836,-2.082,-2.0605,-2.0605,-2.0605,-2.0752,-2.123,-2.2441,-2.2568,-2.3467,-2.6211,-2.6904,-2.8193,0.0,0.0,0.0,0.0,0.0,0.0,0.0,0.0,0.0,-3.0937,-3.0889,-3.0889,-3.0889,-3.0889,-3.0889,-3.0889,-3.0889,-3.0889,-3.0889,-3.0889,-3.0889,-3.0869,-3.041,-3.0059,-2.9785,-2.918,0.0,0.0,-2.8359,-2.8291,-2.8252,-2.7885,-2.7402,-2.6963,-2.6543,-2.6113,-2.5693,0.0,0.0,0.0,0.0,0.0,-1.5518,-1.585,-1.6007,-1.6467,-1.749,-1.7637,-1.7519,-1.7227,-1.7103,-1.6548,-1.5347,-1.5332,0.0,0.0,0.0,0.0,0.0,0.0,0.0,0.0,0.0,-1.7676,-1.7383,-1.7803,0.0,0.0,0.0,0.0,0.0,0.0,0.0,0.0,0.0,0.0,0.0,0.0,0.0,0.0,0.0,0.0,0.0,0.0,0.0,0.0,0.0,0.0,-2.208,-2.1787,-2.251,-2.4274,-2.8584,-3.2437,-3.5793,-3.7703,-4.1075,-4.356,-4.1704,-3.7256,-3.2645,0.0,0.0,-2.1631,-2.0791,-2.0713,-2.0723,-2.0625,-2.0605,-2.085,-2.1572,-2.1543,-2.2236,-2.4551,-2.5215,0.0,0.0,0.0,0.0,0.0,0.0,0.0,0.0,0.0,0.0,0.0,-3.1025,-3.0889,-3.0889,-3.0889,-3.0889,-3.0889,-3.0889,-3.0889,-3.0889,-3.0889,-3.0889,-3.0869,-3.041,-3.0039,-2.9726,0.0,0.0,0.0,-2.834,-2.8291,-2.8262,-2.7969,-2.7588,-2.7168,-2.6875,-2.6484,-2.6044,0.0,0.0,0.0,0.0,0.0,0.0,-1.542,-1.5811,-1.6261,-1.6658,-1.6716,-1.6716,-1.6707,-1.6338,-1.579,-1.4994,-1.5199,0.0,0.0,0.0,0.0,0.0,0.0,0.0,0.0,0.0,-1.7393,-1.7383,-1.7803,-1.8008,-1.8008,-1.8008,0.0,0.0,0.0,0.0,0.0,0.0,0.0,0.0,0.0,0.0,0.0,0.0,0.0,0.0,0.0,0.0,0.0,0.0,0.0,0.0,0.0,-2.121,-2.1736,-2.4401,-2.8512,-3.2553,-3.3962,-3.6476,-3.8424,-3.7405,-3.3687,-2.9738,-2.7761,-2.4518,-2.1631,-2.0791,-2.0918,-2.1094,-2.0683,-2.0605,-2.0713,-2.1132,-2.1602,-2.2471,-2.418,-2.5547,0.0,0.0,0.0,0.0,0.0,0.0,0.0,0.0,0.0,0.0,0.0,-3.1348,-3.0889,-3.0889,-3.0889,-3.0889,-3.0889,-3.0889,-3.0889,-3.0889,-3.0889,-3.0889,-3.0869,-3.041,-3.0195,0.0,0.0,0.0,0.0,-2.8467,-2.8291,-2.8291,-2.8291,-2.8027,-2.7708,-2.7708,-2.7373,-2.6943,0.0,0.0,0.0,0.0,0.0,0.0,0.0,-1.5283,-1.5478,-1.6212,-1.6279,-1.6387,-1.6668,-1.5854,-1.5259,-1.5178,-1.4815,0.0,0.0,0.0,0.0,0.0,0.0,0.0,0.0,0.0,-1.7383,-1.7383,-1.8086,-1.8256,-1.7983,-1.7621,-1.7648,-1.7954,0.0,0.0,0.0,0.0,0.0,0.0,0.0,0.0,0.0,0.0,0.0,0.0,0.0,0.0,0.0,0.0,0.0,0.0,0.0,0.0,0.0,-2.2568,-2.5838,-2.9424,-3.0753,-3.3016,-3.4796,-3.3735,-3.0938,-2.8025,-2.6388,-2.3617,-2.1269,-2.0723,-2.0713,-2.0732,-2.0635,-2.0605,-2.085,-2.1562,-2.1797,-2.2373,0.0,0.0,0.0,0.0,0.0,0.0,0.0,0.0,0.0,0.0,0.0,0.0,0.0,-3.1191,-3.0889,-3.0889,-3.0889,-3.0889,-3.0889,-3.0889,-3.0889,-3.0889,-3.0889,-3.0889,-3.0869,-3.041,0.0,0.0,0.0,0.0,0.0,-2.835,-2.8291,-2.8291,-2.8291,-2.8037,-2.7718,-2.7718,-2.7393,-2.6953,0.0,0.0,0.0,0.0,0.0,0.0,0.0,-1.5186,-1.5215,-1.5772,-1.585,-1.5896,-1.6011,-1.5305,-1.471,-1.4409,-1.3924,0.0,0.0,0.0,0.0,0.0,0.0,0.0,-1.7119,-1.7139,-1.7373,-1.7852,-1.8344,-1.8461,-1.8217,-1.7509,-1.7316,-1.7485,-1.6441,-1.6396,0.0,0.0,0.0,0.0,0.0,0.0,-1.9121,0.0,0.0,0.0,0.0,0.0,0.0,0.0,0.0,0.0,0.0,0.0,0.0,0.0,-2.3132,-2.5382,-2.7155,-2.9052,-3.0302,-2.9467,-2.7604,0.0,-2.4553,-2.2684,-2.1103,-2.0693,-2.0742,-2.0762,-2.0635,-2.0605,-2.0781,-2.1339,-2.1711,-2.2275,0.0,0.0,0.0,0.0,0.0,0.0,0.0,0.0,0.0,0.0,0.0,0.0,0.0,-3.1211,-3.0889,-3.0889,-3.0889,-3.0889,-3.0889,-3.0889,-3.0889,-3.0889,-3.0889,-3.0801,-3.0615,-3.0166,0.0,0.0,0.0,0.0,0.0,-2.8291,-2.8291,-2.8291,-2.8291,-2.8135,-2.791,-2.791,-2.7725,-2.7412,0.0,0.0,0.0,0.0,0.0,0.0,0.0,-1.5323,-1.5284,-1.5323,-1.5323,-1.5173,-1.482,-1.4666,-1.4141,-1.2978,0.0,0.0,0.0,0.0,0.0,0.0,0.0,0.0,-1.6785,-1.6726,-1.7311,-1.8559,-1.8617,-1.8627,-1.8562,-1.7711,-1.7216,-1.7072,-1.6023,-1.6048,-1.683,0.0,0.0,0.0,0.0,0.0,0.0,0.0,0.0,0.0,0.0,0.0,0.0,0.0,0.0,0.0,0.0,0.0,0.0,0.0,0.0,0.0,0.0,-2.4719,-2.5273,-2.4853,-2.3848,-2.2808,-2.2461,-2.1758,0.0,-2.0693,-2.0898,-2.1064,-2.0723,-2.0625,-2.0635,-2.0732,-2.1387,-2.2246,0.0,0.0,0.0,0.0,0.0,0.0,0.0,0.0,0.0,0.0,0.0,0.0,0.0,-3.1338,-3.0889,-3.0889,-3.0889,-3.0889,-3.0889,-3.0889,-3.0889,-3.0889,-3.0859,-3.0615,-3.0185,-2.9726,0.0,0.0,0.0,0.0,0.0,-2.8291,-2.8291,-2.8291,-2.8291,-2.8271,-2.8252,-2.8281,-2.8271,-2.8135,0.0,0.0,0.0,0.0,0.0,0.0,0.0,0.0,0.0,0.0,-1.4481,-1.4219,-1.3522,-1.3599,-1.3437,0.0,0.0,0.0,0.0,0.0,0.0,0.0,0.0,0.0,-1.7652,-1.7038,-1.7165,-1.812,-1.8818,-1.8965,-1.8572,-1.8332,-1.7563,-1.6413,-1.5677,-1.5602,-1.5952,-1.515,0.0,0.0,0.0,0.0,0.0,0.0,0.0,0.0,-2.1987,-2.1777,0.0,0.0,0.0,0.0,0.0,0.0,0.0,0.0,-2.1318,-2.1641,-2.1914,0.0,-2.1799,-2.1691,-2.1437,-2.1143,0.0,-2.0909,-2.0693,-2.0625,-2.0693,-2.0791,-2.1035,-2.0791,-2.0928,-2.1894,-2.2236,-2.2891,0.0,0.0,0.0,0.0,0.0,0.0,0.0,0.0,0.0,0.0,0.0,0.0,0.0,-3.1172,-3.0889,-3.0889,-3.0889,-3.0889,-3.0889,-3.0889,-3.0889,-3.0889,-3.0537,-3.0303,-3.0176,-2.9414,0.0,0.0,0.0,0.0,-2.8291,-2.8291,-2.8291,-2.8291,-2.8291,-2.8096,-2.7851,-2.8174,-2.8086,-2.7783,0.0,0.0,0.0,0.0,0.0,0.0,0.0,0.0,0.0,0.0,0.0,-1.4025,-1.3606,-1.3447,0.0,0.0,0.0,0.0,0.0,0.0,0.0,0.0,0.0,-1.6499,-1.7705,-1.7266,-1.7549,-1.8594,-1.9062,-1.9268,-1.9202,-1.8741,-1.762,-1.5959,-1.4844,-1.4787,-1.5446,-1.4518,-1.5759,0.0,-1.6654,0.0,0.0,0.0,0.0,0.0,-2.1399,-2.1475,0.0,-2.1396,-2.124,-2.0918,0.0,0.0,0.0,0.0,-2.124,-2.1494,-2.1045,-2.0898,-2.0869,-2.0869,-2.0869,-2.0869,-2.0869,-2.0713,-2.0605,-2.0605,-2.0605,-2.0703,-2.1112,-2.1035,-2.123,-2.2334,-2.3338,0.0,0.0,0.0,0.0,0.0,0.0,0.0,0.0,0.0,0.0,0.0,0.0,0.0,0.0,-3.1123,-3.0889,-3.0889,-3.0684,-3.0576,-3.0576,-3.0576,-3.0478,-3.0283,-3.0029,-2.9805,-2.959,-2.9131,-2.8818,0.0,0.0,0.0,-2.8291,-2.8291,-2.8174,-2.8027,-2.8223,-2.791,-2.7412,-2.7851,-2.7914,-2.7689,0.0,0.0,0.0,0.0,0.0,0.0,0.0,0.0,0.0,0.0,0.0,0.0,0.0,0.0,0.0,0.0,0.0,0.0,0.0,0.0,0.0,0.0,-1.6337,-1.73,-1.7568,-1.751,-1.8076,-1.9287,-1.9424,-1.9668,-1.9972,-1.9257,-1.7881,-1.5902,-1.4023,-1.3964,-1.5165,-1.4379,-1.6001,-1.8961,-1.6448,0.0,0.0,0.0,0.0,0.0,0.0,0.0,0.0,-2.1435,-2.1435,-2.1093,-2.1093,0.0,0.0,0.0,0.0,0.0,-2.0791,-2.1084,-2.1465,-2.1341,-2.1372,-2.1401,-2.1332,-2.1066,-2.0789,-2.0644,-2.0664,-2.081,-2.121,-2.1498,0.0,0.0,0.0,0.0,0.0,0.0,0.0,0.0,0.0,0.0,0.0,0.0,0.0,0.0,0.0,0.0,0.0,-3.1084,-3.0859,-3.0791,-3.04,-3.0137,-3.0,-3.0068,-2.9922,-2.9626,-2.9502,-2.9277,-2.8916,-2.8848,-2.8633,0.0,0.0,0.0,-2.8193,-2.8193,-2.7949,-2.765,-2.7959,-2.7617,-2.6973,-2.7402,-2.7529,-2.7412,0.0,0.0,0.0,0.0,0.0,0.0,0.0,0.0,0.0,0.0,0.0,0.0,0.0,0.0,0.0,0.0,0.0,0.0,0.0,0.0,0.0,-1.6226,-1.6186,-1.685,-1.8393,-1.8096,-1.8369,-1.9287,-2.0048,-2.0439,-2.0517,-2.0692,-1.9344,-1.663,-1.4256,-1.3805,-1.4814,-1.402,-1.508,-1.7161,-1.5133,0.0,0.0,0.0,0.0,0.0,0.0,0.0,0.0,-2.0762,-2.0762,-2.0703,-2.0703,0.0,0.0,0.0,0.0,0.0,-2.121,-2.1931,-2.265,-2.2048,-2.2177,-2.2364,-2.197,-2.1825,-2.1555,-2.075,-2.0869,-2.1269,-2.1709,-2.2899,-2.3876,0.0,0.0,0.0,0.0,0.0,0.0,0.0,0.0,0.0,0.0,0.0,0.0,0.0,0.0,0.0,0.0,-3.0928,-3.0713,-3.0322,-3.0234,-2.9853,-2.9121,-2.9482,-2.9629,-2.9626,-2.9199,-2.8984,-2.8906,-2.8555,-2.8359,0.0,0.0,-2.8096,-2.7816,-2.7816,-2.75,-2.7119,-2.7187,-2.6914,-2.6533,-2.6963,-2.6885,-2.6572,0.0,0.0,0.0,0.0,0.0,0.0,0.0,0.0,0.0,0.0,0.0,0.0,0.0,0.0,0.0,0.0,0.0,0.0,0.0,0.0,-1.584,-1.6874,-1.7218,-1.7764,-1.8588,-1.8682,-1.9121,-2.0018,-2.0615,-2.0928,-2.0918,-1.9897,-1.8557,-1.6949,-1.4721,-1.4019,-1.4454,-1.3835,-1.4548,-1.5991,0.0,0.0,0.0,0.0,0.0,0.0,0.0,0.0,0.0,0.0,-2.0928,-2.0889,-2.0683,0.0,0.0,0.0,0.0,0.0,-2.1055,-2.1475,-2.217,-2.2615,-2.3426,-2.4124,-2.4061,-2.3897,-2.3596,-2.3182,-2.3246,-2.3578,0.0,0.0,-2.7042,-2.8882,0.0,0.0,0.0,0.0,0.0,0.0,0.0,0.0,0.0,0.0,0.0,0.0,0.0,0.0,0.0,0.0,-3.0312,-2.9873,-2.9629,-2.9316,-2.8926,-2.8896,-2.8877,-2.8877,-2.8682,-2.8584,-2.8574,-2.8379,-2.8291,-2.8291,0.0,-2.8057,-2.7718,-2.7718,-2.7275,-2.6699,-2.6924,-2.6621,-2.6084,-2.6514,-2.6553,-2.6387,0.0,0.0,0.0,0.0,0.0,0.0,0.0,0.0,0.0,0.0,0.0,0.0,0.0,0.0,0.0,0.0,0.0,0.0,0.0,-1.4913,-1.6102,-1.7191,-1.8139,-1.8695,-1.89,-1.9365,-1.9999,-2.0723,-2.1172,-2.1239,-2.1015,-1.9076,-1.7823,-1.7108,-1.5348,-1.438,-1.4059,-1.3901,-1.4207,-1.4823,0.0,0.0,0.0,0.0,0.0,0.0,0.0,0.0,0.0,0.0,0.0,0.0,0.0,0.0,0.0,-2.083,-2.1123,-2.1582,-2.0908,-2.1273,-2.209,-2.3119,-2.4127,-2.5062,-2.5697,-2.5514,-2.5318,-2.558,-2.548,-2.5554,0.0,-2.7194,0.0,-3.2174,0.0,0.0,0.0,0.0,0.0,0.0,0.0,0.0,0.0,0.0,0.0,0.0,0.0,0.0,0.0,0.0,-2.9853,-2.9434,-2.9092,-2.8867,-2.8769,-2.8447,-2.8242,-2.8144,-2.8242,-2.8242,-2.8144,-2.8252,-2.8291,-2.8281,-2.8193,-2.79,-2.751,-2.7412,-2.6924,-2.6269,-2.6592,-2.6318,-2.5732,-2.6113,-2.624,-2.624,0.0,0.0,0.0,0.0,0.0,0.0,0.0,0.0,0.0,0.0,0.0,0.0,0.0,0.0,0.0,0.0,0.0,0.0,0.0,-1.5605,-1.6315,-1.7329,-1.8188,-1.8968,-1.9805,-2.0282,-2.0703,-2.1142,-2.1621,-2.1416,-2.0605,-1.9474,-1.831,-1.7144,-1.5993,-1.4825,-1.3784,-1.4294,-1.408,-1.3406,-1.3979,0.0,0.0,0.0,0.0,0.0,0.0,0.0,0.0,0.0,0.0,0.0,0.0,0.0,-2.1142,-2.0742,-2.0908,-2.1229,-2.1161,-2.2463,-2.3742,-2.3517,-2.3486,-2.3866,-2.5526,-2.5557,-2.5606,-2.6706,-2.6258,-2.5691,0.0,-2.6243,-2.7579,0.0,0.0,0.0,0.0,0.0,0.0,0.0,0.0,0.0,0.0,0.0,0.0,0.0,0.0,0.0,0.0,0.0,0.0,-2.8984,-2.8935,-2.873,-2.834,-2.831,-2.8096,-2.7767,-2.8105,-2.8086,-2.7777,-2.8115,-2.8291,-2.8271,-2.7933,-2.7461,-2.7031,-2.6641,-2.6201,-2.5732,-2.5771,-2.5742,-2.5693,-2.5723,-2.5732,-2.5732,0.0,0.0,0.0,0.0,0.0,0.0,0.0,0.0,0.0,0.0,0.0,0.0,0.0,0.0,0.0,0.0,0.0,0.0,0.0,-1.6449,-1.7221,-1.81,-1.8432,-1.888,-1.9512,-2.0478,-2.1201,-2.1641,-2.1533,-2.1162,-2.0595,-1.9889,-1.9042,-1.8022,-1.7027,-1.6325,-1.5861,-1.5691,-1.518,-1.4532,-1.4923,-1.5095,0.0,0.0,0.0,0.0,0.0,0.0,0.0,0.0,-2.0986,-2.0937,-2.0693,-2.0869,-2.1103,-2.0742,-2.0879,-2.1132,-2.0889,-2.1728,-2.2712,-2.2843,-2.3535,-2.4714,-2.6573,-2.7854,-2.8748,-2.9353,-2.9708,-2.9947,0.0,0.0,-3.0142,0.0,0.0,0.0,0.0,0.0,0.0,0.0,0.0,0.0,0.0,0.0,0.0,0.0,0.0,0.0,0.0,0.0,0.0,-2.8164,-2.8135,-2.8066,-2.791,-2.7637,-2.7285,-2.6885,-2.762,-2.7676,-2.7266,-2.7422,-2.75,-2.749,-2.7334,-2.7021,-2.6611,-2.6455,-2.6133,-2.5693,-2.5693,-2.5693,-2.5693,-2.5693,-2.5693,-2.5693,0.0,0.0,0.0,0.0,0.0,0.0,0.0,0.0,0.0,0.0,0.0,0.0,0.0,0.0,0.0,0.0,0.0,0.0,-1.6123,-1.6914,-1.7637,-1.8213,-1.8461,-1.8812,-1.9277,-2.043,-2.1172,-2.1505,-2.1309,-2.0937,-2.0352,-2.0059,-1.9563,-1.8961,-1.8205,-1.777,-1.7559,-1.694,-1.6335,-1.5824,-1.5969,-1.609,0.0,0.0,0.0,0.0,0.0,0.0,0.0,0.0,-2.1025,-2.0967,-2.0703,-2.0781,-2.0967,-2.0693,-2.0781,-2.0957,-2.0683,-2.1234,-2.1988,-2.2252,-2.3547,-2.5229,-2.7051,-2.8797,-3.0377,-3.1724,-3.1672,-3.1579,-3.2073,0.0,0.0,0.0,0.0,0.0,0.0,0.0,0.0,0.0,0.0,0.0,0.0,0.0,0.0,0.0,0.0,0.0,0.0,0.0,0.0,0.0,-2.7461,-2.7461,-2.7461,-2.7168,-2.6807,-2.6396,-2.6982,-2.7109,-2.6816,-2.6953,-2.7012,-2.7012,-2.6875,-2.665,-2.6377,-2.624,-2.6006,-2.5693,-2.5693,-2.5693,-2.5693,-2.5693,-2.5693,-2.5693,0.0,0.0,0.0,0.0,0.0,0.0,0.0,0.0,0.0,0.0,0.0,0.0,0.0,0.0,0.0,0.0,0.0,0.0,-1.6134,-1.6936,-1.7425,-1.7425,-1.8184,-1.8792,-1.9268,-2.0155,-2.0595,-2.0605,-2.1006,-2.0732,-1.9912,-1.9912,-1.9912,-1.9893,-1.9482,-1.903,-1.8488,-1.7947,-1.7415,-1.689,-1.6773,-1.6964,-1.7415,0.0,0.0,0.0,0.0,0.0,0.0,0.0,-2.0605,-2.0605,-2.0605,-2.0605,-2.0605,-2.0605,-2.0605,-2.0605,-2.0605,-2.127,-2.1983,-2.1905,-2.3271,-2.5057,-2.6675,-2.7885,-2.9745,-3.3501,-3.1473,-2.9537,-3.118,-2.8713,0.0,0.0,0.0,0.0,0.0,0.0,0.0,0.0,0.0,0.0,0.0,0.0,0.0,0.0,0.0,0.0,0.0,0.0,0.0,0.0,-2.7012,-2.7012,-2.7012,-2.7002,-2.6797,-2.6387,-2.6377,-2.6377,-2.6396,-2.6816,-2.7002,-2.6982,-2.6562,-2.6387,-2.6348,-2.5908,-2.5684,-2.5693,-2.5684,-2.5684,-2.5693,-2.5693,-2.5693,-2.5693,0.0,0.0,0.0,0.0,0.0,0.0,0.0,0.0,0.0,0.0,0.0,0.0,0.0,0.0,0.0,0.0,0.0,0.0,-1.7441,-1.7676,-1.7822,-1.7822,-1.8057,-1.8252,-1.8389,-1.8926,-1.9658,-2.0605,-2.0391,-2.0138,-1.9912,-1.9912,-1.9912,-1.9902,-1.9785,-1.948,-1.9047,-1.8886,-1.8461,-1.7881,-1.7842,-1.7607,-1.7415,0.0,0.0,0.0,0.0,0.0,0.0,0.0,0.0,0.0,-2.0605,-2.0605,-2.0605,-2.0605,-2.0605,-2.0605,-2.0605,-2.1471,-2.2425,-2.2722,-2.4699,-2.6999,-2.8549,-2.8984,-2.974,-3.2073,-3.1765,-3.0947,-3.0446,0.0,0.0,0.0,0.0,0.0,0.0,0.0,0.0,0.0,0.0,0.0,0.0,0.0,0.0,0.0,0.0,0.0,0.0,0.0,0.0,0.0,-2.6572,-2.6572,-2.6572,-2.6269,-2.6055,-2.5879,-2.5605,-2.5625,-2.5937,-2.6005,-2.6064,-2.6064,-2.5986,-2.5937,-2.5849,-2.5449,-2.5449,-2.5654,-2.5391,-2.5459,-2.5693,-2.5693,-2.5693,-2.5693,0.0,0.0,0.0,0.0,0.0,0.0,0.0,0.0,0.0,0.0,-1.7139,-1.7204,0.0,0.0,0.0,0.0,0.0,0.0,0.0,-1.792,-1.8008,-1.8008,-1.8008,-1.8052,-1.8217,-1.8682,-1.9189,-1.9805,-1.9707,-1.9746,-1.9912,-1.9912,-2.006,-2.0391,-2.0254,-2.0029,-1.9822,-1.9609,-1.9295,-1.8946,-1.8946,-1.8791,-1.8709,0.0,0.0,0.0,0.0,0.0,0.0,0.0,0.0,0.0,-2.0254,-2.0303,-2.038,-2.0556,-2.0478,-2.0381,-2.0732,-2.1406,-2.2275,-2.3389,-2.5375,-2.7415,-2.9033,-3.0026,-3.099,0.0,-3.1517,-3.0748,-3.0684,-2.9661,0.0,0.0,0.0,0.0,0.0,0.0,0.0,0.0,0.0,0.0,0.0,0.0,0.0,0.0,0.0,0.0,0.0,0.0,0.0,0.0,-2.6133,-2.6045,-2.5869,-2.5605,-2.5391,-2.5157,-2.4941,-2.4951,-2.5167,-2.5167,-2.5167,-2.5167,-2.5167,-2.5312,-2.5439,-2.499,-2.5068,-2.5449,-2.5176,-2.5342,-2.5693,-2.5693,-2.5693,-2.5693,0.0,0.0,0.0,0.0,0.0,0.0,0.0,0.0,0.0,0.0,-1.7773,-1.8008,0.0,0.0,0.0,0.0,0.0,0.0,0.0,-1.7803,-1.8008,-1.8008,-1.8008,-1.8184,-1.8539,-1.9004,-1.9033,-1.8598,-1.9111,-1.9521,-1.9853,-1.9893,-2.0361,-2.1112,-2.0703,-2.0546,-2.0517,-2.0039,-1.9883,-1.9912,-1.9912,-2.0176,-2.0595,-2.0556,0.0,0.0,0.0,0.0,0.0,0.0,0.0,0.0,-1.9853,-1.9971,-2.0049,-2.0488,-2.0254,-2.0107,-2.0956,-2.1249,-2.1814,-2.3955,-2.5586,-2.709,-2.8672,-3.0913,-3.2643,-3.2684,0.0,-2.9511,-3.1197,0.0,0.0,0.0,0.0,0.0,0.0,0.0,0.0,0.0,0.0,0.0,0.0,0.0,0.0,0.0,0.0,0.0,0.0,0.0,0.0,-2.5567,-2.5567,-2.542,-2.5057,-2.5057,-2.4805,0.0,-2.4375,-2.4365,-2.4365,-2.4394,-2.4414,-2.4414,-2.4414,-2.4639,-2.5018,-2.4541,-2.4619,-2.5057,-2.5057,-2.5283,-2.5635,-2.5674,-2.5693,-2.5693,0.0,0.0,0.0,0.0,0.0,0.0,0.0,0.0,0.0,0.0,0.0,0.0,0.0,0.0,0.0,0.0,0.0,0.0,0.0,-1.7959,-1.8008,-1.8008,-1.8008,-1.8047,-1.8144,-1.8529,-1.8695,-1.8598,-1.9404,-1.9658,-1.9434,-1.9756,-2.0205,-2.0693,-2.0244,-2.0059,-2.0029,-1.96,-1.9609,-1.9912,-1.9912,-2.0176,-2.0566,-2.0185,-2.0273,0.0,0.0,0.0,0.0,0.0,0.0,0.0,-2.0429,-2.0458,-2.0478,-2.0576,-2.0254,-2.0107,-2.0956,-2.1687,-2.2666,-2.4482,-2.6975,-2.9062,-2.9766,-3.0354,-3.0581,-2.9952,-2.9597,-2.9456,0.0,0.0,0.0,0.0,0.0,0.0,0.0,0.0,0.0,0.0,0.0,0.0,0.0,0.0,0.0,0.0,0.0,0.0,0.0,0.0,0.0,-2.4697,-2.4697,-2.4658,-2.456,-2.456,-2.4512,0.0,-2.4082,-2.3926,-2.3935,-2.4268,-2.4414,-2.4414,-2.4414,-2.4473,-2.4521,-2.4102,-2.417,-2.456,-2.456,-2.4824,-2.5254,-2.5557,-2.5693,-2.5693,0.0,0.0,0.0,0.0,0.0,0.0,0.0,0.0,0.0,0.0,0.0,0.0,0.0,0.0,0.0,0.0,0.0,0.0,0.0,0.0,-1.8008,-1.8008,-1.8169,-1.8276,-1.8276,-1.8695,-1.8955,-1.8955,-1.9805,-2.0264,-2.0305,-2.0528,-2.0835,-2.125,-2.1017,-2.0542,-1.9912,-1.9902,-1.9902,-1.9932,-2.0137,-2.0361,-2.0576,-2.0312,-2.041,-2.0576,-2.0303,0.0,0.0,0.0,0.0,0.0,0.0,0.0,-2.0293,-2.0546,-2.0254,-2.0107,-2.0956,-2.1824,-2.3125,-2.5674,-2.7793,-2.9375,-2.9805,-2.9736,-2.9404,-2.875,-2.8955,0.0,0.0,0.0,0.0,0.0,0.0,0.0,0.0,0.0,0.0,0.0,0.0,0.0,0.0,0.0,0.0,0.0,0.0,0.0,0.0,-2.4414,-2.4414,-2.4414,-2.4414,-2.4316,-2.4121,-2.4111,-2.4014,-2.3799,-2.3584,-2.3477,-2.3486,-2.3656,-2.3916,-2.4102,-2.3896,-2.3926,-2.4082,-2.3652,-2.373,-2.4111,-2.4111,-2.4375,-2.4814,-2.5254,-2.542,-2.5449,0.0,0.0,0.0,0.0,0.0,0.0,0.0,0.0,0.0,0.0,0.0,0.0,0.0,0.0,0.0,0.0,0.0,0.0,0.0,0.0,0.0,-1.8081,-1.8412,-1.8598,-1.8598,-1.9062,-1.9316,-1.9394,-2.0224,-2.1042,-2.1881,-2.1623,-2.167,-2.1989,-2.1916,-2.1203,-2.0049,-2.0332,-2.0283,-2.0059,-2.0458,-2.0605,-2.0595,-2.0517,-2.0537,-2.0595,-2.0517,-2.0273,-2.0029,-2.0029,0.0,0.0,0.0,0.0,-2.0098,-2.0498,-2.0254,-2.0107,-2.0956,-2.1973,-2.3496,-2.666,-2.8018,-2.8701,-2.9196,-2.8965,-2.8584,-2.8154,-2.8408,0.0,0.0,0.0,0.0,0.0,0.0,0.0,0.0,0.0,0.0,0.0,0.0,0.0,0.0,0.0,0.0,0.0,0.0,0.0,-2.4199,-2.4199,-2.4199,-2.4199,-2.4199,-2.4033,-2.3682,-2.3682,-2.3496,-2.3091,-2.3091,-2.3091,-2.3091,-2.3091,-2.3286,-2.3662,-2.3247,-2.3305,-2.3652,-2.3247,-2.3305,-2.3682,-2.376,-2.4043,-2.4473,-2.4912,-2.5117,-2.5234,0.0,0.0,0.0,0.0,0.0,0.0,0.0,0.0,0.0,0.0,-1.8008,0.0,0.0,0.0,0.0,0.0,0.0,0.0,0.0,0.0,0.0,-1.852,-1.8568,-1.8598,-1.8598,-1.9062,-1.9463,-1.9824,-2.0322,-2.174,-2.3891,-2.2537,-2.1937,-2.1968,-2.1618,-2.1128,-2.0498,-2.0137,-2.0185,-2.0517,-2.0576,-2.0605,-2.0566,-2.0146,-2.0234,-2.0556,-2.0137,-2.0205,-2.0517,-2.0517,-2.0478,0.0,0.0,0.0,-2.0527,-2.0586,-2.0254,-2.0107,-2.0956,-2.2402,-2.4092,-2.6064,-2.6914,-2.7383,0.0,0.0,-2.7705,0.0,0.0,0.0,0.0,0.0,0.0,0.0,0.0,0.0,0.0,0.0,0.0,0.0,0.0,0.0,0.0,0.0,0.0,0.0,0.0,0.0,-2.3286,-2.3266,-2.3266,-2.3266,-2.3266,-2.3237,-2.3179,-2.3179,-2.3149,-2.3091,-2.3091,-2.3091,-2.3091,-2.3091,-2.312,-2.3179,-2.312,-2.313,-2.3179,-2.312,-2.313,-2.3218,-2.3643,-2.4043,-2.4473,-2.4912,-2.5312,-2.5615,0.0,0.0,0.0,0.0,0.0,0.0,0.0,0.0,0.0,0.0,0.0,-1.8105,0.0,0.0,0.0,0.0,0.0,0.0,0.0,0.0,0.0,-1.9014,-1.9228,-1.9319,-1.9319,-1.9541,-1.9853,-2.0283,-2.0723,-2.1784,-2.3416,-2.3585,-2.3846,-2.4081,-2.2735,-2.1835,-2.1326,-2.061,-2.0429,-2.0605,-2.0605,-2.0458,-2.0205,-2.0254,-2.0244,-2.0215,-2.0254,-2.0439,-2.0605,-2.0605,-2.0605,-2.0605,-2.0605,0.0,0.0,0.0,-2.0468,-2.0469,-2.1357,-2.2324,-2.3428,-2.4912,-2.5605,-2.6103,-2.6797,-2.6758,-2.6533,0.0,0.0,0.0,0.0,0.0,0.0,0.0,0.0,0.0,0.0,0.0,0.0,0.0,0.0,0.0,0.0,0.0,0.0,0.0,0.0,-2.334,-2.311,-2.3091,-2.3091,-2.3091,-2.3091,-2.3091,-2.3091,-2.3091,-2.3091,-2.3091,-2.3091,-2.3091,-2.3091,-2.3091,-2.3091,-2.3091,-2.3091,-2.3091,-2.3091,-2.3091,-2.3091,-2.311,-2.3305,-2.3682,-2.4121,-2.4541,-2.498,-2.54,0.0,0.0,0.0,0.0,0.0,0.0,0.0,0.0,0.0,0.0,0.0,0.0,0.0,0.0,0.0,0.0,0.0,0.0,0.0,0.0,0.0,-1.9463,-1.9746,-1.9912,-1.9912,-1.9912,-2.0127,-2.0605,-2.1016,-2.178,-2.2909,-2.3899,-2.501,-2.6097,-2.444,-2.3202,-2.2346,-2.1643,-2.1095,-2.0762,-2.0877,-2.0523,-1.9979,-2.0667,-2.0434,-1.9879,-2.0795,0.0,0.0,0.0,0.0,-2.0605,-2.0605,-2.0605,0.0,0.0,0.0,-2.0752,-2.1407,-2.1865,-2.2441,-2.3506,-2.418,-2.4775,0.0,0.0,-2.5352,0.0,0.0,0.0,0.0,0.0,0.0,0.0,0.0,0.0,0.0,0.0,0.0,0.0,0.0,0.0,0.0,0.0,0.0,0.0,0.0,-2.3091,-2.3091,-2.3091,-2.3091,-2.3091,-2.3091,-2.3091,-2.3091,-2.3091,-2.3091,-2.3091,-2.3091,-2.3091,-2.3091,-2.3091,-2.3091,-2.3091,-2.3091,-2.3091,-2.3091,-2.3091,-2.3091,-2.3091,-2.3091,-2.3408,-2.3838,-2.4258,-2.4697,-2.5184,0.0,0.0,0.0,0.0,0.0,0.0,0.0,0.0,0.0,0.0,0.0,0.0,-1.8598,-1.8984,-1.9228,-1.9248,0.0,0.0,0.0,0.0,0.0,-1.9883,-1.9902,0.0,-1.9912,-1.9912,-2.0127,-2.0605,-2.1016,-2.197,-2.3431,-2.2905,-2.4269,-2.7204,-2.6629,-2.5301,-2.3419,-2.3389,-2.2522,-2.1202,-2.1663,-2.1072,-2.0051,-2.1357,-2.0797,-1.9621,0.0,0.0,0.0,0.0,0.0,0.0,0.0,0.0,-2.0605,0.0,0.0,0.0,-2.0664,-2.0957,-2.1375,-2.1894,-2.2637,-2.3315,0.0,0.0,0.0,0.0,0.0,0.0,0.0,0.0,0.0,0.0,0.0,0.0,0.0,0.0,0.0,0.0,0.0,0.0,0.0,0.0,0.0,0.0,0.0,-2.3091,-2.3091,-2.3091,-2.3091,-2.3091,-2.3091,-2.3091,-2.3091,-2.3091,-2.3091,-2.3091,-2.3091,-2.3091,-2.3091,-2.3091,-2.3091,-2.3091,-2.3091,-2.3091,-2.3091,-2.3091,-2.3091,-2.3091,-2.3091,-2.3408,-2.3838,-2.4258,-2.4697,-2.5184,0.0,0.0,0.0,0.0,0.0,0.0,0.0,0.0,0.0,0.0,0.0,0.0,0.0,-1.9189,-1.9394,-1.9668,-1.9697,0.0,0.0,0.0,0.0,-2.0332,-2.0332,-2.0332,-2.0332,-2.0332,-2.0547,-2.0996,-2.1435,-2.2062,-2.2884,-2.3358,-2.4356,-2.5667,-2.5264,-2.5234,-2.5435,-2.4837,-2.3845,-2.2692,-2.2875,-2.2062,-2.0753,-2.0984,0.0,0.0,0.0,0.0,0.0,0.0,0.0,0.0,0.0,0.0,0.0,0.0,-2.0605,-2.0605,-2.0605,-2.0723,-2.0918,-2.1357,-2.1658,-2.2058,-2.2812,-2.3086,0.0,0.0,0.0,0.0,0.0,0.0,0.0,0.0,0.0,0.0,0.0,0.0,0.0,0.0,0.0,0.0,0.0,0.0,0.0,0.0,0.0,0.0,-2.3091,-2.3091,-2.3091,-2.3091,-2.3091,-2.3091,-2.3091,-2.3091,-2.3091,-2.3091,-2.3091,-2.3091,-2.3091,-2.3091,-2.3091,-2.3091,-2.3091,-2.3091,-2.3091,-2.3091,-2.3091,-2.3091,-2.3091,-2.3408,-2.3809,-2.3965,-2.4287,-2.4707,0.0,0.0,0.0,0.0,0.0,0.0,0.0,0.0,0.0,-1.8188,0.0,0.0,0.0,0.0,-1.9834,-2.0107,-2.0127,-2.0254,-2.0586,-2.0605,-2.0605,-2.0605,-2.0605,-2.0605,-2.0605,-2.0605,-2.0752,-2.1016,-2.1602,-2.2031,-2.2305,-2.3353,-2.4388,-2.5326,-2.4681,-2.5009,-2.5977,-2.5735,-2.469,-2.3175,-2.352,-2.2905,-2.1818,0.0,0.0,0.0,0.0,0.0,0.0,0.0,0.0,0.0,0.0,0.0,0.0,0.0,0.0,0.0,-2.0752,-2.0684,-2.0742,0.0,-2.1307,-2.1385,-2.2139,0.0,0.0,0.0,0.0,0.0,0.0,0.0,0.0,0.0,0.0,0.0,0.0,0.0,0.0,0.0,0.0,0.0,0.0,0.0,0.0,0.0,0.0,0.0,-2.3091,-2.3091,-2.3033,-2.2886,-2.3023,-2.3033,-2.2886,-2.3023,-2.3091,-2.3091,-2.3091,-2.3091,-2.3091,-2.3091,-2.3091,-2.3091,-2.3091,-2.3091,-2.3091,-2.3091,-2.3091,-2.3091,-2.3091,-2.3276,-2.3584,-2.374,-2.3965,-2.4268,0.0,0.0,0.0,0.0,0.0,0.0,0.0,0.0,-1.8617,-1.8617,0.0,0.0,0.0,0.0,0.0,-2.0605,-2.0605,-2.0605,-2.0605,-2.0605,-2.0605,-2.0605,0.0,0.0,-2.0605,-2.0605,-2.0615,-2.0625,-2.1445,-2.1875,-2.1924,-2.2682,-2.4243,-2.6348,-2.5284,-2.4777,-2.483,-2.6005,-2.5017,-2.2695,0.0,-2.3618,-2.3176,0.0,0.0,0.0,-2.5802,-2.524,0.0,-2.4695,0.0,0.0,0.0,0.0,0.0,0.0,0.0,0.0,0.0,0.0,0.0,0.0,0.0,0.0,-2.1748,0.0,0.0,0.0,0.0,0.0,0.0,0.0,0.0,0.0,0.0,0.0,0.0,0.0,0.0,0.0,0.0,0.0,0.0,0.0,0.0,0.0,0.0,-2.3091,-2.3081,-2.3081,-2.2886,-2.2519,-2.2877,-2.2896,-2.2539,-2.2886,-2.3091,-2.3091,-2.3091,-2.3091,-2.3091,-2.3091,-2.3091,-2.3091,-2.3091,-2.3091,-2.3091,-2.3091,-2.3091,-2.3091,-2.3091,-2.3091,-2.3149,-2.3613,-2.3769,-2.3828,0.0,0.0,0.0,0.0,0.0,0.0,-1.8936,-1.9033,-1.9111,0.0,0.0,0.0,-1.9912,-2.0303,-2.0605,-2.0605,-2.0605,-2.0605,-2.0605,-2.0605,-2.0605,-2.0605,-2.0605,-2.0605,-2.0605,-2.0605,-2.0723,-2.1045,-2.1299,-2.1728,-2.2334,-2.2266,-2.2879,-2.4039,-2.4294,-2.4072,-2.3714,-2.5683,-2.6063,-2.5411,-2.5714,-2.5425,0.0,0.0,0.0,0.0,0.0,-2.4272,-2.4754,0.0,-2.5255,-2.5943,0.0,0.0,0.0,0.0,0.0,0.0,-2.168,0.0,0.0,0.0,0.0,0.0,0.0,0.0,0.0,0.0,0.0,0.0,0.0,0.0,0.0,0.0,0.0,0.0,0.0,0.0,0.0,0.0,0.0,0.0,0.0,0.0,0.0,0.0,-2.3091,-2.2964,-2.2705,-2.2685,-2.2627,-2.2519,-2.2877,-2.3042,-2.2925,-2.3033,-2.3091,-2.3091,-2.3091,-2.3091,-2.3091,-2.3091,-2.3091,-2.3091,-2.3091,-2.3091,-2.3091,-2.3091,-2.3091,-2.3091,-2.3091,-2.3091,-2.311,-2.3227,-2.3276,-2.3379,0.0,0.0,0.0,0.0,0.0,-1.9287,-1.9287,-1.9434,-1.9551,0.0,0.0,0.0,-2.0185,-2.0449,-2.0683,-2.083,-2.0713,-2.0683,-2.083,-2.0713,-2.0605,-2.0605,-2.0605,-2.0605,-2.0605,-2.0605,-2.0693,-2.0957,-2.1318,-2.1994,-2.2916,-2.2554,-2.3158,-2.451,-2.3987,-2.3772,-2.3887,-2.4723,-2.5347,0.0,-2.5791,0.0,0.0,-2.6093,-2.6003,0.0,0.0,0.0,-2.6627,-2.5776,-2.6304,0.0,0.0,0.0,0.0,0.0,0.0,0.0,0.0,0.0,0.0,0.0,0.0,0.0,-2.1133,-2.1035,0.0,0.0,0.0,0.0,0.0,0.0,0.0,0.0,0.0,0.0,0.0,0.0,0.0,0.0,0.0,0.0,0.0,0.0,0.0,-2.2617,-2.2617,-2.251,-2.2266,-2.2412,-2.2432,-2.2256,-2.2779,-2.3013,-2.2838,-2.3013,-2.3091,-2.3091,-2.3091,-2.3091,-2.3091,-2.3091,-2.3091,-2.3091,-2.3091,-2.3091,-2.3091,-2.3091,-2.3091,-2.3091,-2.3091,-2.3091,-2.3091,-2.3091,-2.3091,-2.313,0.0,0.0,-1.8939,-1.9365,-1.9424,-1.9424,-1.9424,-1.9746,-1.999,0.0,-2.0371,-2.0693,-2.0752,-2.0752,-2.0869,-2.1229,-2.0947,-2.0859,-2.1171,-2.0859,-2.0654,-2.0605,-2.0605,-2.0625,-2.0674,-2.0635,-2.0654,-2.0752,-2.1607,-2.2483,-2.3396,-2.3283,-2.4255,-2.6016,-2.4016,-2.3714,-2.4745,-2.3594,0.0,-2.4893,-2.489,-2.6142,0.0,0.0,-2.8725,-2.9478,-2.8461,-2.8423,-2.8662,-2.7649,-2.7286,0.0,0.0,0.0,0.0,0.0,-2.2021,0.0,0.0,0.0,0.0,0.0,0.0,0.0,-2.1738,-2.1212,-2.0488,0.0,0.0,0.0,0.0,0.0,0.0,0.0,0.0,0.0,0.0,0.0,0.0,0.0,0.0,0.0,0.0,-2.1885,-2.1885,-2.1885,-2.1836,-2.1816,-2.1816,-2.2168,-2.2197,-2.1826,-2.2627,-2.2847,-2.2519,-2.2886,-2.3091,-2.3091,-2.3091,-2.3091,-2.3091,-2.3091,-2.3091,-2.3091,-2.3091,-2.3091,-2.3091,-2.3091,-2.3091,-2.3091,-2.3091,-2.3091,-2.3091,-2.3091,-2.3091,-2.3091,0.0,-1.9951,-2.0253,-2.0341,-2.0351,-2.0351,-2.0351,-2.0419,-2.0478,-2.0478,-2.083,-2.124,-2.1592,-2.1672,-2.166,-2.1748,-2.168,-2.1514,-2.121,-2.1112,-2.0947,-2.0615,-2.0605,-2.0732,-2.1094,-2.0752,-2.0957,-2.1672,-2.2369,-2.2685,-2.271,-2.3564,-2.3915,-2.3724,-2.3309,-2.3714,-2.4745,0.0,0.0,-2.5613,-2.5494,0.0,-2.7511,-2.7928,-2.8247,-2.8411,-2.8185,-2.8172,-2.815,-2.7538,-2.7299,-2.7007,0.0,0.0,0.0,0.0,0.0,0.0,0.0,0.0,0.0,0.0,0.0,0.0,-2.1385,-2.0947,-2.0576,0.0,0.0,0.0,0.0,0.0,0.0,0.0,0.0,0.0,0.0,0.0,0.0,0.0,0.0,0.0,0.0,-2.1885,-2.1885,-2.1885,-2.1562,-2.1317,-2.1317,-2.1395,-2.1405,-2.1327,-2.2146,-2.2598,-2.251,-2.2886,-2.3091,-2.3091,-2.3091,-2.3091,-2.3091,-2.3091,-2.3091,-2.3091,-2.3091,-2.3091,-2.3091,-2.3091,-2.3091,-2.3091,-2.3091,-2.3091,-2.3091,-2.3091,-2.3091,-2.3091,0.0,-2.0088,-2.0312,-2.0566,-2.0752,-2.0898,-2.0898,-2.1084,-2.1271,-2.1271,-2.1416,-2.1641,-2.1865,-2.1885,-2.1973,-2.2178,-2.251,-2.2462,-2.1875,-2.217,-2.225,-2.2056,-2.2046,-2.2158,-2.2351,-2.271,-2.2824,-2.2696,-2.3283,-2.3745,-2.4126,-2.3822,-2.3639,-2.3606,-2.3244,-2.3637,-2.443,0.0,-2.4258,-2.608,-2.5185,0.0,-2.6651,-2.7432,-2.7885,-2.8119,-2.8413,-2.8511,-2.8487,-2.8554,-2.8159,0.0,0.0,-2.5252,-2.4585,0.0,-2.3091,-2.3091,0.0,0.0,0.0,-2.2838,0.0,0.0,0.0,-2.1211,-2.0771,-2.0332,0.0,0.0,0.0,0.0,0.0,0.0,0.0,0.0,0.0,0.0,0.0,0.0,0.0,0.0,0.0,-2.1271,-2.1271,-2.1271,-2.1025,-2.0898,-2.0898,-2.1318,-2.1455,-2.12,-2.2223,-2.2682,-2.251,-2.2886,-2.3091,-2.3091,-2.3091,-2.3091,-2.3091,-2.3091,-2.3091,-2.3091,-2.3091,-2.3091,-2.3091,-2.3091,-2.3091,-2.3091,-2.3091,-2.3091,-2.3091,-2.3091,-2.3091,-2.3091,-2.0039,-2.0039,-2.0146,-2.0546,-2.0937,-2.119,-2.119,-2.1611,-2.1914,-2.1992,-2.2012,-2.2114,-2.2433,-2.2373,-2.2615,-2.3368,-2.3637,-2.3613,-2.3331,-2.3412,-2.3488,-2.3506,-2.3517,-2.345,-2.3297,-2.4323,-2.4385,-2.3401,-2.3927,-2.457,-2.527,-2.4004,-2.3609,-2.3981,-2.3269,-2.3614,-2.4552,-2.344,0.0,-2.6549,0.0,-2.4984,-2.6337,-2.7281,-2.7957,-2.8497,-2.8934,-2.9051,-2.9151,-2.9754,0.0,-2.7947,-2.6955,-2.579,0.0,0.0,0.0,0.0,0.0,0.0,0.0,0.0,0.0,-2.2422,0.0,0.0,0.0,-2.0312,0.0,0.0,0.0,0.0,0.0,0.0,0.0,0.0,0.0,0.0,0.0,0.0,0.0,0.0,0.0,-2.0605,-2.0605,-2.0605,-2.0605,-2.0605,-2.0605,-2.128,-2.1514,-2.12,-2.2272,-2.273,-2.251,-2.2886,-2.3091,-2.3091,-2.3091,-2.3091,-2.3091,-2.3091,-2.3091,-2.3091,-2.3091,-2.3091,-2.3091,-2.3091,-2.3091,-2.3091,-2.3091,-2.3091,-2.3091,-2.3091,-2.3091,-2.3091,-2.0537,-2.0537,-2.0546,-2.0595,-2.0937,-2.119,-2.119,-2.1611,-2.2021,-2.2393,-2.2441,-2.2941,-2.4303,-2.4054,0.0,0.0,0.0,0.0,-2.6068,0.0,-2.3388,-2.3505,-2.3481,-2.3234,-2.261,-2.3332,-2.3505,-2.3152,-2.3845,-2.3918,-2.3438,-2.4233,-2.4104,-2.3221,-2.2767,-2.3916,-2.6083,0.0,-2.4437,0.0,-2.5433,-2.5948,0.0,-2.8505,-2.9086,-2.9611,-2.9678,-2.9691,-2.9779,0.0,-2.942,-2.8007,0.0,-2.6093,-2.4585,0.0,0.0,0.0,0.0,0.0,0.0,0.0,-2.2779,0.0,0.0,0.0,-2.1161,-2.1064,0.0,0.0,0.0,0.0,0.0,0.0,0.0,0.0,0.0,0.0,0.0,0.0,0.0,0.0,0.0,0.0,-2.0605,-2.0605,-2.0605,-2.0605,-2.0605,-2.0703,-2.0879,-2.1181,-2.1748,-2.2187,-2.251,-2.2886,-2.3091,-2.3091,-2.3091,-2.3091,-2.3091,-2.3091,-2.3091,-2.3091,-2.3091,-2.3091,-2.3091,-2.3091,-2.3091,-2.3091,-2.3091,-2.3091,-2.3091,-2.3091,-2.3091,-2.3091,-2.0654,-2.0781,-2.0957,-2.0957,-2.1523,-2.1931,-2.1931,-2.2334,-2.2676,-2.2808,-2.2838,-2.3451,0.0,0.0,0.0,0.0,0.0,-2.6058,0.0,0.0,-2.5103,-2.6124,-2.5581,-2.5109,-2.4843,-2.5692,-2.5791,-2.5062,-2.4735,-2.4735,-2.5062,-2.4221,-2.3421,-2.2721,-2.2598,0.0,-2.5994,0.0,-2.5577,0.0,0.0,0.0,0.0,-2.859,-2.8987,-2.9792,-2.9792,-2.9792,-2.9829,0.0,-2.942,0.0,0.0,0.0,0.0,0.0,0.0,0.0,0.0,0.0,0.0,0.0,0.0,0.0,0.0,0.0,-2.1795,0.0,0.0,0.0,0.0,0.0,0.0,0.0,0.0,0.0,0.0,0.0,0.0,0.0,0.0,0.0,0.0,0.0,0.0,0.0,-2.0605,-2.0605,-2.0605,-2.1094,-2.1299,-2.119,-2.2087,-2.2578,-2.251,-2.2886,-2.3091,-2.3091,-2.3091,-2.3091,-2.3091,-2.3091,-2.3091,-2.3091,-2.3091,-2.3091,-2.3091,-2.3091,-2.3091,-2.3091,-2.3091,-2.3091,-2.3091,-2.3091,-2.3091,-2.3091,-2.0996,0.0,-2.1375,-2.1375,-2.2021,-2.2549,-2.2666,-2.2896,-2.3261,-2.371,0.0,0.0,-2.6737,-2.6506,0.0,0.0,-2.7842,-2.7612,0.0,0.0,-2.6274,0.0,0.0,0.0,0.0,-2.7192,-2.729,-2.6524,-2.5052,-2.4925,-2.5975,-2.4016,-2.2925,-2.2676,-2.2568,-2.3794,-2.5923,0.0,-2.6387,-2.9702,-2.8557,-2.8767,-2.9702,-2.8897,-2.9067,-2.9792,-2.9792,-2.9792,-2.9817,-2.9967,-2.9408,0.0,-2.8381,0.0,0.0,0.0,0.0,0.0,-2.6524,0.0,0.0,0.0,0.0,0.0,0.0,0.0,0.0,0.0,0.0,0.0,0.0,0.0,0.0,0.0,0.0,0.0,0.0,0.0,0.0,0.0,0.0,0.0,0.0,0.0,0.0,-2.0263,-2.0361,-2.0429,-2.0429,-2.1221,-2.1621,-2.1416,-2.2389,-2.2838,-2.2685,-2.2945,-2.3091,-2.3091,-2.3091,-2.3091,-2.3091,-2.3091,-2.3091,-2.3091,-2.3091,-2.3091,-2.3091,-2.3091,-2.3091,-2.3091,-2.3091,-2.3091,-2.3091,-2.3091,-2.3091,-2.3091,-2.1846,-2.1855,0.0,0.0,-2.2217,-2.2646,-2.3013,0.0,0.0,0.0,0.0,0.0,0.0,0.0,0.0,0.0,0.0,-3.0127,-3.1138,0.0,-2.6128,0.0,0.0,-2.624,0.0,0.0,-2.6513,-2.6524,-2.4264,-2.3757,-2.483,-2.3627,-2.3091,-2.3052,-2.2652,-2.3969,-2.6386,-2.4843,-2.6387,-2.9702,-2.8557,-2.8767,-2.9792,0.0,-2.9753,-2.9792,-2.9792,0.0,0.0,-3.0407,-2.9469,0.0,0.0,0.0,0.0,0.0,0.0,0.0,0.0,0.0,0.0,-2.483,0.0,0.0,0.0,0.0,-2.251,0.0,0.0,0.0,0.0,0.0,0.0,0.0,0.0,0.0,0.0,0.0,0.0,0.0,0.0,0.0,0.0,0.0,0.0,-1.9355,-1.9707,-1.9932,-1.9932,-2.0732,-2.1405,-2.1846,-2.2295,-2.2682,-2.3071,-2.3091,-2.3091,-2.3091,-2.3091,-2.3091,-2.3091,-2.3091,-2.3091,-2.3091,-2.3091,-2.3091,-2.3091,-2.3091,-2.3091,-2.3091,-2.3091,-2.3091,-2.3091,-2.3091,-2.3091,-2.3091,0.0,0.0,0.0,0.0,0.0,0.0,0.0,-2.3974,0.0,0.0,0.0,0.0,0.0,-3.1938,-3.1833,0.0,0.0,-2.9859,-3.0306,-2.7995,0.0,0.0,0.0,-2.7829,0.0,0.0,0.0,0.0,-2.5326,-2.4798,-2.588,-2.3973,-2.3091,-2.3081,-2.2705,-2.398,0.0,0.0,0.0,0.0,0.0,-2.9196,-2.9185,0.0,0.0,-2.9792,-2.9792,-2.9792,0.0,-3.0005,-2.9932,-2.9702,-2.9569,-2.9392,-2.9121,-2.8782,-2.8673,0.0,0.0,0.0,-2.7747,-2.6295,0.0,0.0,0.0,0.0,0.0,0.0,0.0,0.0,0.0,0.0,0.0,0.0,0.0,0.0,0.0,0.0,0.0,0.0,0.0,0.0,0.0,0.0,0.0,-1.9316,-1.9678,-1.9912,-1.9912,-2.1025,-2.1738,-2.1875,-2.2568,-2.2955,-2.3091,-2.3091,-2.3091,-2.3091,-2.3091,-2.3091,-2.3091,-2.3091,-2.3091,-2.3091,-2.3091,-2.3091,-2.3091,-2.3091,-2.3091,-2.3091,-2.3091,-2.3091,-2.3091,-2.3091,-2.3091,-2.314,-2.2691,0.0,0.0,0.0,0.0,0.0,0.0,0.0,0.0,0.0,-2.9626,0.0,-3.4713,0.0,-3.3844,0.0,-3.2512,-3.1117,-3.0346,-2.8646,0.0,-2.9077,-2.8566,0.0,0.0,0.0,0.0,0.0,0.0,-2.5378,-2.6431,-2.4188,-2.3091,-2.3081,-2.2808,-2.3912,-2.59,-2.6002,-2.7282,0.0,0.0,-2.9537,0.0,0.0,-2.9658,-2.9468,0.0,-2.9792,-2.9792,-2.9792,-3.003,-3.0269,-2.9905,-3.0043,-3.0256,-2.9892,-2.9792,-2.9792,-2.9792,-2.9495,0.0,-2.7424,-2.7279,0.0,-2.4808,0.0,0.0,0.0,0.0,0.0,0.0,0.0,0.0,0.0,0.0,0.0,0.0,-1.9814,0.0,0.0,0.0,0.0,0.0,0.0,-1.9736,-1.9316,-1.9678,-1.9912,0.0,0.0,-2.1885,-2.1885,-2.2705,-2.3091,-2.3091,-2.3091,-2.3091,-2.3091,-2.3091,-2.3091,-2.3091,-2.3091,-2.3091,-2.3091,-2.3091,-2.3091,-2.3091,-2.3091,-2.3091,-2.3091,-2.3091,-2.3091,-2.3091,-2.3091,-2.3091,-2.3159,0.0,0.0,0.0,0.0,-2.4039,0.0,0.0,0.0,-2.9679,0.0,-3.3171,-3.4679,-3.7077,-3.6737,-3.6398,-3.648,-3.5311,0.0,-3.141,-2.97,0.0,0.0,-2.7459,-2.7737,-2.8963,0.0,0.0,0.0,0.0,-2.5378,-2.6431,-2.4188,-2.3091,-2.3091,-2.3091,0.0,-2.4872,-2.5975,-2.7087,-2.8215,-2.9326,-2.9765,-2.9739,-2.9804,-2.9371,-2.8903,-2.9564,-2.9792,-2.9792,-2.9792,-2.9792,-2.9792,-2.9792,-2.9792,-2.9792,-2.9792,-2.9792,-2.9792,-2.9792,-2.9028,-2.8176,-2.8124,0.0,0.0,0.0,0.0,-2.6648,0.0,0.0,0.0,0.0,0.0,0.0,0.0,0.0,0.0,0.0,0.0,0.0,0.0,0.0,0.0,0.0,-1.9883,-1.9707,-1.9287,-1.9629,-1.9863,0.0,0.0,-2.1865,-2.1885,-2.2705,-2.3091,-2.3091,-2.3091,-2.3091,-2.3091,-2.3091,-2.3091,-2.3091,-2.3091,-2.3091,-2.3091,-2.3091,-2.3091,-2.3091,-2.3091,-2.3091,-2.3091,-2.3091,-2.3091,-2.3091,-2.3091,-2.311,-2.3188,-2.3091,-2.3091,-2.3091,0.0,-2.4039,-2.4987,0.0,0.0,0.0,0.0,-3.2801,-3.4037,-3.8551,-3.7178,-3.6391,-3.7478,-3.445,0.0,0.0,0.0,0.0,-2.9569,-2.8379,-2.8486,-3.0115,-2.8049,0.0,-2.9792,0.0,-2.5378,-2.6431,-2.4188,-2.3091,-2.3091,-2.3091,-2.3714,-2.483,-2.5126,-2.6326,-2.8215,-2.9326,-2.9483,0.0,0.0,-2.9371,-2.8903,-2.9564,-2.9792,-2.9792,-2.9792,-2.9792,-2.9792,-2.9792,-2.9792,-2.9792,-2.9792,-2.9792,-2.9792,-2.9792,-2.9585,-2.9145,-2.8295,-2.853,-2.8502,0.0,0.0,0.0,0.0,0.0,0.0,0.0,0.0,0.0,0.0,0.0,0.0,0.0,0.0,0.0,0.0,0.0,0.0,0.0,-1.9443,-1.9268,-1.8802,-1.887,-1.9202,0.0,0.0,0.0,-2.1875,-2.2705,-2.3091,-2.3091,-2.3091,-2.3091,-2.3091,-2.3091,-2.3091,-2.3091,-2.3091,-2.3091,-2.3091,-2.3091,-2.3091,-2.3091,-2.3091,-2.3091,-2.3091,-2.3091,-2.3091,-2.3091,-2.3091,-2.3305,-2.3682,-2.3222,0.0,0.0,-2.3428,0.0,0.0,-2.7314,0.0,0.0,-3.4457,-3.4249,0.0,-3.8564,-3.7651,-3.6856,-3.7107,-3.5039,0.0,-3.1982,0.0,0.0,-2.9938,-2.864,-2.8637,-3.0229,-2.8234,0.0,-2.9067,0.0,0.0,-2.5724,-2.393,-2.3091,-2.3091,-2.3091,-2.3474,-2.4125,-2.5136,-2.6655,-2.8509,-2.9425,0.0,0.0,-2.9658,-2.9564,-2.9272,-2.9646,-2.9792,-2.9792,-2.9792,-2.9792,-2.9792,-2.9792,-2.9792,-2.9792,-2.9792,-2.9792,-2.9792,-2.9792,-2.9792,-2.9663,-2.8988,-2.9326,-2.9456,-2.8223,-2.8922,-2.9456,0.0,0.0,0.0,0.0,0.0,0.0,0.0,0.0,0.0,0.0,0.0,0.0,0.0,0.0,0.0,0.0,-1.9394,-1.9189,-1.8936,-1.9056,0.0,0.0,0.0,0.0,-2.1875,-2.2705,-2.3091,-2.3091,-2.3091,-2.3091,-2.3091,-2.3091,-2.3091,-2.3091,-2.3091,-2.3091,-2.3091,-2.3091,-2.3091,-2.3091,-2.3091,-2.3091,-2.3091,-2.3091,-2.3091,-2.312,-2.3305,-2.3574,-2.3877,0.0,0.0,0.0,0.0,0.0,0.0,0.0,-3.0857,0.0,-3.6153,0.0,-3.6645,-3.8066,-3.7941,-3.7319,-3.6365,0.0,-3.4652,-3.1465,-3.2054,-3.1717,-2.9865,-2.856,-2.8533,-2.9878,-2.8593,0.0,0.0,0.0,0.0,-2.4999,-2.3714,-2.3091,-2.3091,-2.3149,0.0,0.0,-2.5654,-2.7396,-2.879,-2.9512,-2.9792,-2.9792,-2.9792,-2.9829,-2.9892,-2.9892,-2.9854,-2.9792,-2.9792,-2.9792,-2.9792,-2.9792,-2.9792,-2.9792,-2.9792,-2.9792,-2.9792,-2.9792,-2.9792,-2.9792,-2.9792,-2.9792,-2.9792,-2.9792,-2.9792,-2.9792,-2.9792,-2.9792,-2.9641,0.0,0.0,0.0,0.0,0.0,0.0,0.0,0.0,0.0,0.0,0.0,0.0,0.0,0.0,0.0,-1.9365,-1.9658,0.0,0.0,0.0,0.0,-2.1885,-2.2646,0.0,-2.3091,0.0,-2.3091,-2.3091,-2.3091,-2.3091,-2.3091,-2.3091,-2.3091,-2.3091,-2.3091,-2.3091,-2.3091,-2.3091,-2.3091,-2.3091,-2.3091,-2.3091,-2.3149,-2.3691,-2.3867,-2.3984,0.0,0.0,0.0,0.0,0.0,-3.0483,-3.1552,-3.2389,-3.41,-3.7294,-3.6393,-3.6447,-3.9114,-3.7506,-3.6592,-3.7581,-3.5417,0.0,0.0,0.0,0.0,-3.0741,-2.8925,-2.8695,-3.0403,-2.8051,-2.7666,0.0,0.0,0.0,-2.6141,-2.4059,-2.3091,-2.311,-2.3516,0.0,-2.508,-2.643,0.0,-2.8307,-2.9363,-2.9792,-2.9792,-2.9792,-3.0068,-3.047,-3.047,-3.0181,-2.9792,-2.9792,-2.9792,-2.9792,-2.9792,-2.9792,-2.9792,-2.9792,-2.9792,-2.9792,-2.9792,-2.9792,-2.9792,-2.9792,-2.9792,-2.9792,-2.9792,-2.9792,-2.9792,-2.9792,-2.9792,-2.9767,-2.9666,0.0,0.0,0.0,0.0,0.0,0.0,0.0,0.0,0.0,0.0,0.0,0.0,0.0,0.0,0.0,0.0,0.0,0.0,0.0,0.0,0.0,-2.2363,0.0,0.0,0.0,-2.3091,-2.3091,-2.3091,-2.3091,-2.3091,-2.3091,-2.3091,-2.3091,-2.3091,-2.3091,-2.3091,-2.3091,-2.3091,-2.3091,-2.3091,-2.3091,-2.3188,-2.4014,-2.4307,-2.4375,0.0,0.0,0.0,0.0,0.0,0.0,0.0,-3.4624,0.0,-3.7891,-3.672,-3.6457,-3.8204,-3.753,-3.6736,-3.6186,-3.5171,-3.4035,-3.2746,-3.1986,-3.1468,-3.1235,-2.9442,0.0,-3.0154,-2.829,-2.7997,-2.9312,0.0,0.0,-2.5999,-2.4614,-2.3801,-2.3486,-2.4295,-2.5417,0.0,0.0,0.0,-2.8581,-2.9747,-3.0218,-3.0244,-3.052,-3.0783,-3.1022,-3.1022,-3.0846,-3.0583,-3.0306,-3.0218,-3.0168,-2.988,-2.9792,-2.9792,-2.9792,-2.9792,-2.9792,-2.9792,-2.9792,-2.9792,-2.9792,-2.9792,-2.9792,-2.9792,-2.9792,-2.9792,-2.9792,-2.9792,-2.9624,-2.9028,-2.8135,0.0,0.0,0.0,0.0,0.0,0.0,0.0,0.0,0.0,0.0,0.0,0.0,0.0,0.0,0.0,0.0,0.0,0.0,0.0,0.0,0.0,0.0,0.0,0.0,0.0,-2.3091,-2.3091,-2.3091,-2.3091,-2.3091,-2.3091,-2.3091,-2.3091,-2.3091,-2.3091,-2.3091,-2.3091,-2.3091,-2.3091,-2.3091,-2.3198,-2.4102,-2.4414,-2.4512,0.0,-2.6078,0.0,0.0,-3.0008,0.0,-3.189,-3.6051,-3.8885,-3.7841,-3.719,-3.6932,-3.7315,-3.7651,-3.7022,-3.5005,-3.5122,-3.447,-3.2454,-3.271,-3.2356,-3.1096,-2.9878,-2.9314,-2.9429,-2.8806,-2.8671,0.0,0.0,0.0,0.0,-2.5369,-2.4823,0.0,0.0,0.0,0.0,0.0,-2.8633,-2.9273,-3.0223,-3.0683,-3.0821,-3.1235,-3.1461,-3.1562,-3.1562,-3.1637,-3.1662,-3.1135,-3.0871,-3.0708,-3.0269,-3.0055,-2.9967,-2.9967,-2.988,-2.9792,-2.9792,-2.9792,-2.9792,-2.9792,-2.9792,-2.9792,-2.9792,-2.9792,-2.9792,-2.9792,-2.9792,-2.9534,-2.8636,-2.8219,0.0,0.0,0.0,0.0,0.0,0.0,0.0,0.0,0.0,0.0,0.0,0.0,0.0,0.0,0.0,0.0,0.0,0.0,0.0,0.0,0.0,-2.2578,-2.2955,0.0,-2.3091,0.0,-2.3091,-2.3091,-2.3091,-2.3091,-2.3091,-2.3091,-2.3091,-2.3091,-2.3091,-2.3091,-2.3091,-2.3091,-2.3091,-2.3091,-2.3188,-2.4004,-2.4346,-2.4531,0.0,0.0,0.0,0.0,0.0,0.0,0.0,-3.5176,-3.7486,-3.69,-3.7919,-3.8467,-3.799,-3.7525,-3.6975,-3.6266,-3.5311,-3.4447,-3.3745,-3.2807,-3.1583,-3.0008,-3.0265,-2.9751,-2.8267,-2.9157,-2.9688,0.0,0.0,0.0,0.0,0.0,0.0,0.0,0.0,0.0,0.0,-2.8722,-2.9399,-3.0448,-3.0528,-3.0896,-3.1323,-3.1373,-3.17,-3.2139,-3.2139,-3.2478,-3.283,-3.2252,-3.1738,-3.1311,-3.126,-3.0922,-3.0545,-3.0545,-3.0181,-2.9792,-2.9792,-2.9792,-2.9792,-2.9792,-2.9792,-2.9792,-2.9792,-2.9792,-2.9792,-2.9792,-2.9792,-2.9753,-2.9663,-2.9625,-2.8861,0.0,0.0,0.0,0.0,0.0,0.0,0.0,0.0,0.0,0.0,0.0,0.0,0.0,0.0,0.0,0.0,0.0,0.0,-2.1239,0.0,-2.2148,-2.2568,-2.2906,-2.3091,-2.3091,-2.3091,-2.3091,-2.3091,-2.3091,-2.3091,-2.3091,-2.3091,-2.3091,-2.3091,-2.3091,-2.3091,-2.3091,-2.3091,-2.3091,-2.3149,-2.3672,-2.4092,-2.4482,0.0,0.0,0.0,0.0,0.0,0.0,0.0,-3.3802,-3.5252,-3.3837,-3.6709,-3.858,-3.7613,-3.7312,-3.6445,-3.4452,-3.4541,-3.3683,-3.1366,-3.154,-3.1104,-2.9719,-2.9945,-2.981,-2.9118,-2.9573,-2.9955,0.0,0.0,0.0,0.0,0.0,0.0,0.0,0.0,-2.9628,-3.0839,-3.0507,-3.0642,-3.111,-3.1436,-3.17,-3.1913,-3.2265,-3.2541,-3.2692,-3.234,-3.2591,-3.2993,-3.2403,-3.2064,-3.1825,-3.1499,-3.1248,-3.1022,-3.0708,-3.0457,-3.0218,-2.988,-2.9792,-2.9792,-2.9792,-2.9792,-2.9792,-2.9792,-2.9792,-2.9792,-2.9792,-2.9792,-2.9792,-2.9792,-2.9792,-2.9287,0.0,0.0,0.0,0.0,0.0,0.0,0.0,0.0,0.0,0.0,0.0,0.0,0.0,0.0,0.0,0.0,0.0,0.0,-2.1611,0.0,-2.2461,-2.2838,-2.3013,-2.3091,-2.3091,-2.3091,-2.3091,-2.3091,-2.3091,-2.3091,-2.3091,-2.3091,-2.3091,-2.3091,-2.3091,-2.3091,-2.3091,-2.3091,-2.3091,-2.3149,-2.3633,-2.4053,-2.4482,-3.1443,0.0,-2.8945,0.0,-3.0822,-3.136,-3.0965,-3.2644,-3.3399,-3.1799,-3.4883,-3.6856,-3.5868,-3.6124,-3.5307,-3.2711,-3.3179,-3.2412,-2.9768,-3.0405,-3.0348,-2.9145,-2.9564,0.0,-2.8843,-2.9456,-2.9811,-2.9856,-3.0361,0.0,0.0,0.0,0.0,0.0,-3.0086,-3.0744,-3.1712,-3.1336,-3.1248,-3.1436,-3.1989,-3.2315,-3.2516,-3.2918,-3.3124,-3.3018,-3.2616,-3.2729,-3.3018,-3.2604,-3.2466,-3.2403,-3.2014,-3.1662,-3.1323,-3.0947,-3.062,-3.0202,-2.9504,-2.9314,-2.9314,-2.9314,-2.9314,-2.9404,-2.9702,-2.9534,-2.9314,-2.9314,-2.9573,-2.9792,-2.9792,-2.9792,-2.9443,-2.8307,0.0,0.0,0.0,0.0,0.0,0.0,-2.3171,-2.233,-2.2408,0.0,0.0,0.0,0.0,0.0,0.0,0.0,0.0,0.0,0.0,0.0,0.0,-2.3033,-2.3091,-2.3091,-2.3091,-2.3091,-2.3091,-2.3091,-2.3091,-2.3091,-2.3091,-2.3091,-2.3091,-2.3091,-2.3091,-2.3091,-2.3091,-2.3091,-2.313,-2.3486,-2.3945,-2.4463,-2.9618,-2.9607,-2.9834,-3.0723,-3.0869,-3.0937,-3.0889,-3.1763,-3.2206,-3.1701,-3.2569,-3.3027,-3.2448,-3.3624,-3.3672,-3.1686,-3.1155,-3.0662,-3.0052,-2.9767,-2.9091,0.0,0.0,-2.8791,-2.6607,-2.8673,-2.9236,-2.8136,0.0,0.0,-2.8834,0.0,-3.0383,-3.0414,-3.1062,-3.111,-3.0633,-3.062,-3.0922,-3.1436,-3.1989,-3.2554,-3.3111,-3.3124,-3.3124,-3.3124,-3.3111,-3.3111,-3.3124,-3.3111,-3.3111,-3.3111,-3.3056,-3.229,-3.1386,-3.1386,-3.0633,-2.9546,-2.8426,-2.8136,-2.8136,-2.8136,-2.8136,-2.8426,-2.9534,-2.8937,-2.8136,-2.8136,-2.9028,-2.9792,-2.9792,-2.9792,-2.9443,-2.8307,0.0,0.0,0.0,0.0,0.0,0.0,-2.21,-2.1815,-2.335,0.0,0.0,0.0,0.0,0.0,0.0,0.0,0.0,-2.1875,-2.2295,0.0,-2.2519,-2.2886,-2.3091,-2.3091,-2.3091,-2.3091,-2.3091,-2.3091,-2.3091,-2.3091,-2.3091,-2.3091,-2.3091,-2.3091,-2.3091,-2.3091,-2.3091,-2.3091,-2.3091,-2.3101,-2.3637,-2.4414,-3.1422,-3.0964,-3.0557,-3.084,-3.0889,-3.0889,-3.0889,-3.069,-3.0424,-3.0284,-3.0818,-3.0798,-2.967,-3.1348,-3.1795,0.0,-3.0182,-2.946,0.0,-2.8247,-2.8243,-2.6729,-2.7482,-2.7483,-2.6524,-2.7907,-2.8466,-2.8096,0.0,0.0,0.0,-3.0927,-3.1284,-3.163,-3.1847,-3.2077,-3.229,-3.229,-3.239,-3.2554,-3.2729,-3.2918,-3.3124,-3.3124,-3.3124,-3.3074,-3.2629,-3.2742,-3.3061,-3.2616,-3.2754,-3.3048,-3.2616,-3.224,-3.1751,-3.0648,-2.9779,-2.8855,-2.7423,-2.7005,-2.7005,-2.7005,-2.7574,-2.8016,-2.7626,-2.7827,-2.7896,-2.7157,-2.7867,-2.8398,-2.7678,-2.8159,-2.8267,-2.7209,-2.7319,0.0,0.0,0.0,0.0,0.0,-2.2931,-2.2291,0.0,-2.2585,0.0,0.0,0.0,0.0,0.0,0.0,0.0,0.0,-2.2682,0.0,-2.2896,-2.3033,-2.3091,-2.3091,-2.3091,-2.3091,-2.3091,-2.3091,-2.3091,-2.3091,-2.3091,-2.3091,-2.3091,-2.3091,-2.3091,-2.3091,-2.3091,-2.3091,-2.3091,-2.3091,-2.3637,-2.4414,-3.1477,-3.1237,-3.0889,-3.0889,-3.0742,-3.0635,-3.0635,-2.9893,-2.9326,-2.9326,-2.9437,-2.9207,-2.8398,-2.9425,0.0,-2.8603,-2.9266,-2.8652,-2.6143,-2.7196,-2.7336,-2.6135,-2.6737,-2.6712,-2.5891,0.0,0.0,-2.6849,-2.8723,-3.0146,-3.1097,-3.1298,-3.1574,-3.1913,-3.2127,-3.2303,-3.2453,-3.2667,-3.2754,-3.2767,-3.2993,-3.3124,-3.3013,-3.2389,-3.24,-3.2637,-3.1628,-3.1916,-3.2692,-3.234,-3.2453,-3.2692,-3.2328,-3.1622,-3.0744,-2.9767,-2.8793,-2.7683,-2.626,-2.5839,-2.5839,-2.5839,-2.6707,-2.7319,-2.6637,-2.7005,-2.7197,-2.6088,-2.6748,-2.7279,-2.6637,-2.7046,-2.729,-2.6595,-2.659,-2.6312,-2.5323,0.0,0.0,0.0,0.0,0.0,0.0,-2.2472,0.0,0.0,0.0,0.0,0.0,0.0,0.0,-2.2744,-2.2955,0.0,-2.3091,-2.3091,-2.3091,-2.3091,-2.3091,-2.3091,-2.3091,-2.3091,-2.3091,-2.3091,-2.3091,-2.3091,-2.3091,-2.3091,-2.3091,-2.3091,-2.3091,-2.3091,-2.3091,-2.3091,-2.3637,-2.4414,-3.0078,-3.0527,0.0,0.0,-3.0439,0.0,-3.0156,-2.9443,-2.8916,-2.8916,-2.8555,-2.8291,-2.8291,-2.8045,-2.7832,-2.7679,0.0,0.0,0.0,-2.6543,-2.6443,-2.6,-2.6596,-2.6193,-2.4713,-2.5808,-2.5891,-2.4914,-2.6982,-2.8835,-3.0501,-3.1026,-3.1276,-3.1339,-3.1985,-3.1893,-3.1319,-3.1968,-3.2223,-3.2189,-3.2855,-3.3124,-3.292,-3.1338,-3.1333,-3.2014,-3.0507,-3.0917,-3.2227,-3.2252,-3.224,-3.216,-3.2081,-3.055,-2.8786,-2.8786,-2.7642,-2.6141,-2.4999,-2.466,-2.466,-2.466,-2.5473,-2.6265,-2.6348,-2.6389,-2.6058,-2.4914,-2.5588,-2.6348,-2.6265,-2.6348,-2.6348,-2.6265,-2.5116,-2.4146,-2.4084,0.0,0.0,0.0,0.0,0.0,0.0,-2.2009,-2.2383,0.0,0.0,0.0,0.0,0.0,-2.2691,-2.3081,-2.3091,-2.3091,-2.3091,-2.3091,-2.3091,-2.3091,-2.3091,-2.3091,-2.3091,-2.3091,-2.3091,-2.3091,-2.3091,-2.3091,-2.3091,-2.313,-2.312,-2.3101,-2.313,-2.312,-2.3101,-2.313,-2.3666,-2.4424,0.0,0.0,-3.0264,-2.9941,-2.9795,-2.9717,-2.9717,-2.9268,-2.8916,-2.8916,-2.8555,-2.8291,-2.8291,-2.9116,-2.8981,-2.7329,-2.707,-2.6685,-2.5918,-2.5926,-2.5595,-2.4858,-2.4937,-2.456,-2.3527,-2.4628,-2.5504,-2.6099,-2.6637,-2.772,-2.9313,-2.9897,-3.0326,-3.0724,-3.2208,-3.1741,-3.0003,-3.2037,-3.2315,-3.154,-3.2649,-3.3124,-3.3018,-3.2174,-3.1992,-3.2148,-3.1759,-3.1893,-3.2277,-3.2717,-3.2579,-3.2014,-3.0772,-2.911,-2.7676,-2.7676,-2.6506,-2.4957,-2.38,-2.3507,-2.3507,-2.3507,-2.3724,-2.4135,-2.4999,-2.521,-2.4872,-2.3757,-2.4425,-2.4925,-2.4059,-2.4638,-2.4925,-2.4059,-2.4053,-2.3805,-2.259,-2.1725,0.0,0.0,-2.1621,-2.1846,-2.1748,-2.249,-2.2769,0.0,0.0,0.0,0.0,-2.2945,-2.2994,-2.3091,-2.3091,-2.3091,-2.3091,-2.3091,-2.3091,-2.3091,-2.3091,-2.3091,-2.3091,-2.3091,-2.3091,-2.3091,-2.3091,-2.3091,-2.312,-2.3496,-2.3437,-2.313,-2.3506,-2.3437,-2.314,-2.3516,-2.3965,-2.4463,-2.9902,-3.0039,-3.0127,-2.9893,-2.9531,-2.9277,-2.9277,-2.8906,-2.8633,-2.8633,-2.8437,-2.8291,-2.8291,-2.8953,-2.883,-2.7415,-2.7502,-2.7071,-2.5771,-2.5693,-2.543,-2.4746,-2.4521,-2.4111,-2.3447,-2.3824,-2.4585,-2.5714,-2.5714,-2.6667,-2.8524,-2.8602,-2.8914,-2.9404,-3.0402,-3.003,-2.888,-3.1045,-3.1646,-3.1311,-3.2612,-3.2918,-3.2574,-3.1494,-3.1397,-3.1718,-3.0976,-3.0989,-3.1509,-3.2397,-3.194,-3.0863,-3.008,-2.8475,-2.6833,-2.6317,-2.5157,-2.3877,-2.3256,-2.3091,-2.3222,-2.3757,-2.3474,-2.3387,-2.4542,-2.4414,-2.3844,-2.3222,-2.3594,-2.3833,-2.3222,-2.3594,-2.3773,-2.2967,-2.302,-2.2786,-2.1722,-2.1211,0.0,-2.1171,-2.1621,-2.1963,-2.2158,-2.2754,-2.3003,-2.2769,0.0,0.0,-2.3091,-2.3091,-2.3091,-2.3091,-2.3091,-2.3091,-2.3091,-2.3091,-2.3091,-2.3091,-2.334,-2.3286,-2.3101,-2.3305,-2.3286,-2.3091,-2.3091,-2.3091,-2.311,-2.3344,-2.3467,-2.3457,-2.3691,-2.376,-2.375,-2.3994,-2.4346,-2.4746,-3.0205,-3.0195,-3.0176,-3.0107,-2.9443,-2.8945,-2.9004,-2.8662,-2.8389,-2.8389,-2.8389,-2.8359,-2.8301,-2.8291,-2.8125,-2.7757,-2.836,-2.795,-2.5938,-2.5723,-2.5537,-2.5135,-2.4717,-2.4316,-2.3896,-2.3457,-2.3664,-2.4542,-2.4702,-2.5775,-2.7602,-2.7383,-2.7436,-2.7714,-2.8006,-2.7984,-2.7887,-2.9784,-3.0846,-3.1311,-3.2469,-3.2704,-3.2181,-3.056,-3.0609,-3.1313,-2.9603,-2.9744,-3.0807,-3.1729,-3.1082,-2.9834,-2.9593,-2.8164,-2.6224,-2.4925,-2.3877,-2.3091,-2.3091,-2.3091,-2.3343,-2.4296,-2.3844,-2.3343,-2.4339,-2.38,-2.3091,-2.3091,-2.3091,-2.3091,-2.3091,-2.3091,-2.2984,-2.2666,-2.2197,-2.1758,-2.1346,0.0,-2.083,-2.1239,-2.1719,-2.2148,-2.2568,-2.2886,-2.3091,-2.3091,-2.3091,-2.3091,0.0,-2.3091,-2.3091,-2.3091,-2.3091,-2.3091,-2.3091,-2.3091,-2.313,-2.3198,-2.3613,-2.3594,-2.3208,-2.3682,-2.3613,-2.3101,-2.3169,-2.3198,-2.3198,-2.3266,-2.3545,-2.3896,-2.3955,-2.416,-2.4424,-2.4492,-2.4746,-2.5125,-3.0273,-3.0195,-3.0078,-2.9726,-2.9258,-2.9043,-2.9414,-2.9101,-2.8818,-2.8818,-2.8818,-2.8682,-2.833,-2.8291,-2.8125,-2.7757,-2.7796,-2.7444,-2.6348,-2.5947,-2.5537,-2.5135,-2.5047,-2.4766,-2.4336,-2.3906,-2.3595,-2.3343,-2.4339,-2.4999,-2.5336,-2.6681,-2.6784,-2.5883,-2.7433,-2.769,-2.7227,-2.9575,-3.0846,-3.1276,-3.2036,-3.2591,-3.278,-3.1123,-3.1135,-3.1834,-3.0116,-3.0531,-3.1843,-3.1487,-3.126,-3.0787,-2.8943,-2.7522,-2.6099,-2.3973,-2.3266,-2.3091,-2.3091,-2.3091,-2.3135,-2.3299,-2.3222,-2.3135,-2.3299,-2.3222,-2.3091,-2.3091,-2.3091,-2.3091,-2.3091,-2.3091,-2.3071,-2.3013,-2.2393,-2.1865,-2.1797,0.0,-2.1289,-2.1738,-2.2158,-2.2578,-2.2955,-2.3052,-2.3091,-2.3091,-2.3091,-2.3091,-2.3091,-2.3091,-2.3091,-2.3091,-2.3091,-2.3091,-2.3091,-2.3091,-2.3276,-2.3691,-2.376,-2.375,-2.3701,-2.4121,-2.3887,-2.311,-2.3525,-2.3691,-2.3721,-2.4072,-2.4258,-2.4355,-2.4727,-2.4687,-2.4463,-2.4834,-2.5057,-2.5174,-3.0615,-3.0185,-2.9873,-2.9902,-2.9355,-2.9062,-2.9502,-2.9404,-2.9189,-2.8945,-2.8916,-2.876,-2.834,-2.8291,-2.8213,-2.8018,-2.7855,-2.7693,-2.7662,-2.7305,-2.6858,-2.6459,-2.6205,-2.5544,-2.4424,-2.4004,-2.3691,-2.3486,-2.3747,-2.4211,-2.4787,-2.4975,-2.5173,-2.5424,-2.5687,-2.6225,-2.7024,-2.8857,-3.0264,-3.1288,-3.2271,-3.2654,-3.2528,-3.1763,-3.139,-3.1114,-3.0305,-2.9881,-2.9859,-3.0873,-3.003,-2.8491,-2.82,-2.6958,-2.5263,-2.3594,-2.3091,-2.3091,-2.3091,-2.3091,-2.3091,-2.3091,-2.3091,-2.3091,-2.3091,-2.3091,-2.3091,-2.3091,-2.3091,-2.3091,-2.3091,-2.3091,-2.3023,-2.2789,-2.248,0.0,0.0,-2.1709,-2.1748,-2.2168,-2.2393,-2.2676,-2.3052,-2.3091,-2.3091,-2.3091,-2.3091,-2.3091,-2.3091,-2.3091,-2.3091,-2.3091,-2.3091,-2.3208,-2.3486,-2.3486,-2.3701,-2.4131,-2.4365,-2.4355,-2.4141,-2.457,-2.4424,-2.3793,-2.4043,-2.4121,-2.4141,-2.4336,-2.4551,-2.4785,-2.5037,-2.5098,-2.5156,-2.5352,-2.543,-2.5459,-3.0889,-3.0342,-2.9941,-3.0156,-2.9648,-2.9326,-2.9668,-2.9717,-2.959,-2.9258,-2.9131,-2.8906,-2.8486,-2.835,-2.8291,-2.8291,-2.8295,-2.8521,-2.8982,-2.9148,-2.8732,-2.7657,-2.6973,-2.5975,-2.458,-2.415,-2.3887,-2.3789,-2.3604,-2.38,-2.4372,-2.38,-2.3991,-2.4831,-2.4024,-2.4816,-2.6845,-2.7944,-2.9514,-3.1288,-3.2284,-3.2397,-3.193,-3.1682,-3.0985,-3.0112,-2.9676,-2.8891,-2.8251,-2.9727,-2.8556,-2.6663,-2.7326,-2.6271,-2.4585,-2.342,-2.3091,-2.3091,-2.3091,-2.3091,-2.3091,-2.3091,-2.3091,-2.3091,-2.3091,-2.3091,-2.3091,-2.3091,-2.3091,-2.3091,-2.3091,-2.3091,-2.2984,-2.2672,0.0,0.0,0.0,-2.2031,-2.2148,-2.2471,-2.2598,-2.274,-2.3062,-2.3091,-2.3091,-2.3091,-2.3091,-2.3091,-2.3091,-2.3091,-2.314,-2.3247,-2.3149,-2.3354,-2.3935,-2.3838,-2.4053,-2.457,-2.4912,-2.4893,-2.458,-2.5019,-2.4922,-2.4424,-2.4521,-2.457,-2.457,-2.457,-2.4824,-2.5225,-2.5225,-2.5439,-2.5693,-2.5693,-2.5693,-2.5693,-3.0889,-3.084,-3.0664,-3.0264,-3.0146,-3.0117,-3.0146,-3.0156,-3.0137,-3.0107,-2.9766,-2.9355,-2.8926,-2.8525,-2.8291,-2.8291,-2.943,-2.9973,-2.9676,-3.1329,-3.0923,-2.7715,-2.6446,-2.5575,-2.5077,-2.459,-2.418,-2.3789,-2.4393,-2.4168,-2.3266,-2.4211,-2.4188,-2.3271,-2.3184,-2.4344,-2.6372,-2.7116,-2.887,-3.1228,-3.1442,-3.1434,-3.1189,-3.0179,-2.9657,-2.9238,-2.7565,-2.7945,-2.9065,-2.7664,-2.7441,-2.7545,-2.6216,-2.5315,-2.4585,-2.342,-2.3091,-2.3091,-2.3091,-2.3091,-2.3091,-2.3091,-2.3091,-2.3091,-2.3091,-2.3091,-2.3091,-2.3091,-2.3091,-2.3091,-2.3091,-2.3091,-2.3081,-2.3052,0.0,0.0,-2.2471,-2.2471,-2.248,-2.251,-2.2808,-2.3062,-2.3091,-2.3091,-2.3091,-2.3091,-2.3091,-2.3091,-2.3091,-2.3091,-2.3276,-2.373,-2.3305,-2.3491,-2.4365,-2.3984,-2.4199,-2.5067,-2.5096,-2.5096,-2.5086,-2.5488,-2.5225,-2.4443,-2.4844,-2.5067,-2.5067,-2.5067,-2.5283,-2.5635,-2.5635,-2.5664,-2.5693,-2.5693,-2.5693,-2.5693,-3.0889,-3.0664,-3.0498,-3.0605,-3.0176,-2.999,-3.0547,-3.0381,-3.0195,-3.0195,-2.9834,-2.9404,-2.8965,-2.8545,-2.8644,-2.946,-3.0016,-3.0826,-3.198,-3.2743,-3.2183,-2.992,-2.935,-2.8351,-2.6679,-2.6182,-2.5506,-2.4626,-2.4307,-2.3958,-2.3535,-2.368,-2.3795,-2.3926,-2.3926,-2.5118,-2.7136,-2.7369,-2.8496,-3.0101,-3.0155,-3.0148,-3.0044,-2.9621,-2.8991,-2.8204,-2.752,-2.7196,-2.709,-2.6951,-2.6389,-2.5695,-2.5616,-2.4743,-2.3671,-2.3222,-2.333,-2.3545,-2.3545,-2.3305,-2.3091,-2.3091,-2.3091,-2.3091,-2.3091,-2.3091,-2.3091,-2.3091,-2.3091,-2.3091,-2.3091,-2.3091,-2.3091,-2.3091,0.0,-2.2955,-2.3271,-2.3301,-2.3398,-2.3662,-2.3828,-2.3926,-2.3926,-2.3691,-2.3545,-2.3545,-2.3247,-2.3091,-2.3091,-2.3398,-2.374,-2.417,-2.3769,-2.3818,-2.4414,-2.4004,-2.4219,-2.5116,-2.5116,-2.5215,-2.5488,-2.5615,-2.5508,-2.5196,-2.541,-2.5478,-2.5478,-2.5478,-2.5586,-2.5693,-2.5693,-2.5693,-2.5693,-2.5693,-2.5693,-2.5693,-3.0889,-3.0635,-3.0469,-3.0644,-3.0293,-3.0137,-3.0605,-3.04,-3.0195,-3.0195,-2.9717,-2.9248,-2.8955,-2.8545,-2.8644,-2.9608,-3.0068,-3.1084,-3.2992,-3.3756,-3.3332,-3.1577,-3.1102,-3.0023,-2.8179,-2.7313,-2.6481,-2.5661,-2.4427,-2.3789,-2.3779,-2.3486,-2.3662,-2.4228,-2.4355,-2.5318,-2.6851,-2.7035,-2.7772,-2.8844,-2.9056,-2.8998,-2.8819,-2.8819,-2.8085,-2.6982,-2.6982,-2.6338,-2.5545,-2.5965,-2.5243,-2.4267,-2.4683,-2.4142,-2.3305,-2.3305,-2.3652,-2.3984,-2.3984,-2.3769,-2.35,-2.35,-2.35,-2.3461,-2.3335,-2.3305,-2.3257,-2.312,-2.3091,-2.3091,-2.3091,-2.3091,-2.314,-2.3276,-2.3305,-2.3496,-2.3926,-2.3984,-2.4092,-2.4385,-2.4414,-2.4414,-2.4414,-2.415,-2.3984,-2.3984,-2.3711,-2.35,-2.35,-2.3955,-2.4316,-2.4609,-2.4336,-2.4326,-2.4619,-2.4062,-2.415,-2.4863,-2.5047,-2.5225,-2.5527,-2.5625,-2.5693,-2.5693,-2.5693,-2.5693,-2.5693,-2.5693,-2.5693,-2.5693,-2.5693,-2.5693,-2.5693,-2.5693,-2.5771,-2.5918,-3.0889,-3.0889,-3.0742,-3.0273,-3.0576,-3.0732,-3.0273,-3.0195,-3.0195,-3.0195,-2.9453,-2.8926,-2.8916,-2.8545,-2.8291,-2.8291,-2.9513,-3.0876,-3.223,-3.4318,-3.449,-3.2182,-3.0893,-2.9958,-2.9418,-2.7764,-2.6896,-2.6896,-2.4836,-2.3799,-2.3799,-2.3799,-2.3799,-2.3818,-2.4238,-2.4668,-2.5134,-2.5823,-2.6658,-2.7641,-2.8293,-2.8163,-2.7589,-2.7589,-2.6802,-2.5693,-2.5693,-2.5449,-2.5047,-2.456,-2.4141,-2.3721,-2.3247,-2.3447,-2.3799,-2.3799,-2.4092,-2.4424,-2.4424,-2.4424,-2.4424,-2.4414,-2.4414,-2.4307,-2.3896,-2.3799,-2.3672,-2.3198,-2.311,-2.311,-2.311,-2.311,-2.3247,-2.3721,-2.3799,-2.3945,-2.4365,-2.4424,-2.4424,-2.4424,-2.4424,-2.4424,-2.4424,-2.4424,-2.4424,-2.4424,-2.4414,-2.4414,-2.4424,-2.4834,-2.5116,-2.5116,-2.5116,-2.5116,-2.5106,-2.4219,-2.4004,-2.4424,-2.4863,-2.5116,-2.5135,-2.5537,-2.5693,-2.5693,-2.5693,-2.5693,-2.5693,-2.5693,-2.5693,-2.5693,-2.5693,-2.5693,-2.5703,-2.5703,-2.6016,-2.6328,-3.0469,-3.0664,-3.0742,-3.0273,-3.0312,-3.0469,-3.0654,-3.04,-3.0195,-3.0195,-2.9717,-2.9258,-2.8955,-2.8545,-2.8698,-2.9608,-3.0068,-3.0876,-3.223,-3.3817,-3.4066,-3.2614,-3.269,-3.2322,-3.1328,-2.9578,-2.8242,-2.7379,-2.5598,-2.4734,-2.4678,-2.4375,-2.4394,-2.4734,-2.4861,-2.5127,-2.5527,-2.5726,-2.6006,-2.6284,-2.6468,-2.6451,-2.6294,-2.6294,-2.6014,-2.5693,-2.5693,-2.5449,-2.5047,-2.456,-2.4336,-2.4209,-2.4072,-2.4121,-2.4228,-2.4228,-2.4531,-2.4873,-2.4873,-2.5322,-2.5576,-2.4648,-2.4414,-2.4385,-2.4258,-2.4228,-2.4189,-2.4062,-2.3988,-2.3988,-2.3988,-2.3988,-2.4082,-2.4209,-2.4228,-2.4385,-2.4814,-2.4873,-2.499,-2.5255,-2.5294,-2.5294,-2.5294,-2.5059,-2.4873,-2.4873,-2.459,-2.4551,-2.4853,-2.5047,-2.5116,-2.5116,-2.5116,-2.4922,-2.4609,-2.4355,-2.4443,-2.4873,-2.5047,-2.5234,-2.5547,-2.5625,-2.5693,-2.5693,-2.5693,-2.5693,-2.5693,-2.5693,-2.5869,-2.6191,-2.6191,-2.6377,-2.6631,-2.6631,-2.6719,-2.6807,-3.0293,-3.0576,-3.0965,-3.1271,-3.1335,-3.1653,-3.2499,-3.225,-3.1655,-3.0944,-3.0485,-2.9779,-2.8765,-2.8447,-2.8644,-2.946,-3.0016,-3.0618,-3.148,-3.3315,-3.41,-3.3399,-3.3921,-3.3687,-3.252,-3.0941,-2.9761,-2.9039,-2.6884,-2.5802,-2.5792,-2.5019,-2.4814,-2.5125,-2.5254,-2.5478,-2.5693,-2.5693,-2.5693,-2.5693,-2.5693,-2.5693,-2.5693,-2.5693,-2.5693,-2.5693,-2.5693,-2.5449,-2.5077,-2.4766,-2.456,-2.4414,-2.4414,-2.4531,-2.4678,-2.4678,-2.5107,-2.5586,-2.5586,-2.6103,-2.6445,-2.5644,-2.5322,-2.5107,-2.4756,-2.4678,-2.4619,-2.4453,-2.4414,-2.4414,-2.4414,-2.4414,-2.4473,-2.4648,-2.4678,-2.4824,-2.5273,-2.5332,-2.5439,-2.5654,-2.5693,-2.5693,-2.5693,-2.5488,-2.54,-2.5576,-2.5352,-2.5312,-2.5576,-2.543,-2.5332,-2.5332,-2.5332,-2.5205,-2.4941,-2.4894,-2.4893,-2.4814,-2.5028,-2.5205,-2.5478,-2.5606,-2.5693,-2.5693,-2.5693,-2.5693,-2.5693,-2.5693,-2.5996,-2.6387,-2.6387,-2.665,-2.7012,-2.7012,-2.7119,-2.7246,-3.0293,-3.0576,-3.1373,-3.2809,-3.3046,-3.3575,-3.5068,-3.4853,-3.3844,-3.209,-3.1356,-3.0321,-2.87,-2.8514,-2.8548,-2.8654,-2.966,-3.0266,-3.012,-3.2705,-3.4203,-3.4168,-3.4563,-3.4299,-3.3257,-3.1913,-3.1247,-3.1294,-2.8527,-2.715,-2.7012,-2.5923,-2.5328,-2.5253,-2.5615,-2.5742,-2.5742,-2.5742,-2.5723,-2.5693,-2.5693,-2.5693,-2.5693,-2.5693,-2.5693,-2.5693,-2.5693,-2.5449,-2.5116,-2.5116,-2.4805,-2.4482,-2.4521,-2.4805,-2.5127,-2.5127,-2.5732,-2.6387,-2.6387,-2.6728,-2.706,-2.7021,-2.6758,-2.6269,-2.5391,-2.5233,-2.5059,-2.4629,-2.4541,-2.4551,-2.458,-2.456,-2.4678,-2.5117,-2.5204,-2.5273,-2.5635,-2.5693,-2.5693,-2.5693,-2.5723,-2.5742,-2.5742,-2.5781,-2.5966,-2.6416,-2.6445,-2.6445,-2.6445,-2.6035,-2.5742,-2.5742,-2.5703,-2.5693,-2.5693,-2.5693,-2.5284,-2.4541,-2.4941,-2.5127,-2.5184,-2.5557,-2.5693,-2.5693,-2.5693,-2.5693,-2.5693,-2.5693,-2.6016,-2.6445,-2.6445,-2.6728,-2.7129,-2.7129,-2.7383,-2.7718,-3.0293,-3.0576,-3.1273,-3.2382,-3.2836,-3.3575,-3.5068,-3.4205,-3.3144,-3.2346,-3.0872,-3.0063,-3.0405,-3.0076,-3.0266,-3.1327,-3.0721,-2.9859,-2.8804,-3.1276,-3.2574,-3.2128,-3.417,-3.5006,-3.4374,-3.2289,-3.1425,-3.1898,-3.0295,-2.899,-2.8073,-2.7833,-2.713,-2.6103,-2.6201,-2.625,-2.625,-2.625,-2.6055,-2.5693,-2.5693,-2.5693,-2.5693,-2.5693,-2.5693,-2.5693,-2.5693,-2.5449,-2.5116,-2.5116,-2.5047,-2.499,-2.5342,-2.5469,-2.5596,-2.5596,-2.5967,-2.6387,-2.6387,-2.6943,-2.7441,-2.71,-2.7197,-2.7209,-2.6299,-2.6103,-2.5977,-2.5489,-2.5401,-2.5508,-2.5898,-2.5684,-2.5596,-2.6025,-2.582,-2.5577,-2.5674,-2.5693,-2.5693,-2.5693,-2.6035,-2.625,-2.625,-2.6543,-2.6777,-2.6875,-2.6875,-2.6875,-2.6875,-2.6475,-2.625,-2.625,-2.5869,-2.5693,-2.5693,-2.5693,-2.5596,-2.5401,-2.5499,-2.5596,-2.5547,-2.5645,-2.5693,-2.5693,-2.5693,-2.5693,-2.5693,-2.5693,-2.6132,-2.6875,-2.6875,-2.7344,-2.8018,-2.8018,-2.8076,-2.8144,-3.0293,-3.0576,-3.1313,-3.2538,-3.3516,-3.4681,-3.6108,-3.6271,-3.5805,-3.4636,-3.3658,-3.29,-3.2486,-3.2204,-3.2353,-3.3025,-3.2457,-3.1652,-3.0727,-3.2525,-3.3431,-3.2886,-3.4553,-3.537,-3.5069,-3.3621,-3.3012,-3.335,-3.2111,-3.0837,-2.9595,-2.8976,-2.7978,-2.6689,-2.6689,-2.6689,-2.667,-2.6475,-2.6377,-2.6259,-2.5849,-2.581,-2.6025,-2.5771,-2.5693,-2.5693,-2.5693,-2.5538,-2.5391,-2.5391,-2.5391,-2.5469,-2.5908,-2.6045,-2.6084,-2.6239,-2.665,-2.7002,-2.7002,-2.7471,-2.791,-2.7685,-2.7793,-2.7744,-2.6885,-2.6689,-2.6562,-2.6133,-2.6211,-2.6357,-2.6387,-2.6367,-2.6426,-2.665,-2.6494,-2.6298,-2.6298,-2.6172,-2.6045,-2.6045,-2.625,-2.6465,-2.667,-2.707,-2.7324,-2.7324,-2.7324,-2.7324,-2.7324,-2.6924,-2.6689,-2.6689,-2.6269,-2.6045,-2.6045,-2.5791,-2.5693,-2.5693,-2.5693,-2.5693,-2.5693,-2.5693,-2.5693,-2.5693,-2.5693,-2.5693,-2.5703,-2.5967,-2.6309,-2.6758,-2.7168,-2.7598,-2.8018,-2.8223,-2.8291,-2.8291,-3.0391,-3.0625,-3.1383,-3.2861,-3.4292,-3.5781,-3.724,-3.8518,-3.8748,-3.7132,-3.6623,-3.5917,-3.4587,-3.4577,-3.4572,-3.4364,-3.4364,-3.4048,-3.3393,-3.4587,-3.5125,-3.4708,-3.5471,-3.5871,-3.5784,-3.5332,-3.5052,-3.4818,-3.3854,-3.2559,-3.1009,-2.9937,-2.863,-2.7129,-2.7129,-2.7129,-2.7109,-2.6758,-2.6768,-2.6953,-2.6191,-2.6172,-2.6455,-2.6094,-2.5859,-2.581,-2.5879,-2.5859,-2.5791,-2.5713,-2.5693,-2.5762,-2.625,-2.6387,-2.6465,-2.6894,-2.7324,-2.7718,-2.7718,-2.7969,-2.8291,-2.8291,-2.8291,-2.8105,-2.7393,-2.7178,-2.7002,-2.6582,-2.6768,-2.6934,-2.666,-2.6826,-2.7041,-2.7119,-2.706,-2.7012,-2.7012,-2.6709,-2.6494,-2.6494,-2.6562,-2.6777,-2.7187,-2.7559,-2.7826,-2.7826,-2.7826,-2.7826,-2.7826,-2.7363,-2.7129,-2.7129,-2.665,-2.6387,-2.6387,-2.5908,-2.5693,-2.5693,-2.5762,-2.5801,-2.5801,-2.5801,-2.5801,-2.5801,-2.5801,-2.5762,-2.5723,-2.6211,-2.6426,-2.6572,-2.7415,-2.7767,-2.7812,-2.8164,-2.8291,-2.8291,-3.081,-3.085,-3.1383,-3.2861,-3.4292,-3.5781,-3.724,-3.769,-3.7719,-3.7423,-3.5936,-3.5264,-3.6208,-3.7023,-3.7007,-3.5844,-3.573,-3.5233,-3.396,-3.5163,-3.5866,-3.5795,-3.6986,-3.745,-3.6973,-3.6885,-3.6383,-3.5382,-3.5244,-3.3921,-3.1573,-3.1426,-2.9995,-2.763,-2.763,-2.763,-2.762,-2.7571,-2.7305,-2.7002,-2.6885,-2.6875,-2.6924,-2.6865,-2.6621,-2.6348,-2.6709,-2.6611,-2.624,-2.582,-2.5693,-2.5762,-2.625,-2.6387,-2.6465,-2.6894,-2.7324,-2.7718,-2.7718,-2.7969,-2.8291,-2.8291,-2.8291,-2.8262,-2.8144,-2.7842,-2.7451,-2.7021,-2.6973,-2.7109,-2.7483,-2.7226,-2.7139,-2.7519,-2.7266,-2.7012,-2.7012,-2.6963,-2.6934,-2.6934,-2.7266,-2.7656,-2.8076,-2.8174,-2.8203,-2.8203,-2.8203,-2.8203,-2.8203,-2.7803,-2.763,-2.763,-2.6807,-2.6387,-2.6387,-2.5908,-2.5693,-2.5693,-2.6123,-2.6299,-2.6299,-2.6299,-2.6299,-2.6299,-2.6299,-2.6084,-2.5723,-2.6211,-2.6602,-2.6973,-2.7523,-2.7891,-2.8213,-2.8271,-2.8291,-2.8291,-3.0889,-3.0889,-3.1112,-3.1767,-3.3754,-3.5508,-3.6162,-3.7648,-3.8739,-3.8739,-3.7984,-3.7682,-3.8332,-3.8713,-3.8728,-3.813,-3.8079,-3.7687,-3.6795,-3.7307,-3.7489,-3.7119,-3.7693,-3.7889,-3.7651,-3.7651,-3.74,-3.6923,-3.6307,-3.506,-3.3177,-3.2426,-3.1023,-2.9123,-2.8367,-2.8018,-2.7998,-2.7816,-2.7695,-2.7685,-2.7207,-2.7168,-2.7353,-2.7109,-2.6904,-2.6728,-2.668,-2.6543,-2.6357,-2.6162,-2.6103,-2.6221,-2.6894,-2.7151,-2.7187,-2.7607,-2.7861,-2.8018,-2.8018,-2.8144,-2.8291,-2.8291,-2.8291,-2.8291,-2.8291,-2.8144,-2.79,-2.7471,-2.7568,-2.7715,-2.7676,-2.7695,-2.7793,-2.7988,-2.7851,-2.7734,-2.7734,-2.7519,-2.7405,-2.7398,-2.756,-2.7845,-2.8232,-2.8291,-2.8291,-2.8291,-2.8291,-2.8291,-2.8291,-2.8115,-2.8018,-2.8018,-2.7187,-2.6738,-2.6738,-2.6074,-2.581,-2.6103,-2.6055,-2.6152,-2.6396,-2.6631,-2.6738,-2.6728,-2.6494,-2.6279,-2.6133,-2.6562,-2.6709,-2.6758,-2.7666,-2.8125,-2.8291,-2.8291,-2.8291,-2.8291]},{"header":{"parameterUnit":"m.s-1","parameterCategory":1,"la1":30.6,"la2":28.766,"lo1":-90.7593,"lo2":-88.6598,"dy":0.0162,"dx":0.0183,"nx":116,"ny":114,"refTime":"2023-04-27T00:00:00:Z","depth":0,"parameterNumber":3,"parameterNumberName":"V-component_of_WINDS"},"data":[0.0,0.0,0.0,0.0,0.0,0.0,0.0,0.0,0.0,0.0,0.0,0.0,0.0,0.0,0.0,0.0,0.0,0.0,0.0,0.0,0.0,0.0,0.0,0.0,0.0,0.0,0.0,0.0,0.0,0.0,0.0,0.0,0.0,0.0,0.0,0.0,0.0,0.0,0.0,0.0,0.0,0.0,0.0,0.0,0.0,0.0,0.0,0.0,0.0,0.0,0.0,0.0,0.0,0.0,0.0,0.0,0.0,0.0,0.0,0.0,0.0,0.0,0.0,0.0,0.0,0.0,0.0,0.0,0.0,0.0,0.0,0.0,0.0,0.0,0.0,0.0,0.0,0.0,0.0,0.0,0.0,0.0,0.0,0.0,0.0,0.0,0.0,0.0,0.0,0.0,0.0,0.0,0.0,0.0,0.0,0.0,0.0,0.0,0.0,0.0,0.0,0.0,0.0,0.0,0.0,0.0,0.0,0.0,0.0,0.0,0.0,0.0,0.0,0.0,0.0,0.0,0.0,0.0,0.0,0.0,0.0,0.0,0.0,0.0,0.0,0.0,0.0,0.0,0.0,0.0,0.0,0.0,0.0,0.0,0.0,0.0,0.0,0.0,0.0,0.0,0.0,0.0,0.0,0.0,0.0,0.0,0.0,0.0,0.0,0.0,0.0,0.0,0.0,0.0,0.0,0.0,0.0,0.0,0.0,0.0,0.0,0.0,0.0,0.0,0.0,0.0,0.0,0.0,0.0,0.0,0.0,0.0,0.0,0.0,0.0,0.0,0.0,0.0,0.0,0.0,0.0,0.0,0.0,0.0,0.0,0.0,0.0,0.0,0.0,0.0,0.0,0.0,0.0,0.0,0.0,0.0,0.0,0.0,0.0,0.0,0.0,0.0,0.0,0.0,0.0,0.0,0.0,0.0,0.0,0.0,0.0,0.0,0.0,0.0,0.0,0.0,0.0,0.0,0.0,0.0,0.0,0.0,0.0,0.0,0.0,0.0,0.0,0.0,0.0,0.0,0.0,0.0,0.0,0.0,0.0,0.0,0.0,0.0,0.0,0.0,0.0,0.0,0.0,0.0,0.0,0.0,0.0,0.0,0.0,0.0,0.0,0.0,0.0,0.0,0.0,0.0,0.0,0.0,0.0,0.0,0.0,0.0,0.0,0.0,0.0,0.0,0.0,0.0,0.0,0.0,0.0,0.0,0.0,0.0,0.0,0.0,0.0,0.0,0.0,0.0,0.0,0.0,0.0,0.0,0.0,0.0,0.0,0.0,0.0,0.0,0.0,0.0,0.0,0.0,0.0,0.0,0.0,0.0,0.0,0.0,0.0,0.0,0.0,0.0,0.0,0.0,0.0,0.0,0.0,0.0,0.0,0.0,0.0,0.0,0.0,0.0,0.0,0.0,0.0,0.0,0.0,0.0,0.0,0.0,0.0,0.0,0.0,0.0,0.0,0.0,0.0,0.0,0.0,0.0,0.0,0.0,0.0,0.0,0.0,0.0,0.0,0.0,0.0,0.0,0.0,0.0,0.0,0.0,0.0,0.0,0.0,0.0,0.0,0.0,0.0,0.0,0.0,0.0,0.0,0.0,0.0,0.0,0.0,0.0,0.0,0.0,0.0,0.0,0.0,0.0,0.0,0.0,0.0,0.0,0.0,0.0,0.0,0.0,0.0,0.0,0.0,0.0,0.0,0.0,0.0,0.0,0.0,0.0,0.0,0.0,0.0,0.0,0.0,0.0,0.0,0.0,0.0,0.0,0.0,0.0,0.0,0.0,0.0,0.0,0.0,0.0,0.0,0.0,0.0,0.0,0.0,0.0,0.0,0.0,0.0,0.0,0.0,0.0,0.0,0.0,0.0,0.0,0.0,0.0,0.0,0.0,0.0,0.0,0.0,0.0,0.0,0.0,0.0,0.0,0.0,0.0,0.0,0.0,0.0,0.0,0.0,0.0,0.0,0.0,0.0,0.0,0.0,0.0,0.0,0.0,0.0,0.0,0.0,0.0,0.0,0.0,0.0,0.0,0.0,0.0,0.0,0.0,0.0,0.0,0.0,0.0,0.0,0.0,0.0,0.0,0.0,0.0,0.0,0.0,0.0,0.0,0.0,0.0,0.0,0.0,0.0,0.0,0.0,0.0,0.0,0.0,0.0,0.0,0.0,0.0,0.0,0.0,0.0,0.0,0.0,0.0,0.0,0.0,0.0,0.0,0.0,0.0,0.0,0.0,0.0,0.0,0.0,0.0,0.0,0.0,0.0,0.0,0.0,0.0,0.0,0.0,0.0,0.0,0.0,0.0,0.0,0.0,0.0,0.0,0.0,0.0,0.0,0.0,0.0,0.0,0.0,0.0,0.0,0.0,0.0,0.0,0.0,0.0,0.0,0.0,0.0,0.0,0.0,0.0,0.0,0.0,0.0,0.0,0.0,0.0,0.0,0.0,0.0,0.0,0.0,0.0,0.0,0.0,0.0,0.0,0.0,0.0,0.0,0.0,0.0,0.0,0.0,0.0,0.0,0.0,0.0,0.0,0.0,0.0,0.0,0.0,0.0,0.0,0.0,0.0,0.0,0.0,0.0,0.0,0.0,0.0,0.0,0.0,0.0,0.0,0.0,0.0,0.0,0.0,0.0,0.0,0.0,0.0,0.0,0.0,0.0,0.0,0.0,0.0,0.0,0.0,0.0,0.0,0.0,0.0,0.0,0.0,0.0,0.0,0.0,0.0,0.0,0.0,0.0,0.0,0.0,0.0,0.0,0.0,0.0,0.0,0.0,0.0,0.0,0.0,0.0,0.0,0.0,0.0,0.0,0.0,0.0,0.0,0.0,0.0,0.0,0.0,0.0,0.0,0.0,0.0,0.0,0.0,0.0,0.0,0.0,0.0,0.0,0.0,0.0,0.0,0.0,0.0,0.0,0.0,0.0,0.0,0.0,0.0,0.0,0.0,0.0,0.0,0.0,0.0,0.0,0.0,0.0,0.0,0.0,0.0,0.0,0.0,0.0,0.0,0.0,0.0,0.0,0.0,0.0,0.0,0.0,0.0,0.0,0.0,0.0,0.0,0.0,0.0,0.0,0.0,0.0,0.0,0.0,0.0,0.0,0.0,0.0,0.0,0.0,0.0,0.0,0.0,0.0,0.0,0.0,0.0,0.0,0.0,0.0,0.0,0.0,0.0,0.0,0.0,0.0,0.0,0.0,0.0,0.0,0.0,0.0,0.0,0.0,0.0,0.0,0.0,0.0,0.0,0.0,0.0,0.0,0.0,0.0,0.0,0.0,0.0,0.0,0.0,0.0,0.0,0.0,0.0,0.0,0.0,0.0,0.0,0.0,0.0,0.0,0.0,0.0,0.0,0.0,0.0,0.0,0.0,0.0,0.0,0.0,0.0,0.0,0.0,0.0,0.0,0.0,0.0,0.0,0.0,0.0,0.0,0.0,0.0,0.0,0.0,0.0,0.0,0.0,0.0,0.0,0.0,0.0,0.0,0.0,0.0,0.0,0.0,0.0,0.0,0.0,0.0,0.0,0.0,0.0,0.0,0.0,0.0,0.0,0.0,0.0,0.0,0.0,0.0,0.0,0.0,0.0,0.0,0.0,0.0,0.0,0.0,0.0,0.0,0.0,0.0,0.0,0.0,0.0,0.0,0.0,0.0,0.0,0.0,0.0,0.0,0.0,0.0,0.0,0.0,0.0,0.0,0.0,0.0,0.0,0.0,0.0,0.0,0.0,0.0,0.0,0.0,0.0,0.0,0.0,0.0,0.0,0.0,0.0,0.0,0.0,0.0,0.0,0.0,0.0,0.0,0.0,0.0,0.0,0.0,0.0,0.0,0.0,0.0,0.0,0.0,0.0,0.0,0.0,0.0,0.0,0.0,0.0,0.0,0.0,0.0,0.0,0.0,0.0,0.0,0.0,0.0,0.0,0.0,0.0,0.0,0.0,0.0,0.0,0.0,0.0,0.0,0.0,0.0,0.0,0.0,0.0,0.0,0.0,0.0,0.0,0.0,0.0,0.0,0.0,0.0,0.0,0.0,0.0,0.0,0.0,0.0,0.0,0.0,0.0,0.0,0.0,0.0,0.0,0.0,0.0,0.0,0.0,0.0,0.0,0.0,0.0,0.0,0.0,0.0,0.0,0.0,0.0,0.0,0.0,0.0,0.0,0.0,0.0,0.0,0.0,0.0,0.0,0.0,0.0,0.0,0.0,0.0,0.0,0.0,0.0,0.0,0.0,0.0,0.0,0.0,0.0,0.0,0.0,0.0,0.0,0.0,0.0,0.0,0.0,0.0,0.0,0.0,0.0,0.0,0.0,0.0,0.0,0.0,0.0,0.0,0.0,0.0,0.0,0.0,0.0,0.0,0.0,0.0,0.0,0.0,0.0,0.0,0.0,0.0,0.0,0.0,0.0,0.0,0.0,0.0,0.0,0.0,0.0,0.0,0.0,0.0,0.0,0.0,0.0,0.0,0.0,0.0,0.0,0.0,0.0,0.0,0.0,0.0,0.0,0.0,0.0,0.0,0.0,0.0,0.0,0.0,0.0,0.0,0.0,0.0,0.0,0.0,0.0,0.0,0.0,0.0,0.0,0.0,0.0,0.0,0.0,0.0,0.0,0.0,0.0,0.0,0.0,0.0,0.0,0.0,0.0,0.0,0.0,0.0,0.0,0.0,0.0,0.0,0.0,0.0,0.0,0.0,0.0,0.0,0.0,0.0,0.0,0.0,0.0,0.0,0.0,0.0,0.0,0.0,0.0,0.0,0.0,0.0,0.0,0.0,0.0,0.0,0.0,0.0,0.0,0.0,0.0,0.0,0.0,0.0,0.0,0.0,0.0,0.0,0.0,0.0,0.0,0.0,0.0,0.0,0.0,0.0,0.0,0.0,0.0,0.0,0.0,0.0,0.0,0.0,0.0,0.0,0.0,0.0,0.0,0.0,0.0,0.0,0.0,0.0,0.0,0.0,0.0,0.0,0.0,0.0,0.0,0.0,0.0,0.0,0.0,0.0,0.0,0.0,0.0,0.0,0.0,0.0,0.0,0.0,0.0,0.0,0.0,0.0,0.0,0.0,0.0,0.0,0.0,0.0,0.0,0.0,0.0,0.0,0.0,0.0,0.0,0.0,0.0,0.0,0.0,0.0,0.0,0.0,0.0,0.0,0.0,0.0,0.0,0.0,0.0,0.0,0.0,0.0,0.0,0.0,0.0,0.0,0.0,0.0,0.0,0.0,0.0,0.0,0.0,0.0,0.0,0.0,0.0,0.0,0.0,0.0,0.0,0.0,0.0,0.0,0.0,0.0,0.0,0.0,0.0,0.0,0.0,0.0,0.0,0.0,0.0,0.0,0.0,0.0,0.0,0.0,0.0,0.0,0.0,0.0,0.0,0.0,0.0,0.0,0.0,0.0,0.0,0.0,0.0,0.0,0.0,0.0,0.0,0.0,0.0,0.0,0.0,0.0,0.0,0.0,0.0,0.0,0.0,0.0,0.0,0.0,0.0,0.0,0.0,0.0,0.0,0.0,0.0,0.0,0.0,0.0,0.0,0.0,0.0,0.0,0.0,0.0,0.0,0.0,0.0,0.0,0.0,0.0,0.0,0.0,0.0,0.0,0.0,0.0,0.0,0.0,0.0,0.0,0.0,0.0,0.0,0.0,0.0,0.0,0.0,0.0,0.0,0.0,0.0,0.0,0.0,0.0,0.0,0.0,0.0,0.0,0.0,0.0,0.0,0.0,0.0,0.0,0.0,0.0,0.0,0.0,0.0,0.0,0.0,0.0,0.0,0.0,0.0,0.0,0.0,0.0,0.0,0.0,0.0,0.0,0.0,0.0,0.0,0.0,0.0,0.0,0.0,0.0,0.0,0.0,0.0,0.0,0.0,0.0,0.0,0.0,0.0,0.0,0.0,0.0,0.0,0.0,0.0,0.0,0.0,0.0,0.0,0.0,0.0,0.0,0.0,0.0,0.0,0.0,0.0,0.0,0.0,0.0,0.0,0.0,0.0,0.0,0.0,0.0,0.0,0.0,0.0,0.0,0.0,0.0,0.0,0.0,0.0,0.0,0.0,0.0,0.0,0.0,0.0,0.0,0.0,0.0,0.0,0.0,3.2454,0.0,0.0,0.0,0.0,0.0,0.0,0.0,0.0,0.0,0.0,0.0,0.0,0.0,0.0,0.0,0.0,0.0,0.0,0.0,0.0,0.0,0.0,0.0,0.0,0.0,0.0,0.0,0.0,0.0,0.0,0.0,0.0,0.0,0.0,0.0,0.0,0.0,0.0,3.3183,3.2784,3.2583,3.2577,3.3807,3.4114,3.3765,0.0,0.0,0.0,0.0,0.0,0.0,0.0,0.0,0.0,0.0,0.0,0.0,0.0,0.0,0.0,0.0,0.0,0.0,0.0,0.0,0.0,0.0,0.0,0.0,0.0,0.0,0.0,0.0,0.0,0.0,0.0,0.0,0.0,0.0,0.0,0.0,0.0,0.0,0.0,0.0,0.0,0.0,0.0,0.0,0.0,0.0,0.0,0.0,0.0,0.0,0.0,0.0,0.0,0.0,0.0,0.0,0.0,0.0,0.0,0.0,0.0,0.0,0.0,0.0,0.0,0.0,0.0,0.0,0.0,0.0,0.0,3.3724,0.0,0.0,0.0,0.0,0.0,0.0,0.0,0.0,0.0,0.0,0.0,0.0,0.0,0.0,0.0,0.0,0.0,0.0,0.0,0.0,0.0,0.0,0.0,3.3602,3.3666,3.3605,3.3587,3.3587,0.0,0.0,0.0,0.0,0.0,0.0,3.3807,3.3807,3.3733,3.3587,3.2931,3.3151,3.4247,3.5059,3.489,3.4024,3.6091,0.0,0.0,0.0,0.0,0.0,0.0,0.0,0.0,0.0,0.0,0.0,0.0,0.0,0.0,0.0,0.0,0.0,0.0,0.0,0.0,0.0,0.0,0.0,0.0,0.0,0.0,0.0,0.0,0.0,0.0,0.0,0.0,0.0,0.0,0.0,0.0,0.0,0.0,0.0,0.0,0.0,0.0,0.0,0.0,0.0,0.0,0.0,0.0,0.0,0.0,0.0,0.0,0.0,0.0,0.0,0.0,0.0,0.0,0.0,0.0,0.0,0.0,0.0,4.0269,4.0878,4.126,4.0333,3.9394,3.8434,3.7157,3.5108,3.282,0.0,0.0,0.0,0.0,0.0,0.0,0.0,0.0,0.0,0.0,0.0,0.0,0.0,0.0,0.0,0.0,0.0,0.0,0.0,0.0,0.0,0.0,3.2875,3.3132,3.2776,3.2748,3.2748,3.2748,0.0,0.0,0.0,0.0,0.0,3.3807,3.3807,3.3458,3.2748,3.2656,3.3757,3.5991,3.6795,3.7197,3.7199,3.5741,3.5951,3.739,0.0,0.0,0.0,0.0,0.0,0.0,0.0,0.0,0.0,0.0,0.0,0.0,0.0,0.0,0.0,0.0,0.0,0.0,0.0,0.0,0.0,0.0,0.0,0.0,0.0,0.0,0.0,0.0,0.0,0.0,0.0,0.0,0.0,0.0,0.0,0.0,0.0,0.0,0.0,0.0,0.0,3.3807,3.3807,0.0,0.0,0.0,0.0,0.0,0.0,0.0,0.0,0.0,0.0,0.0,0.0,0.0,3.7875,3.9194,4.0197,4.0735,4.0864,4.1654,4.1358,4.0123,3.9968,3.9834,3.9672,3.9451,0.0,3.4841,3.4547,0.0,0.0,0.0,0.0,0.0,0.0,0.0,0.0,0.0,0.0,0.0,0.0,0.0,0.0,0.0,0.0,0.0,0.0,0.0,0.0,0.0,3.4065,3.4576,3.4679,3.5917,3.5917,3.4069,3.4835,0.0,0.0,0.0,3.3807,3.3807,3.3366,3.3183,3.3275,3.5128,3.6578,3.7679,3.8946,3.9332,3.8976,3.8167,3.7615,3.7298,3.7034,0.0,0.0,0.0,0.0,0.0,0.0,0.0,0.0,0.0,0.0,0.0,0.0,0.0,0.0,0.0,0.0,0.0,0.0,0.0,0.0,0.0,0.0,0.0,0.0,0.0,0.0,0.0,0.0,0.0,0.0,0.0,0.0,0.0,0.0,0.0,0.0,0.0,0.0,0.0,3.6303,3.6541,3.4692,3.7055,3.8377,0.0,0.0,0.0,0.0,0.0,0.0,0.0,0.0,0.0,3.7661,3.9313,4.0322,4.0579,4.2286,4.3113,4.3132,4.3938,4.3956,4.3259,4.3259,4.3259,4.324,4.28,4.1581,3.974,3.7608,3.662,3.6424,0.0,0.0,0.0,0.0,3.7822,3.8796,0.0,0.0,0.0,0.0,0.0,0.0,0.0,0.0,0.0,0.0,0.0,0.0,3.4345,3.5171,3.5952,3.6842,3.8374,3.8248,3.5793,3.6211,3.5807,3.4174,3.3917,3.3899,3.41,3.3752,3.4137,3.5349,3.7808,3.9441,4.0267,4.1462,4.1809,4.144,4.1591,4.0393,3.8202,3.7649,3.6971,3.6243,0.0,0.0,0.0,0.0,0.0,0.0,0.0,0.0,0.0,0.0,0.0,0.0,0.0,0.0,0.0,0.0,0.0,0.0,0.0,0.0,0.0,0.0,0.0,0.0,0.0,0.0,0.0,0.0,0.0,0.0,0.0,0.0,0.0,0.0,0.0,0.0,0.0,3.7257,3.7661,3.5004,3.7771,3.9496,0.0,0.0,0.0,0.0,0.0,0.0,3.8649,4.0063,4.0543,3.9955,4.1882,4.2928,4.293,4.4507,4.5517,4.5957,4.6324,4.6416,4.6214,4.6214,4.6085,4.5865,4.5278,4.4544,4.3552,4.0322,3.8414,3.75,3.7355,3.7683,3.8316,3.8925,3.9805,4.0754,0.0,0.0,0.0,0.0,0.0,0.0,0.0,0.0,0.0,0.0,0.0,3.176,3.457,3.5315,3.6404,3.842,3.7988,3.7547,3.7382,3.5238,3.4284,3.4912,3.4211,3.4174,3.4931,3.5716,3.7257,3.9588,3.9753,4.1405,4.4397,4.4471,4.4911,4.559,4.5608,4.4026,4.1236,3.9126,3.8709,3.932,3.7662,0.0,0.0,0.0,0.0,0.0,0.0,0.0,0.0,0.0,0.0,0.0,0.0,0.0,0.0,0.0,0.0,0.0,0.0,0.0,0.0,0.0,0.0,0.0,0.0,0.0,0.0,0.0,0.0,0.0,0.0,0.0,0.0,0.0,0.0,0.0,0.0,0.0,0.0,3.3972,3.7422,0.0,0.0,0.0,0.0,4.1937,4.126,4.115,4.2011,4.2855,4.3313,4.3258,4.4121,4.5645,4.7921,4.7296,4.7792,4.9335,4.8563,4.7792,4.7039,4.7039,4.6617,4.5902,4.5865,4.5388,4.4397,4.1167,4.0249,4.0666,3.8637,3.929,4.1157,3.937,3.9804,4.1083,0.0,0.0,0.0,0.0,0.0,0.0,0.0,0.0,3.087,3.1346,3.2334,3.3875,3.6202,3.8258,4.0088,4.1647,4.1992,4.1479,3.9918,3.7739,3.6762,3.7371,3.5811,3.5483,3.6578,3.7422,3.8524,3.99,4.1974,4.3589,4.4709,4.5755,4.6104,4.5957,4.6985,4.6305,4.4177,4.1332,3.9788,3.9133,3.6941,3.7043,0.0,0.0,0.0,0.0,0.0,0.0,0.0,0.0,0.0,0.0,0.0,0.0,0.0,0.0,0.0,0.0,0.0,0.0,0.0,0.0,0.0,0.0,0.0,0.0,0.0,0.0,0.0,0.0,0.0,0.0,0.0,0.0,0.0,0.0,0.0,0.0,0.0,3.9955,4.1791,0.0,4.2194,4.1717,4.2103,4.3718,4.3572,4.3994,4.5315,4.6673,4.7444,4.7444,4.7701,4.8508,4.9903,4.8563,4.8453,4.9592,4.8728,4.8159,4.7865,4.7865,4.7719,4.7425,4.6892,4.6232,4.5351,4.3681,4.2561,4.1769,4.07,4.0821,4.1586,4.1656,4.204,4.2628,0.0,0.0,0.0,0.0,0.0,0.0,0.0,0.0,3.0731,3.0828,3.2786,3.502,3.7179,3.9895,4.2056,4.3192,4.3469,4.2795,4.0916,3.8277,3.7128,3.7866,3.683,3.676,3.7881,3.9478,4.0708,4.1515,4.3938,4.5241,4.5517,4.6599,4.7113,4.7186,4.8251,4.8306,4.737,4.4672,4.2085,3.961,3.7747,3.8126,3.9583,0.0,0.0,0.0,0.0,0.0,0.0,0.0,0.0,0.0,0.0,0.0,0.0,0.0,0.0,0.0,0.0,0.0,0.0,0.0,0.0,0.0,0.0,0.0,0.0,0.0,0.0,0.0,0.0,0.0,0.0,0.0,0.0,0.0,0.0,0.0,4.2521,4.3816,4.5114,4.5718,4.5221,4.4454,4.4452,4.5566,4.5637,4.6335,4.7882,4.9036,4.9759,4.9994,4.9739,4.9996,5.0802,4.9426,4.9022,4.9592,4.9003,4.8581,4.8306,4.8306,4.8306,4.8269,4.7736,4.7039,4.625,4.5443,4.4488,4.344,4.2562,4.2245,4.2384,4.3526,4.3777,4.3662,0.0,0.0,0.0,0.0,0.0,0.0,0.0,3.0162,3.0541,3.0148,3.2413,3.4982,3.7363,4.003,4.1978,4.2864,4.1958,4.1067,4.0292,3.6561,3.496,3.6278,3.7129,3.7988,3.8872,4.1937,4.3938,4.4764,4.559,4.6379,4.7131,4.7131,4.8031,4.961,4.961,5.005,5.0692,4.9077,4.5645,4.1279,4.0322,4.0114,4.0268,0.0,0.0,0.0,0.0,0.0,0.0,0.0,0.0,0.0,0.0,0.0,0.0,0.0,0.0,0.0,0.0,0.0,0.0,0.0,0.0,0.0,0.0,0.0,0.0,0.0,0.0,0.0,0.0,0.0,0.0,0.0,0.0,0.0,3.9309,4.2034,4.4187,4.4928,4.6963,4.7758,4.6344,4.6935,4.7447,4.7579,4.7618,4.8229,4.9676,4.9735,5.0079,5.0817,5.0048,5.005,5.0875,5.005,4.9647,4.9665,4.9629,4.917,4.8343,4.8324,4.8306,4.8269,4.8306,4.7828,4.7003,4.6214,4.5883,4.57,4.4157,4.3551,4.3713,4.4811,4.473,4.4117,0.0,0.0,0.0,0.0,0.0,0.0,3.0002,2.9912,2.9885,3.008,3.3424,3.6287,3.7551,4.0633,4.2943,4.3767,4.1821,4.0791,4.139,3.6702,3.4827,3.6931,3.8441,4.0432,4.3002,4.392,4.5057,4.6434,4.726,4.7755,4.7957,4.7957,4.8545,4.961,4.961,5.005,5.0765,5.0306,4.9003,4.6874,4.2525,4.1158,4.1475,0.0,0.0,0.0,0.0,0.0,0.0,0.0,0.0,0.0,0.0,0.0,0.0,0.0,0.0,0.0,0.0,0.0,0.0,0.0,0.0,0.0,0.0,0.0,0.0,0.0,0.0,0.0,0.0,0.0,0.0,0.0,0.0,4.0449,4.1238,4.2846,4.4826,4.7352,4.8217,4.8657,4.8839,4.907,4.921,4.9248,4.9778,5.0287,5.0684,5.0702,5.1041,5.1729,5.0971,5.1188,5.2525,5.1169,5.0747,5.1336,5.0161,4.9482,4.9225,4.86,4.7994,4.7461,4.8048,4.7517,4.6214,4.5993,4.5571,4.5002,4.4544,4.4727,4.5277,4.5585,4.5716,4.5584,0.0,0.0,0.0,0.0,0.0,0.0,2.9415,2.9479,2.9523,2.9627,3.3722,3.6741,3.7036,3.9894,4.1719,4.1551,4.0235,3.9213,3.8707,3.6362,3.5754,3.7506,3.9718,4.2103,4.4636,4.5682,4.6856,4.8159,4.8948,4.9352,4.9352,4.9003,4.9462,5.0602,5.0233,5.0729,5.1793,5.1444,5.1022,5.0271,4.6269,4.4727,4.4507,4.1607,4.1404,4.2442,4.0811,4.107,4.1936,4.0658,0.0,0.0,0.0,0.0,0.0,0.0,0.0,0.0,0.0,0.0,0.0,0.0,0.0,0.0,0.0,0.0,0.0,0.0,0.0,0.0,0.0,0.0,0.0,0.0,4.1356,4.2962,4.3913,4.4904,4.6465,4.8943,4.951,4.9764,4.9934,4.9933,4.9843,4.9559,4.9959,5.0324,5.0608,5.0635,5.0955,5.1643,5.0916,5.104,5.2237,5.1307,5.107,5.1481,5.0896,5.0437,5.0068,4.9224,4.8581,0.0,4.8269,4.7774,4.6874,4.6544,4.6122,0.0,0.0,0.0,0.0,0.0,4.645,4.6975,0.0,0.0,0.0,0.0,0.0,0.0,2.8368,2.9037,2.9375,2.8863,3.3294,3.6258,3.5628,3.7962,3.9028,3.7753,3.7835,3.6974,3.4683,3.5901,3.7225,3.8358,4.0985,4.3277,4.5076,4.7297,4.8912,4.9867,5.049,5.0857,5.093,5.0033,5.0418,5.183,5.1114,5.1646,5.3023,5.2399,5.2142,5.1995,5.0583,4.937,4.8196,4.5865,4.5424,4.581,4.4124,4.3246,4.2715,4.1837,0.0,0.0,0.0,0.0,0.0,0.0,0.0,0.0,0.0,0.0,0.0,0.0,0.0,0.0,0.0,0.0,0.0,0.0,0.0,0.0,0.0,0.0,0.0,0.0,4.4107,4.5602,4.709,4.7735,4.8519,4.9752,5.0532,5.0749,5.0068,4.9999,4.9772,4.9182,4.912,4.9358,4.985,0.0,0.0,0.0,0.0,5.0261,5.1025,5.1048,5.1052,5.1077,5.1701,5.1628,5.0912,5.0086,4.9702,4.9555,4.8783,4.8398,4.8251,4.7424,4.7094,4.6966,4.5517,4.5021,4.5186,4.581,4.7003,4.8067,0.0,0.0,0.0,0.0,0.0,0.0,2.8093,2.9132,2.9392,2.7763,3.1681,3.3845,3.1832,3.4327,3.6118,3.6051,3.5903,3.6035,3.6581,3.6326,3.7578,4.0764,4.2427,4.4617,4.7553,4.8746,5.0088,5.1536,5.1041,5.1132,5.1738,5.029,5.0105,5.1041,5.0875,5.1334,5.2252,5.2766,5.2968,5.2949,5.2637,5.1242,4.9132,4.7333,4.6727,4.658,4.4426,4.4811,4.6114,4.4664,4.4502,4.4691,4.3519,4.1574,0.0,0.0,0.0,0.0,0.0,0.0,0.0,0.0,0.0,0.0,0.0,0.0,0.0,0.0,0.0,0.0,0.0,0.0,0.0,4.5568,4.7175,4.8663,5.0152,4.9938,4.9552,4.9216,4.9828,5.0233,5.0079,5.0096,5.0034,4.9912,4.9881,4.9673,4.9216,4.9182,4.9521,5.0185,5.0074,5.0594,5.1854,5.1878,5.2159,5.2747,0.0,0.0,5.1738,5.093,5.0196,4.9592,4.9427,4.8948,4.8251,4.7424,4.7094,4.7076,4.6764,4.7021,4.7553,4.7039,4.748,4.8067,0.0,0.0,0.0,0.0,0.0,0.0,2.8507,2.9073,2.9271,2.8511,3.1201,3.2814,3.1799,3.3265,3.4188,3.3969,3.3502,3.4432,3.7417,3.7753,3.9441,4.2996,4.4528,4.6452,4.8893,4.9774,5.0784,5.1995,5.1591,5.1811,5.2564,5.0949,5.0839,5.1995,5.1573,5.1848,5.2637,5.3041,5.3185,5.3185,5.3185,5.2491,5.1261,5.0031,4.9082,4.8247,4.7099,4.7012,4.7224,4.602,4.557,4.5241,4.3568,4.2208,4.0961,0.0,0.0,0.0,0.0,0.0,0.0,0.0,0.0,0.0,0.0,0.0,0.0,0.0,0.0,4.2893,0.0,0.0,4.6701,4.8206,4.9373,5.0371,5.1083,5.12,5.093,5.0202,5.0101,5.0236,5.0608,5.0659,5.0659,5.0659,5.0304,4.9932,4.956,4.9204,4.9152,4.9492,4.9492,5.0004,5.1042,5.1042,5.1419,5.2149,5.1734,5.1553,5.1517,5.1052,5.0641,5.0244,4.9803,4.9353,4.8838,4.7608,4.7333,4.7663,4.7259,4.759,4.8251,4.7846,4.7957,4.8196,0.0,0.0,0.0,0.0,0.0,0.0,0.0,2.8959,2.8997,2.9026,3.0768,3.1942,3.18,3.2444,3.2734,3.2327,3.1884,3.3515,3.8007,3.9043,4.1099,4.4783,4.6177,4.781,4.9794,5.0472,5.1187,5.1995,5.216,5.2472,5.2949,5.1646,5.172,5.2928,5.2147,5.2139,5.2761,5.2777,5.2872,5.2999,5.2999,5.2999,5.2926,5.2267,5.1235,5.0118,4.968,4.8497,4.7023,4.6383,4.549,4.4384,4.2685,4.2335,4.2163,4.0125,4.0583,0.0,0.0,0.0,0.0,0.0,0.0,0.0,0.0,0.0,4.2675,4.3267,4.4587,4.6003,4.7022,4.8426,4.9678,5.0405,5.1166,5.1657,5.1657,5.2029,5.208,5.1472,5.076,5.0608,5.1352,5.1269,5.1268,5.142,5.0727,5.0253,5.0101,4.9407,4.9001,4.9001,4.9001,4.9299,5.0004,5.016,5.0519,5.1086,5.1245,5.1245,5.1094,5.0981,5.0933,5.0885,5.0043,4.956,4.9305,4.7808,4.7571,4.8101,4.7443,4.7498,4.7957,4.821,4.8306,4.8306,0.0,0.0,0.0,0.0,0.0,0.0,0.0,0.0,2.852,2.7189,2.9281,3.0093,2.8056,2.973,3.1363,3.2215,3.2814,3.4923,3.915,3.8922,4.0774,4.5553,4.5938,4.7498,5.06,5.0747,5.1187,5.1995,5.2729,5.2747,5.2123,5.194,5.1958,5.2103,5.1351,5.1067,5.1171,5.1283,5.1685,5.2206,5.2206,5.2206,5.2206,5.2116,5.1979,5.1591,4.9674,4.7625,4.5795,4.5708,4.4692,4.3659,4.4571,4.3895,4.269,4.2295,4.0973,3.9702,4.0057,4.0104,4.0551,4.2679,4.2802,4.3223,0.0,0.0,4.7162,4.7246,4.846,4.9323,4.8849,4.9965,5.1217,5.1928,5.2723,5.3247,5.3247,5.2706,5.2266,5.2198,5.1539,5.1386,5.2114,5.1589,5.1488,5.2131,5.1505,5.0794,5.0118,4.9407,4.9001,4.9001,4.9001,4.9299,5.0004,5.0697,5.1078,5.1104,5.1768,5.1732,5.1112,5.1075,5.1091,5.1038,5.0211,4.9472,4.8737,4.7891,4.7589,4.766,4.7571,4.7145,4.6756,4.7879,4.8306,4.8306,0.0,0.0,0.0,0.0,0.0,0.0,0.0,0.0,0.0,2.8038,2.9017,2.9502,2.8953,3.015,3.117,3.1619,3.2344,3.4196,3.7556,3.8336,4.0518,4.4677,4.5655,4.7037,4.8933,4.9767,5.0383,5.0842,5.1119,5.1353,5.146,5.1011,5.1029,5.146,5.116,5.1019,5.103,5.1073,5.1507,5.2164,5.2164,5.2164,5.2057,5.1198,5.0073,4.8837,4.7949,4.6196,0.0,4.3827,4.3527,4.3451,4.401,4.3385,4.2364,4.2294,4.1572,4.0884,4.1255,4.2166,4.308,0.0,4.4823,4.6616,4.8189,4.9221,4.9917,5.0388,5.1319,5.1978,5.1674,5.2131,5.2655,0.0,5.3281,5.3501,5.3501,5.2807,5.2147,5.1725,5.1014,5.1014,5.2181,5.2029,5.2164,5.2942,5.2283,5.1522,5.0777,5.0033,4.9441,4.9018,4.9001,4.9342,5.0051,5.0376,5.054,5.0505,5.0833,5.0592,4.9896,5.0269,5.0443,5.0388,5.0044,4.9442,4.8675,4.8357,4.8258,4.8204,4.7762,4.7373,4.721,4.8092,4.8136,4.7818,0.0,0.0,0.0,0.0,0.0,0.0,0.0,0.0,0.0,0.0,2.8612,2.9025,3.0006,3.0581,3.0903,3.0903,3.1582,3.3017,3.5424,3.7203,3.9668,4.3054,4.461,4.6096,4.7671,4.8835,4.9514,4.9685,5.0059,5.0299,5.0449,5.0299,5.0529,5.1086,5.0876,5.0796,5.077,5.0599,5.0942,5.1587,5.1587,5.1368,5.084,4.9581,4.7473,4.5208,4.5398,4.3915,4.1786,4.1271,4.1305,4.166,4.2066,4.1887,4.1574,4.1678,4.1672,4.1719,4.212,4.3494,0.0,4.4682,4.7005,4.9475,5.0101,5.1386,5.2536,5.2875,5.3568,5.3991,5.3568,5.3501,5.3501,5.3501,5.3501,5.3501,5.3501,5.2807,5.1944,5.1014,5.0253,5.0219,5.1285,5.1572,5.2097,5.3095,5.2452,5.186,5.1539,5.0608,4.9847,4.9323,4.912,4.9255,4.9779,4.9982,5.0084,5.0084,5.0084,4.9813,4.932,4.9607,4.9699,4.9641,4.9641,4.9326,4.8775,4.8566,4.8478,4.8426,4.7893,4.7421,4.7173,4.7985,4.79,4.7488,0.0,0.0,0.0,0.0,0.0,0.0,0.0,0.0,0.0,0.0,0.0,0.0,0.0,3.0125,3.0123,3.0123,3.0818,3.1822,3.3204,3.5362,3.7869,4.0786,4.2307,4.4533,4.7629,4.8444,4.8834,4.8845,5.0325,5.0307,4.8898,5.036,5.1068,5.106,5.0335,5.0016,5.0004,4.9346,4.9449,5.0067,5.0067,4.9212,4.7862,4.709,4.4543,4.1452,4.2175,4.0552,3.8075,3.8041,3.7567,3.7252,3.8667,3.9597,4.0289,4.0877,4.0978,4.1132,4.2065,4.2871,4.4147,4.7056,4.8934,5.0642,5.2858,5.4515,5.5378,5.4668,5.5124,5.5209,5.3771,5.3501,5.3501,5.3501,5.3501,5.3501,5.3501,5.2807,5.1758,5.0304,4.9475,4.9052,0.0,4.9746,5.076,5.2232,5.1657,5.1555,5.2232,5.0879,5.0084,5.005,4.9373,4.9018,4.9035,4.9729,5.0084,5.0084,5.0084,5.0084,5.0033,4.9354,4.9046,4.9029,4.9029,4.9012,4.8944,4.8233,4.7928,4.7928,4.7911,4.7031,4.5914,4.7258,4.7587,4.7488,0.0,0.0,0.0,0.0,0.0,0.0,0.0,0.0,0.0,0.0,0.0,0.0,0.0,0.0,0.0,0.0,2.9602,3.0561,3.2476,3.3755,3.5754,3.8734,4.0669,4.2201,4.3373,4.503,4.5648,4.5214,4.6274,4.6773,4.6735,4.7279,4.8053,4.8988,4.8714,4.8886,4.9282,4.8551,4.868,4.9244,4.8255,4.7585,4.6885,4.4643,4.2405,4.0316,0.0,3.8006,3.7077,3.6546,3.6569,3.6897,3.7388,3.7702,3.8055,3.8727,3.9843,4.0994,4.1818,4.3834,4.6271,4.8531,5.0921,5.3209,5.5238,5.6072,5.6089,5.4837,5.3602,5.2283,5.0794,5.0507,5.0676,5.115,5.2063,5.2892,5.3433,5.2807,5.1758,5.027,4.9864,0.0,0.0,0.0,0.0,5.1471,5.1792,5.1826,5.1589,5.1572,5.1336,5.0862,5.0591,5.0693,5.1183,5.1437,5.1555,5.1555,5.0557,5.0084,5.0067,4.934,4.9001,4.9001,4.9001,4.9001,4.8984,4.8731,4.8646,4.8595,4.8075,4.731,4.6467,4.6842,4.6603,4.6281,0.0,0.0,0.0,0.0,0.0,0.0,0.0,0.0,0.0,0.0,0.0,0.0,0.0,0.0,0.0,0.0,0.0,2.9161,3.0598,3.1901,3.3592,3.5808,3.794,3.9367,4.0003,4.1637,4.227,4.1847,4.2591,4.3217,4.3724,4.4248,4.5128,4.63,4.6599,4.6989,4.7378,4.6633,4.6413,4.6498,4.528,4.4316,4.3396,4.1325,3.9549,0.0,3.6678,3.5953,3.5588,3.5583,3.5943,3.6417,3.6711,3.7168,3.7794,3.8785,4.0257,4.189,4.341,4.5719,4.8142,5.014,5.2227,5.4229,5.5833,5.597,5.5341,5.372,5.2012,5.0287,4.8528,4.8003,4.8156,4.9154,5.0118,5.1183,5.2503,5.2249,5.1572,5.0608,5.0253,4.9729,0.0,0.0,0.0,5.0727,5.1742,5.2097,5.164,5.2046,5.208,5.1623,5.1352,5.1437,5.1911,5.1911,5.1911,5.1911,5.12,5.0608,5.0067,4.961,4.9255,4.9001,4.9001,4.9001,4.9001,4.9001,4.9001,4.8951,4.8494,4.7682,4.6811,4.701,4.6251,4.5399,0.0,0.0,0.0,0.0,0.0,0.0,0.0,0.0,0.0,0.0,0.0,0.0,0.0,0.0,0.0,0.0,0.0,0.0,2.7807,2.9871,3.143,3.2209,3.4336,3.6174,3.7702,3.8447,3.8819,3.8819,3.9512,3.9842,3.9919,4.1278,4.2368,4.3162,4.3933,4.4316,4.4327,4.3521,4.2794,4.2117,4.1339,3.98,3.7919,3.7543,3.6216,3.4605,3.5046,3.4422,3.3643,3.5143,3.5701,3.5904,3.6681,3.7891,3.9344,4.0839,4.209,4.3631,4.6518,4.8156,4.9605,5.1789,5.289,5.3712,5.4776,5.4404,5.3261,5.1394,5.0321,4.9035,0.0,0.0,4.6024,4.7534,4.7906,4.8785,5.0999,5.1303,5.1286,0.0,0.0,0.0,0.0,0.0,0.0,5.0101,0.0,5.2266,5.23,5.2334,5.2367,5.2367,5.1691,5.1303,5.1303,5.1303,5.1303,5.1352,5.1995,5.1555,5.0152,5.0101,4.9695,4.9001,4.9001,4.9001,4.9001,4.8968,4.8951,4.8951,4.8951,4.8037,4.6819,4.7581,4.6464,4.4869,0.0,0.0,0.0,0.0,0.0,0.0,0.0,0.0,0.0,0.0,0.0,0.0,0.0,0.0,0.0,0.0,0.0,0.0,2.7773,2.8907,3.0144,3.141,3.3068,3.4404,3.5351,3.6096,3.6485,3.6485,3.6198,3.6396,3.6962,3.6889,3.7798,3.9461,3.9661,4.0299,4.1213,4.0426,4.0324,4.0553,3.9259,3.8734,3.8638,3.7777,3.6585,3.5316,3.5277,3.4463,3.3728,3.5791,3.7212,3.8147,3.8319,3.8931,3.9974,4.1956,4.3234,4.4539,4.6809,4.8646,5.0354,5.2284,5.2516,5.266,5.3983,5.2478,5.0416,4.902,4.638,4.3775,0.0,0.0,0.0,4.5923,4.8105,0.0,5.2604,5.2926,0.0,5.2097,0.0,5.1522,5.098,5.1251,0.0,0.0,5.1285,5.1725,5.2266,5.2875,5.3196,5.3196,5.301,5.2926,5.2926,5.2926,5.2926,5.2926,5.2503,5.1826,5.0913,5.0338,4.9695,4.9001,4.9001,4.9001,4.8968,4.8426,4.8189,4.8189,4.8189,4.7293,4.6075,4.6802,4.6024,4.472,0.0,0.0,0.0,0.0,0.0,0.0,0.0,0.0,0.0,0.0,0.0,0.0,0.0,0.0,0.0,0.0,0.0,0.0,0.0,2.8366,2.9365,3.0211,3.1647,3.2476,3.256,3.2963,3.3034,3.2713,3.2349,3.2605,3.3356,3.366,3.4618,3.6074,3.6709,3.7414,3.8091,3.7686,3.755,0.0,0.0,3.6468,3.6525,3.6367,3.5632,3.4711,3.5332,3.5697,3.605,3.7299,3.8638,3.9877,4.0362,4.1182,4.2428,4.4864,4.6092,4.7037,4.9147,5.0621,5.167,5.2383,5.1864,5.1182,5.1302,4.9377,4.7075,4.5312,4.3031,4.0882,3.9428,4.0087,0.0,0.0,0.0,0.0,5.2097,5.3078,5.345,0.0,5.3315,0.0,5.2739,5.2452,5.2283,0.0,5.2215,5.2249,5.23,5.3061,5.3501,5.3501,5.3501,5.3501,5.3501,5.3501,5.3501,5.3501,5.3044,5.2418,5.1674,5.093,5.0185,4.9458,0.0,4.9001,4.8968,4.8562,4.8176,4.7889,4.7889,4.6993,4.5788,4.6532,4.5855,4.4688,0.0,0.0,0.0,0.0,0.0,0.0,0.0,0.0,0.0,0.0,0.0,0.0,0.0,0.0,0.0,0.0,0.0,0.0,0.0,0.0,2.8942,2.9145,3.0362,3.0801,3.026,3.026,2.9922,2.9297,2.9105,2.9355,3.001,3.1217,3.2143,3.2896,3.4295,3.4925,3.5008,3.5008,3.4776,3.4336,3.4336,3.4083,3.3782,0.0,3.4415,3.3718,3.5089,3.6851,3.8619,3.904,4.0151,4.1578,4.2843,4.4091,4.5645,4.8439,4.9464,5.0103,5.2242,5.3046,5.3129,5.2381,5.1158,4.9683,4.7995,4.5953,4.3734,4.1399,4.0257,3.9234,3.7855,3.8362,4.0003,4.3064,0.0,4.7293,5.0997,5.2756,5.3873,5.4515,5.4685,5.4735,5.4735,5.3534,5.3044,5.3737,5.3704,5.3298,5.2503,5.3129,5.3501,5.3501,5.3501,5.3501,5.3501,5.3501,5.3501,5.3501,5.3501,5.3078,5.2283,5.1555,5.0811,5.005,0.0,0.0,4.9001,4.89,4.8494,4.7872,4.777,4.6921,4.5788,4.6413,4.5771,4.4699,0.0,0.0,0.0,0.0,0.0,0.0,0.0,0.0,0.0,0.0,2.708,2.6691,0.0,0.0,0.0,0.0,0.0,0.0,0.0,0.0,0.0,2.9854,3.0159,3.0531,3.1004,3.1004,3.0954,3.0821,2.9699,2.9231,2.9343,2.9105,2.9326,2.998,3.0841,3.1508,3.1952,3.1952,3.2594,3.3592,3.3592,3.4252,3.5282,3.5894,0.0,0.0,3.3938,3.4844,3.6632,3.9567,4.2245,4.4592,4.6028,4.6786,4.7648,5.039,5.1054,5.1358,5.3372,5.3995,5.3743,5.2516,5.094,4.9061,4.6713,4.4214,0.0,0.0,3.8294,3.7077,3.6157,3.7652,4.0172,4.3792,4.616,4.8849,5.257,5.3856,5.4448,0.0,0.0,0.0,0.0,0.0,0.0,0.0,0.0,5.4076,5.3331,5.3433,5.3501,5.3501,5.3501,5.3501,5.3501,5.3501,5.3501,5.3501,5.3501,5.3078,5.2283,5.1555,5.0811,5.005,4.9323,0.0,4.8951,4.8359,4.8007,4.7821,4.7225,4.6464,4.572,4.5838,4.5331,4.4632,0.0,0.0,0.0,0.0,0.0,0.0,0.0,2.7283,2.7689,2.8838,2.8704,2.8163,2.7368,2.6928,2.6691,0.0,0.0,0.0,0.0,0.0,0.0,0.0,2.9905,3.0277,3.0615,3.0632,3.0446,3.0059,0.0,2.909,2.9106,2.9198,2.94,2.9708,3.0443,3.1137,3.1802,3.2171,3.2966,3.4015,3.4404,3.4957,3.565,0.0,0.0,0.0,3.4762,3.5774,3.7749,4.0227,4.2848,4.5456,4.7448,4.8749,5.0012,5.2213,5.2701,5.2992,5.5112,5.5217,5.4311,5.2621,5.0576,4.813,4.4843,0.0,0.0,3.7646,3.6671,3.6062,3.5667,3.7161,0.0,4.2337,4.4045,4.6566,5.1082,5.2367,0.0,0.0,0.0,0.0,0.0,0.0,0.0,0.0,0.0,5.4448,5.4093,5.3704,5.3501,5.3501,5.3501,5.3501,5.3501,5.3501,5.3501,5.3501,5.3501,5.3298,5.2892,5.1742,5.1014,5.0608,4.9492,0.0,4.8984,4.8629,4.8257,4.7821,4.709,4.6346,4.5652,4.5263,4.4919,4.4615,0.0,0.0,0.0,0.0,0.0,0.0,0.0,2.7705,2.8348,2.9886,2.9973,2.9414,2.8179,2.7537,2.7063,0.0,0.0,0.0,0.0,0.0,0.0,0.0,0.0,0.0,0.0,0.0,0.0,0.0,2.9247,0.0,0.0,0.0,0.0,0.0,3.0869,3.1512,3.2107,3.2848,3.3592,0.0,0.0,3.5447,0.0,0.0,0.0,0.0,0.0,3.6755,3.8548,4.0358,4.2323,4.4441,4.6829,4.9212,5.1471,5.3122,5.3794,5.4467,5.6587,5.6298,5.488,5.274,5.033,4.7377,4.3214,4.046,0.0,3.6036,3.56,3.56,3.56,3.6738,3.8447,0.0,4.1813,4.4113,4.9357,5.0879,5.252,0.0,0.0,0.0,0.0,0.0,0.0,0.0,0.0,0.0,5.438,5.3805,5.3501,5.3501,5.3501,5.3501,5.3501,5.3501,5.3501,5.3501,5.3501,5.3501,5.345,5.208,5.1454,5.1369,4.9881,0.0,0.0,4.9069,4.8663,4.8071,4.7327,4.6583,4.5855,4.5094,4.475,4.4615,0.0,0.0,0.0,0.0,0.0,0.0,0.0,2.7367,2.8348,2.9886,2.9516,2.9044,2.8908,2.884,2.8231,0.0,0.0,0.0,0.0,0.0,0.0,0.0,0.0,0.0,0.0,0.0,0.0,0.0,0.0,0.0,0.0,0.0,0.0,0.0,0.0,0.0,3.1343,3.209,0.0,0.0,0.0,0.0,0.0,0.0,0.0,0.0,0.0,3.5735,3.6343,3.9249,4.0341,4.0915,4.2895,4.6601,5.0476,5.1873,0.0,0.0,5.7172,5.6933,5.5463,5.2845,5.0429,4.7416,4.2679,0.0,3.8316,3.6073,3.56,3.56,3.56,3.6315,3.7821,4.073,4.1813,4.4113,4.9357,5.1352,5.3129,0.0,0.0,0.0,0.0,0.0,0.0,0.0,0.0,0.0,5.367,5.3551,5.3501,5.3501,5.3501,5.3501,5.3501,5.3501,5.3501,5.3501,5.3501,5.3501,5.3467,5.2604,5.2198,5.2131,5.0625,0.0,0.0,4.9272,4.8968,4.8832,4.8075,4.7361,4.6599,4.5872,4.5179,4.4615,0.0,0.0,0.0,0.0,0.0,0.0,2.7283,2.7604,2.8517,3.0497,3.0497,3.0161,2.9702,2.9651,2.8856,2.686,0.0,0.0,0.0,0.0,0.0,0.0,0.0,0.0,0.0,0.0,0.0,3.0108,0.0,0.0,0.0,0.0,0.0,0.0,0.0,0.0,0.0,0.0,0.0,0.0,0.0,0.0,0.0,0.0,0.0,0.0,0.0,0.0,3.6502,3.7709,3.8708,3.9496,3.9845,4.2443,4.6108,4.9619,5.1526,5.3118,5.6185,5.6296,5.494,5.2276,4.9812,4.6876,4.2489,0.0,3.7821,3.5971,3.56,3.56,3.56,3.5853,3.6772,3.887,3.9089,4.0646,4.5399,4.6599,4.8832,0.0,0.0,0.0,0.0,0.0,0.0,0.0,0.0,0.0,5.3585,5.3501,5.3501,5.3501,5.3501,5.3501,5.3501,5.3501,5.3501,5.3501,5.3501,5.3501,5.3467,5.2672,5.2063,5.1589,5.0541,0.0,0.0,4.912,4.9001,4.8934,4.8176,4.7462,4.6701,4.5974,4.5229,4.4615,0.0,0.0,0.0,0.0,0.0,2.6877,2.7384,2.7655,2.8449,3.0294,3.0548,3.0345,2.9837,2.9548,2.8808,2.7334,2.6894,0.0,0.0,0.0,0.0,0.0,0.0,0.0,0.0,0.0,3.0615,3.0108,3.0835,0.0,0.0,0.0,0.0,0.0,0.0,0.0,0.0,0.0,0.0,0.0,0.0,0.0,0.0,0.0,0.0,0.0,0.0,0.0,0.0,0.0,0.0,3.8244,3.7736,3.8988,4.1623,4.6417,4.9124,5.1236,5.4475,5.5131,5.4396,5.2078,4.9328,4.6191,0.0,0.0,3.7466,3.5921,3.5785,3.5893,3.5633,3.56,3.6022,3.7364,3.7313,3.8514,4.2523,4.3673,0.0,0.0,0.0,0.0,0.0,0.0,0.0,0.0,0.0,0.0,0.0,5.3737,5.3501,5.3501,5.3501,5.3501,5.3501,5.3501,5.3501,5.3501,5.3501,5.3501,5.3467,5.2672,5.2029,5.1488,0.0,0.0,0.0,4.9086,4.9001,4.8951,4.8443,4.7784,4.7056,4.6549,4.5872,4.5224,0.0,0.0,0.0,0.0,0.0,0.0,2.6708,2.7317,2.8094,2.8925,2.9027,2.9027,2.901,2.8298,2.7981,2.8349,2.7349,0.0,0.0,0.0,0.0,0.0,0.0,0.0,0.0,0.0,3.0125,3.0108,3.0835,3.119,3.119,3.119,0.0,0.0,0.0,0.0,0.0,0.0,0.0,0.0,0.0,0.0,0.0,0.0,0.0,0.0,0.0,0.0,0.0,0.0,0.0,0.0,0.0,3.6829,3.7743,4.2158,4.63,4.9889,5.2048,5.3446,5.3993,5.2561,4.913,4.5359,4.2545,3.9814,3.7466,3.5921,3.6231,3.6535,3.5735,3.56,3.5876,3.6694,3.7415,3.892,4.188,4.4248,0.0,0.0,0.0,0.0,0.0,0.0,0.0,0.0,0.0,0.0,0.0,5.4296,5.3501,5.3501,5.3501,5.3501,5.3501,5.3501,5.3501,5.3501,5.3501,5.3501,5.3467,5.2672,5.23,0.0,0.0,0.0,0.0,4.9306,4.9001,4.9001,4.9001,4.8545,4.7872,4.7872,4.7411,4.6667,0.0,0.0,0.0,0.0,0.0,0.0,0.0,2.6471,2.6742,2.801,2.8197,2.8383,2.8942,2.8527,2.8473,2.9157,2.7936,0.0,0.0,0.0,0.0,0.0,0.0,0.0,0.0,0.0,3.0108,3.0108,3.1326,3.1701,3.1227,3.2036,3.2844,3.3589,0.0,0.0,0.0,0.0,0.0,0.0,0.0,0.0,0.0,0.0,0.0,0.0,0.0,0.0,0.0,0.0,0.0,0.0,0.0,0.0,0.0,3.9089,4.1754,4.456,4.6795,4.7814,4.7893,4.6539,4.4597,4.2441,4.0152,3.8351,3.684,3.5802,3.5785,3.591,3.565,3.56,3.6022,3.7347,3.7753,3.8751,0.0,0.0,0.0,0.0,0.0,0.0,0.0,0.0,0.0,0.0,0.0,0.0,0.0,5.4025,5.3501,5.3501,5.3501,5.3501,5.3501,5.3501,5.3501,5.3501,5.3501,5.3501,5.3467,5.2672,0.0,0.0,0.0,0.0,0.0,4.9103,4.9001,4.9001,4.9001,4.8562,4.7889,4.7889,4.7445,4.6684,0.0,0.0,0.0,0.0,0.0,0.0,0.0,2.6302,2.6353,2.7249,2.7384,2.7741,2.8663,2.856,2.8871,2.9957,2.9193,0.0,0.0,0.0,0.0,0.0,0.0,0.0,2.9651,2.9685,3.0091,3.092,3.1853,3.2056,3.1633,3.2586,3.3263,3.3769,3.4181,3.5261,0.0,0.0,0.0,0.0,0.0,0.0,4.0087,0.0,0.0,0.0,0.0,0.0,0.0,0.0,0.0,0.0,0.0,0.0,0.0,0.0,3.812,4.0034,4.3142,4.4524,4.4819,4.3686,4.2204,0.0,3.9102,3.7752,3.6552,3.5752,3.5836,3.596,3.565,3.56,3.5904,3.6867,3.751,3.8582,0.0,0.0,0.0,0.0,0.0,0.0,0.0,0.0,0.0,0.0,0.0,0.0,0.0,5.4059,5.3501,5.3501,5.3501,5.3501,5.3501,5.3501,5.3501,5.3501,5.3501,5.3348,5.3027,5.2249,0.0,0.0,0.0,0.0,0.0,4.9001,4.9001,4.9001,4.9001,4.8731,4.8342,4.8342,4.802,4.7479,0.0,0.0,0.0,0.0,0.0,0.0,0.0,2.6674,2.6674,2.6741,2.6741,2.7163,2.8242,2.8476,2.9154,3.0668,0.0,0.0,0.0,0.0,0.0,0.0,0.0,0.0,2.9145,2.9044,3.0059,3.2226,3.2327,3.2344,3.2313,3.2876,3.316,3.3147,3.3688,3.4712,3.6093,0.0,0.0,0.0,0.0,0.0,0.0,0.0,0.0,0.0,0.0,0.0,0.0,0.0,0.0,0.0,0.0,0.0,0.0,0.0,0.0,0.0,0.0,4.2922,4.3775,4.3047,4.1305,3.9605,3.8903,3.7686,0.0,3.5752,3.6197,3.6485,3.5802,3.5633,3.565,3.5819,3.7043,3.8531,0.0,0.0,0.0,0.0,0.0,0.0,0.0,0.0,0.0,0.0,0.0,0.0,0.0,5.4279,5.3501,5.3501,5.3501,5.3501,5.3501,5.3501,5.3501,5.3501,5.345,5.3027,5.2283,5.1488,0.0,0.0,0.0,0.0,0.0,4.9001,4.9001,4.9001,4.9001,4.8968,4.8934,4.8984,4.8968,4.8731,0.0,0.0,0.0,0.0,0.0,0.0,0.0,0.0,0.0,0.0,2.7162,2.7388,2.7956,2.8591,2.9485,0.0,0.0,0.0,0.0,0.0,0.0,0.0,0.0,0.0,3.0651,2.9585,2.9805,3.1464,3.2594,3.2848,3.233,3.394,3.4563,3.4411,3.5523,3.6534,3.7468,3.8094,0.0,0.0,0.0,0.0,0.0,0.0,0.0,0.0,3.8275,3.7719,0.0,0.0,0.0,0.0,0.0,0.0,0.0,0.0,3.6924,3.7483,3.7956,0.0,3.7662,3.7476,3.7036,3.662,0.0,3.6124,3.5842,3.5633,3.5752,3.6011,3.6434,3.6011,3.6157,3.7922,3.8514,3.9648,0.0,0.0,0.0,0.0,0.0,0.0,0.0,0.0,0.0,0.0,0.0,0.0,0.0,5.3991,5.3501,5.3501,5.3501,5.3501,5.3501,5.3501,5.3501,5.3501,5.2892,5.2486,5.2266,5.0947,0.0,0.0,0.0,0.0,4.9001,4.9001,4.9001,4.9001,4.9001,4.8663,4.824,4.8798,4.8646,4.8122,0.0,0.0,0.0,0.0,0.0,0.0,0.0,0.0,0.0,0.0,0.0,2.7378,2.7589,2.8511,0.0,0.0,0.0,0.0,0.0,0.0,0.0,0.0,0.0,2.9688,3.0666,2.9905,3.0395,3.2205,3.3017,3.3372,3.3343,3.4607,3.4863,3.4323,3.5836,3.683,3.7405,3.8319,3.8163,0.0,3.8187,0.0,0.0,0.0,0.0,0.0,3.7823,3.7195,0.0,3.706,3.6789,3.6231,0.0,0.0,0.0,0.0,3.6789,3.7229,3.6451,3.6197,3.6146,3.6146,3.6146,3.6146,3.6146,3.5876,3.56,3.56,3.56,3.5859,3.666,3.6434,3.6772,3.8684,3.9227,0.0,0.0,0.0,0.0,0.0,0.0,0.0,0.0,0.0,0.0,0.0,0.0,0.0,0.0,5.3907,5.3501,5.3501,5.3145,5.2959,5.2959,5.2959,5.279,5.2452,5.2012,5.1623,5.1251,5.0456,4.9915,0.0,0.0,0.0,4.9001,4.9001,4.8798,4.8545,4.8883,4.8342,4.7479,4.824,4.8227,4.7838,0.0,0.0,0.0,0.0,0.0,0.0,0.0,0.0,0.0,0.0,0.0,0.0,0.0,0.0,0.0,0.0,0.0,0.0,0.0,0.0,0.0,0.0,3.0644,3.0268,3.0429,3.0328,3.1309,3.3406,3.3643,3.4066,3.468,3.5193,3.4905,3.4005,3.5599,3.6377,3.6612,3.7953,3.8041,3.7314,3.7829,0.0,0.0,0.0,0.0,0.0,0.0,0.0,0.0,3.7127,3.7127,3.6626,3.6626,0.0,0.0,0.0,0.0,0.0,3.6011,3.6518,3.7178,3.6595,3.6555,3.6605,3.6487,3.5942,3.547,3.5577,3.5701,3.6045,3.6829,3.6956,0.0,0.0,0.0,0.0,0.0,0.0,0.0,0.0,0.0,0.0,0.0,0.0,0.0,0.0,0.0,0.0,0.0,5.3839,5.345,5.3331,5.2655,5.2198,5.1961,5.208,5.1826,5.1185,5.1099,5.071,5.0084,4.9965,4.9593,0.0,0.0,0.0,4.8832,4.8832,4.8409,4.777,4.8426,4.7834,4.6718,4.7462,4.7682,4.7479,0.0,0.0,0.0,0.0,0.0,0.0,0.0,0.0,0.0,0.0,0.0,0.0,0.0,0.0,0.0,0.0,0.0,0.0,0.0,0.0,0.0,3.1759,3.101,3.1033,3.1938,3.1343,3.1816,3.3406,3.4636,3.5312,3.5447,3.6203,3.619,3.5561,3.6074,3.6082,3.5764,3.7128,3.7091,3.6283,3.7932,0.0,0.0,0.0,0.0,0.0,0.0,0.0,0.0,3.587,3.587,3.5769,3.5769,0.0,0.0,0.0,0.0,0.0,3.6829,3.8082,3.8839,3.5716,3.5405,3.5703,3.5074,3.4842,3.4918,3.5492,3.6146,3.684,3.7601,3.7645,3.8489,0.0,0.0,0.0,0.0,0.0,0.0,0.0,0.0,0.0,0.0,0.0,0.0,0.0,0.0,0.0,0.0,5.3568,5.3196,5.252,5.2367,5.1708,5.0439,5.1065,5.1319,5.1185,5.0574,5.0202,5.0067,4.9458,4.912,0.0,0.0,4.8663,4.8058,4.8058,4.7631,4.6972,4.709,4.6616,4.5957,4.6701,4.6566,4.6024,0.0,0.0,0.0,0.0,0.0,0.0,0.0,0.0,0.0,0.0,0.0,0.0,0.0,0.0,0.0,0.0,0.0,0.0,0.0,0.0,3.1342,3.2414,3.1878,3.1801,3.2276,3.2357,3.3119,3.4585,3.5707,3.6248,3.6231,3.562,3.4993,3.4368,3.4999,3.5139,3.5004,3.676,3.7051,3.6451,0.0,0.0,0.0,0.0,0.0,0.0,0.0,0.0,0.0,0.0,3.6248,3.618,3.5735,0.0,0.0,0.0,0.0,0.0,3.6468,3.7195,3.792,3.6191,3.6949,3.7686,3.6094,3.5428,3.523,3.5527,3.5882,3.6481,0.0,0.0,4.0092,4.4262,0.0,0.0,0.0,0.0,0.0,0.0,0.0,0.0,0.0,0.0,0.0,0.0,0.0,0.0,0.0,0.0,5.2503,5.1742,5.1319,5.0777,5.0101,5.005,5.0016,5.0016,4.9678,4.9509,4.9492,4.9154,4.9001,4.9001,0.0,4.8595,4.7889,4.7889,4.7242,4.6244,4.6633,4.6109,4.5179,4.5923,4.5991,4.5703,0.0,0.0,0.0,0.0,0.0,0.0,0.0,0.0,0.0,0.0,0.0,0.0,0.0,0.0,0.0,0.0,0.0,0.0,0.0,3.0407,3.0525,3.2247,3.2307,3.2462,3.2818,3.3541,3.4551,3.5893,3.6671,3.688,3.6491,3.5225,3.4056,3.304,3.3873,3.4189,3.4259,3.6213,3.689,3.6689,0.0,0.0,0.0,0.0,0.0,0.0,0.0,0.0,0.0,0.0,0.0,0.0,0.0,0.0,0.0,3.5988,3.6586,3.7381,3.6214,3.6477,3.7038,3.682,3.8055,3.9057,3.8007,3.721,3.6752,3.7046,3.7422,3.7797,0.0,3.9753,0.0,4.6163,0.0,0.0,0.0,0.0,0.0,0.0,0.0,0.0,0.0,0.0,0.0,0.0,0.0,0.0,0.0,0.0,5.1708,5.098,5.0388,4.9999,4.983,4.9272,4.8917,4.8748,4.8917,4.8917,4.8748,4.8934,4.9001,4.8984,4.8832,4.8325,4.7648,4.7479,4.6633,4.55,4.6058,4.5585,4.4682,4.5229,4.5449,4.5449,0.0,0.0,0.0,0.0,0.0,0.0,0.0,0.0,0.0,0.0,0.0,0.0,0.0,0.0,0.0,0.0,0.0,0.0,0.0,3.0299,3.0523,3.0319,3.1582,3.2936,3.4303,3.5042,3.5859,3.6711,3.7449,3.7094,3.569,3.6053,3.5079,3.3022,3.353,3.3593,3.3379,3.5049,3.5975,3.6461,3.8019,0.0,0.0,0.0,0.0,0.0,0.0,0.0,0.0,0.0,0.0,0.0,0.0,0.0,3.6711,3.5836,3.6214,3.6863,3.6745,3.7292,3.772,3.6915,3.6865,3.7734,4.0359,4.0408,4.0193,4.132,4.2848,4.3077,0.0,4.272,4.5337,0.0,0.0,0.0,0.0,0.0,0.0,0.0,0.0,0.0,0.0,0.0,0.0,0.0,0.0,0.0,0.0,0.0,0.0,5.0202,5.0118,4.9763,4.9086,4.9035,4.8663,4.7973,4.868,4.8646,4.799,4.8697,4.9001,4.8968,4.8261,4.7564,4.6819,4.6143,4.5382,4.4682,4.475,4.4699,4.4615,4.4666,4.4682,4.4682,0.0,0.0,0.0,0.0,0.0,0.0,0.0,0.0,0.0,0.0,0.0,0.0,0.0,0.0,0.0,0.0,0.0,0.0,0.0,3.0295,3.0672,3.143,3.2005,3.2784,3.3795,3.547,3.6721,3.7483,3.7297,3.6654,3.5583,3.5334,3.4264,3.2596,3.306,3.3195,3.316,3.4532,3.5653,3.6658,3.7764,3.82,0.0,0.0,0.0,0.0,0.0,0.0,0.0,0.0,3.6349,3.6265,3.5752,3.6146,3.6643,3.5836,3.6163,3.6694,3.618,3.6979,3.7986,3.8112,3.8125,3.8514,4.0147,4.0151,4.0118,4.1151,4.2526,4.3168,0.0,0.0,4.5865,0.0,0.0,0.0,0.0,0.0,0.0,0.0,0.0,0.0,0.0,0.0,0.0,0.0,0.0,0.0,0.0,0.0,0.0,4.8781,4.8731,4.8612,4.8342,4.7868,4.7259,4.6566,4.772,4.7936,4.7225,4.7496,4.7631,4.7614,4.7344,4.6802,4.6092,4.5821,4.5263,4.4615,4.4615,4.4615,4.4615,4.4615,4.4615,4.4615,0.0,0.0,0.0,0.0,0.0,0.0,0.0,0.0,0.0,0.0,0.0,0.0,0.0,0.0,0.0,0.0,0.0,0.0,2.9694,2.9971,3.0548,3.1546,3.2056,3.2666,3.3389,3.5385,3.6671,3.7155,3.6907,3.6265,3.525,3.4742,3.3969,3.3008,3.3097,3.3333,3.3731,3.4351,3.5332,3.6503,3.7057,3.7451,0.0,0.0,0.0,0.0,0.0,0.0,0.0,0.0,3.6417,3.6315,3.5769,3.5994,3.6315,3.5752,3.5994,3.6299,3.5735,3.6228,3.7143,3.8348,3.8805,3.9506,4.1655,4.1803,4.1906,4.3365,4.3693,4.3664,4.3642,0.0,0.0,0.0,0.0,0.0,0.0,0.0,0.0,0.0,0.0,0.0,0.0,0.0,0.0,0.0,0.0,0.0,0.0,0.0,0.0,0.0,4.7564,4.7564,4.7564,4.7056,4.643,4.572,4.6735,4.6955,4.6447,4.6684,4.6786,4.6786,4.6549,4.616,4.5686,4.5449,4.5043,4.4615,4.4615,4.4615,4.4615,4.4615,4.4615,4.4615,0.0,0.0,0.0,0.0,0.0,0.0,0.0,0.0,0.0,0.0,0.0,0.0,0.0,0.0,0.0,0.0,0.0,0.0,2.7874,2.9261,3.0106,3.0106,3.1495,3.2632,3.3372,3.4822,3.5583,3.56,3.6383,3.6,3.4489,3.4489,3.4489,3.4455,3.3744,3.4068,3.514,3.4476,3.4834,3.5914,3.5969,3.6483,3.7135,0.0,0.0,0.0,0.0,0.0,0.0,0.0,3.56,3.56,3.56,3.56,3.56,3.56,3.56,3.56,3.56,3.5138,3.5181,3.7374,3.8539,4.0491,4.5626,4.6179,4.6355,4.8973,4.7326,4.5374,4.5261,4.5507,0.0,0.0,0.0,0.0,0.0,0.0,0.0,0.0,0.0,0.0,0.0,0.0,0.0,0.0,0.0,0.0,0.0,0.0,0.0,0.0,4.6786,4.6786,4.6786,4.6769,4.6413,4.5703,4.5686,4.5686,4.572,4.6447,4.6769,4.6735,4.6007,4.5703,4.5635,4.4874,4.4598,4.4615,4.4598,4.4598,4.4615,4.4615,4.4615,4.4615,0.0,0.0,0.0,0.0,0.0,0.0,0.0,0.0,0.0,0.0,0.0,0.0,0.0,0.0,0.0,0.0,0.0,0.0,3.0209,3.0615,3.0869,3.0869,3.1275,3.1613,3.185,3.278,3.4049,3.56,3.5318,3.4967,3.4489,3.4489,3.4489,3.4472,3.4269,3.4084,3.3925,3.3724,3.4358,3.5475,3.5494,3.6199,3.7135,0.0,0.0,0.0,0.0,0.0,0.0,0.0,0.0,0.0,3.56,3.56,3.56,3.56,3.56,3.56,3.56,3.6632,3.7975,3.9158,4.0802,4.2894,4.591,4.5937,4.6126,4.9036,4.7765,4.6315,4.6995,0.0,0.0,0.0,0.0,0.0,0.0,0.0,0.0,0.0,0.0,0.0,0.0,0.0,0.0,0.0,0.0,0.0,0.0,0.0,0.0,0.0,4.6024,4.6024,4.6024,4.55,4.5128,4.4936,4.435,4.4384,4.4925,4.5156,4.5258,4.5258,4.501,4.4925,4.4886,4.4079,4.4079,4.4547,4.3978,4.4096,4.4615,4.4615,4.4615,4.4615,0.0,0.0,0.0,0.0,0.0,0.0,0.0,0.0,0.0,0.0,2.9685,2.9873,0.0,0.0,0.0,0.0,0.0,0.0,0.0,3.1038,3.119,3.119,3.119,3.1345,3.1633,3.2357,3.3237,3.4303,3.4134,3.4201,3.4489,3.4489,3.4832,3.5407,3.5081,3.4692,3.4247,3.3964,3.4278,3.4984,3.4984,3.5621,3.6522,0.0,0.0,0.0,0.0,0.0,0.0,0.0,0.0,0.0,3.5081,3.5165,3.5211,3.5515,3.538,3.5301,3.591,3.7077,3.8582,4.051,4.2651,4.4957,4.7378,4.7935,4.8411,0.0,4.9117,4.8033,4.8513,4.7932,0.0,0.0,0.0,0.0,0.0,0.0,0.0,0.0,0.0,0.0,0.0,0.0,0.0,0.0,0.0,0.0,0.0,0.0,0.0,0.0,4.5263,4.5111,4.4807,4.435,4.3978,4.3684,4.32,4.3217,4.3701,4.3701,4.3701,4.3701,4.3701,4.3842,4.4062,4.3284,4.342,4.4079,4.3606,4.3893,4.4615,4.4615,4.4615,4.4615,0.0,0.0,0.0,0.0,0.0,0.0,0.0,0.0,0.0,0.0,3.0784,3.119,0.0,0.0,0.0,0.0,0.0,0.0,0.0,3.0835,3.119,3.119,3.119,3.1495,3.2192,3.2916,3.2966,3.2293,3.3102,3.3812,3.4387,3.4455,3.5267,3.666,3.5859,3.5498,3.5447,3.4709,3.4438,3.4489,3.4489,3.4945,3.5583,3.5515,0.0,0.0,0.0,0.0,0.0,0.0,0.0,0.0,3.4387,3.459,3.4726,3.5397,3.5081,3.4827,3.6389,3.6897,3.7879,4.1491,4.4316,4.6921,4.9661,5.1195,5.1988,5.1801,0.0,5.0099,4.9805,0.0,0.0,0.0,0.0,0.0,0.0,0.0,0.0,0.0,0.0,0.0,0.0,0.0,0.0,0.0,0.0,0.0,0.0,0.0,0.0,4.4395,4.4395,4.4028,4.3291,4.3291,4.2963,0.0,4.2219,4.2202,4.2202,4.2252,4.2286,4.2286,4.2286,4.2675,4.3223,4.2506,4.2642,4.3291,4.3291,4.3792,4.4513,4.4581,4.4615,4.4615,0.0,0.0,0.0,0.0,0.0,0.0,0.0,0.0,0.0,0.0,0.0,0.0,0.0,0.0,0.0,0.0,0.0,0.0,0.0,3.1106,3.119,3.119,3.119,3.1258,3.1427,3.2175,3.2462,3.2293,3.3609,3.4049,3.366,3.4218,3.4996,3.5842,3.5064,3.4742,3.4692,3.3947,3.3964,3.4489,3.4489,3.4945,3.5532,3.4962,3.5115,0.0,0.0,0.0,0.0,0.0,0.0,0.0,3.5295,3.5346,3.538,3.5549,3.5081,3.4827,3.6389,3.7658,3.9259,4.2405,4.6604,5.0338,5.1555,5.2049,5.1916,5.0723,5.075,5.0764,0.0,0.0,0.0,0.0,0.0,0.0,0.0,0.0,0.0,0.0,0.0,0.0,0.0,0.0,0.0,0.0,0.0,0.0,0.0,0.0,0.0,4.2777,4.2777,4.2709,4.254,4.254,4.2455,0.0,4.1711,4.1441,4.1457,4.2033,4.2286,4.2286,4.2286,4.2388,4.2472,4.1745,4.1863,4.254,4.254,4.2997,4.3741,4.4378,4.4615,4.4615,0.0,0.0,0.0,0.0,0.0,0.0,0.0,0.0,0.0,0.0,0.0,0.0,0.0,0.0,0.0,0.0,0.0,0.0,0.0,0.0,3.119,3.119,3.1549,3.1735,3.1735,3.2462,3.2831,3.2831,3.4303,3.4487,3.3462,3.3829,3.442,3.5105,3.472,3.4527,3.4489,3.4472,3.4472,3.4523,3.4878,3.5267,3.5549,3.5182,3.5261,3.5549,3.5165,0.0,0.0,0.0,0.0,0.0,0.0,0.0,3.5148,3.5498,3.5081,3.4827,3.6389,3.7895,4.0054,4.4468,4.8139,5.0879,5.1623,5.1505,5.093,4.9796,5.0152,0.0,0.0,0.0,0.0,0.0,0.0,0.0,0.0,0.0,0.0,0.0,0.0,0.0,0.0,0.0,0.0,0.0,0.0,0.0,0.0,4.2286,4.2286,4.2286,4.2286,4.2117,4.1779,4.1762,4.1593,4.1221,4.0849,4.0663,4.0679,4.1077,4.1424,4.1745,4.139,4.1441,4.1711,4.0967,4.1102,4.1762,4.1762,4.2219,4.298,4.3741,4.4028,4.4079,0.0,0.0,0.0,0.0,0.0,0.0,0.0,0.0,0.0,0.0,0.0,0.0,0.0,0.0,0.0,0.0,0.0,0.0,0.0,0.0,0.0,3.1396,3.1972,3.2293,3.2293,3.3017,3.3457,3.3592,3.494,3.4933,3.3694,3.3698,3.4016,3.46,3.4484,3.4515,3.4726,3.5216,3.5131,3.4742,3.5346,3.56,3.5583,3.5447,3.5481,3.5583,3.5447,3.5115,3.4692,3.4692,0.0,0.0,0.0,0.0,3.481,3.5414,3.5081,3.4827,3.6389,3.8058,4.0696,4.6177,4.8528,4.9712,5.0441,5.0168,4.9509,4.8765,4.9204,0.0,0.0,0.0,0.0,0.0,0.0,0.0,0.0,0.0,0.0,0.0,0.0,0.0,0.0,0.0,0.0,0.0,0.0,0.0,4.1914,4.1914,4.1914,4.1914,4.1914,4.1627,4.1018,4.1018,4.0696,4.0096,4.0096,4.0096,4.0096,4.0096,4.0434,4.0984,4.0367,4.0468,4.0967,4.0367,4.0468,4.1018,4.1153,4.1644,4.2388,4.3149,4.3504,4.3707,0.0,0.0,0.0,0.0,0.0,0.0,0.0,0.0,0.0,0.0,3.119,0.0,0.0,0.0,0.0,0.0,0.0,0.0,0.0,0.0,0.0,3.2158,3.2242,3.2293,3.2293,3.3017,3.3711,3.4336,3.5199,3.5217,3.4438,3.4456,3.4517,3.4567,3.3933,3.4309,3.5414,3.4878,3.4962,3.5447,3.5549,3.56,3.5532,3.4895,3.5047,3.5515,3.4878,3.4996,3.5447,3.5447,3.538,0.0,0.0,0.0,3.5464,3.5566,3.5081,3.4827,3.6389,3.8802,4.1728,4.5145,4.6616,4.7428,0.0,0.0,4.7986,0.0,0.0,0.0,0.0,0.0,0.0,0.0,0.0,0.0,0.0,0.0,0.0,0.0,0.0,0.0,0.0,0.0,0.0,0.0,0.0,0.0,4.0434,4.04,4.04,4.04,4.04,4.035,4.0248,4.0248,4.0197,4.0096,4.0096,4.0096,4.0096,4.0096,4.0146,4.0248,4.0146,4.0163,4.0248,4.0146,4.0163,4.0316,4.095,4.1644,4.2388,4.3149,4.3842,4.4479,0.0,0.0,0.0,0.0,0.0,0.0,0.0,0.0,0.0,0.0,0.0,3.136,0.0,0.0,0.0,0.0,0.0,0.0,0.0,0.0,0.0,3.2933,3.3305,3.3546,3.3546,3.3846,3.4387,3.5131,3.5893,3.59,3.521,3.5214,3.4778,3.3995,3.4513,3.4859,3.5058,3.5077,3.5295,3.56,3.56,3.5346,3.4996,3.5081,3.5064,3.5013,3.5081,3.5312,3.56,3.56,3.56,3.56,3.56,0.0,0.0,0.0,3.5363,3.5453,3.6992,3.8667,4.0578,4.3149,4.435,4.5213,4.6413,4.6346,4.5957,0.0,0.0,0.0,0.0,0.0,0.0,0.0,0.0,0.0,0.0,0.0,0.0,0.0,0.0,0.0,0.0,0.0,0.0,0.0,0.0,4.0426,4.013,4.0096,4.0096,4.0096,4.0096,4.0096,4.0096,4.0096,4.0096,4.0096,4.0096,4.0096,4.0096,4.0096,4.0096,4.0096,4.0096,4.0096,4.0096,4.0096,4.0096,4.013,4.0468,4.1018,4.1779,4.2506,4.3267,4.3995,0.0,0.0,0.0,0.0,0.0,0.0,0.0,0.0,0.0,0.0,0.0,0.0,0.0,0.0,0.0,0.0,0.0,0.0,0.0,0.0,0.0,3.3711,3.4201,3.4489,3.4489,3.4489,3.4861,3.56,3.64,3.6518,3.5959,3.6365,3.5635,3.4087,3.4985,3.5304,3.516,3.5666,3.5902,3.587,3.5531,3.5015,3.4518,3.4566,3.4432,3.4259,3.4694,0.0,0.0,0.0,0.0,3.56,3.56,3.56,0.0,0.0,0.0,3.5853,3.6986,3.7872,3.887,4.0713,4.188,4.2912,0.0,0.0,4.4022,0.0,0.0,0.0,0.0,0.0,0.0,0.0,0.0,0.0,0.0,0.0,0.0,0.0,0.0,0.0,0.0,0.0,0.0,0.0,0.0,4.0096,4.0096,4.0096,4.0096,4.0096,4.0096,4.0096,4.0096,4.0096,4.0096,4.0096,4.0096,4.0096,4.0096,4.0096,4.0096,4.0096,4.0096,4.0096,4.0096,4.0096,4.0096,4.0096,4.0096,4.0544,4.1288,4.2016,4.2777,4.3511,0.0,0.0,0.0,0.0,0.0,0.0,0.0,0.0,0.0,0.0,0.0,0.0,3.2293,3.2882,3.3305,3.3339,0.0,0.0,0.0,0.0,0.0,3.4438,3.4472,0.0,3.4489,3.4489,3.4861,3.56,3.64,3.6745,3.6692,3.812,3.764,3.5453,3.486,3.5308,3.6584,3.6626,3.6662,3.6631,3.5264,3.4641,3.4295,3.2497,3.2488,3.3393,0.0,0.0,0.0,0.0,0.0,0.0,0.0,0.0,3.56,0.0,0.0,0.0,3.5701,3.6299,3.7117,3.7922,3.9208,4.0485,0.0,0.0,0.0,0.0,0.0,0.0,0.0,0.0,0.0,0.0,0.0,0.0,0.0,0.0,0.0,0.0,0.0,0.0,0.0,0.0,0.0,0.0,0.0,4.0096,4.0096,4.0096,4.0096,4.0096,4.0096,4.0096,4.0096,4.0096,4.0096,4.0096,4.0096,4.0096,4.0096,4.0096,4.0096,4.0096,4.0096,4.0096,4.0096,4.0096,4.0096,4.0096,4.0096,4.0544,4.1288,4.2016,4.2777,4.3511,0.0,0.0,0.0,0.0,0.0,0.0,0.0,0.0,0.0,0.0,0.0,0.0,0.0,3.3237,3.3592,3.4066,3.4117,0.0,0.0,0.0,0.0,3.5216,3.5216,3.5216,3.5216,3.5216,3.5588,3.6366,3.7127,3.7735,3.8179,3.8211,3.8048,3.7697,3.6932,3.6121,3.5332,3.5803,3.6284,3.658,3.4725,3.3973,3.3783,3.2623,0.0,0.0,0.0,0.0,0.0,0.0,0.0,0.0,0.0,0.0,0.0,0.0,3.56,3.56,3.56,3.5802,3.6231,3.6992,3.7608,3.8302,3.9512,3.9986,0.0,0.0,0.0,0.0,0.0,0.0,0.0,0.0,0.0,0.0,0.0,0.0,0.0,0.0,0.0,0.0,0.0,0.0,0.0,0.0,0.0,0.0,4.0096,4.0096,4.0096,4.0096,4.0096,4.0096,4.0096,4.0096,4.0096,4.0096,4.0096,4.0096,4.0096,4.0096,4.0096,4.0096,4.0096,4.0096,4.0096,4.0096,4.0096,4.0096,4.0096,4.0544,4.1238,4.1508,4.2066,4.2794,0.0,0.0,0.0,0.0,0.0,0.0,0.0,0.0,0.0,3.1582,0.0,0.0,0.0,0.0,3.4353,3.4827,3.4861,3.5081,3.5566,3.56,3.56,3.56,3.56,3.56,3.56,3.56,3.5853,3.64,3.7415,3.8159,3.8633,3.858,3.856,3.8536,3.828,3.734,3.6001,3.6246,3.6778,3.7269,3.4952,3.4118,3.4083,0.0,0.0,0.0,0.0,0.0,0.0,0.0,0.0,0.0,0.0,0.0,0.0,0.0,0.0,0.0,3.5943,3.5825,3.5836,0.0,3.6998,3.7134,3.8345,0.0,0.0,0.0,0.0,0.0,0.0,0.0,0.0,0.0,0.0,0.0,0.0,0.0,0.0,0.0,0.0,0.0,0.0,0.0,0.0,0.0,0.0,0.0,4.0096,4.0096,3.9994,3.974,3.9977,3.9994,3.974,3.9977,4.0096,4.0096,4.0096,4.0096,4.0096,4.0096,4.0096,4.0096,4.0096,4.0096,4.0096,4.0096,4.0096,4.0096,4.0096,4.0417,4.0849,4.1119,4.1508,4.2033,0.0,0.0,0.0,0.0,0.0,0.0,0.0,0.0,3.2327,3.2327,0.0,0.0,0.0,0.0,0.0,3.56,3.56,3.56,3.56,3.56,3.56,3.56,0.0,0.0,3.56,3.56,3.5616,3.5633,3.7144,3.7889,3.7973,3.9385,3.9272,3.7892,3.8564,3.8891,3.8881,3.8104,3.8248,3.8722,0.0,3.5098,3.5181,0.0,0.0,0.0,3.1934,3.2379,0.0,3.2846,0.0,0.0,0.0,0.0,0.0,0.0,0.0,0.0,0.0,0.0,0.0,0.0,0.0,0.0,3.7669,0.0,0.0,0.0,0.0,0.0,0.0,0.0,0.0,0.0,0.0,0.0,0.0,0.0,0.0,0.0,0.0,0.0,0.0,0.0,0.0,0.0,0.0,4.0096,4.0079,4.0079,3.974,3.9005,3.9723,3.9757,3.9039,3.974,4.0096,4.0096,4.0096,4.0096,4.0096,4.0096,4.0096,4.0096,4.0096,4.0096,4.0096,4.0096,4.0096,4.0096,4.0096,4.0096,4.0197,4.0899,4.117,4.1271,0.0,0.0,0.0,0.0,0.0,0.0,3.2797,3.2966,3.3102,0.0,0.0,0.0,3.4489,3.5165,3.56,3.56,3.56,3.56,3.56,3.56,3.56,3.56,3.56,3.56,3.56,3.56,3.5893,3.6451,3.6891,3.7635,3.8684,3.8565,3.8841,3.942,3.8504,3.8712,3.9662,3.8346,3.7923,3.794,3.5637,3.4518,0.0,0.0,0.0,0.0,0.0,3.2431,3.285,0.0,3.4522,3.5301,0.0,0.0,0.0,0.0,0.0,0.0,3.755,0.0,0.0,0.0,0.0,0.0,0.0,0.0,0.0,0.0,0.0,0.0,0.0,0.0,0.0,0.0,0.0,0.0,0.0,0.0,0.0,0.0,0.0,0.0,0.0,0.0,0.0,0.0,4.0096,3.9876,3.9326,3.9292,3.9191,3.9005,3.9723,4.0011,3.9808,3.9994,4.0096,4.0096,4.0096,4.0096,4.0096,4.0096,4.0096,4.0096,4.0096,4.0096,4.0096,4.0096,4.0096,4.0096,4.0096,4.0096,4.013,4.0333,4.0417,4.0493,0.0,0.0,0.0,0.0,0.0,3.3406,3.3406,3.366,3.3863,0.0,0.0,0.0,3.4962,3.5329,3.5735,3.6079,3.5785,3.5735,3.6079,3.5785,3.56,3.56,3.56,3.56,3.56,3.56,3.5842,3.6299,3.6924,3.7525,3.8045,3.8578,3.8925,3.9129,3.8857,3.908,3.9558,3.8995,3.8569,0.0,3.5991,0.0,0.0,3.2951,3.2399,0.0,0.0,0.0,3.3325,3.3668,3.4592,0.0,0.0,0.0,0.0,0.0,0.0,0.0,0.0,0.0,0.0,0.0,0.0,0.0,3.6603,3.6434,0.0,0.0,0.0,0.0,0.0,0.0,0.0,0.0,0.0,0.0,0.0,0.0,0.0,0.0,0.0,0.0,0.0,0.0,0.0,3.9174,3.9174,3.8988,3.8565,3.8819,3.8853,3.8548,3.9554,3.996,3.9656,3.996,4.0096,4.0096,4.0096,4.0096,4.0096,4.0096,4.0096,4.0096,4.0096,4.0096,4.0096,4.0096,4.0096,4.0096,4.0096,4.0096,4.0096,4.0096,4.0096,4.0163,0.0,0.0,3.2886,3.3541,3.3643,3.3643,3.3643,3.4201,3.4624,0.0,3.5284,3.5752,3.5853,3.5853,3.6146,3.6863,3.6282,3.6129,3.6761,3.6129,3.5684,3.56,3.56,3.5633,3.5718,3.565,3.5684,3.5853,3.705,3.7417,3.6992,3.8941,3.9196,3.8121,3.948,3.9662,3.8935,3.9756,0.0,3.8515,3.6642,3.6147,0.0,0.0,3.4233,3.513,3.3918,3.3873,3.4234,3.3171,3.4073,0.0,0.0,0.0,0.0,0.0,3.8142,0.0,0.0,0.0,0.0,0.0,0.0,0.0,3.7652,3.6648,3.5397,0.0,0.0,0.0,0.0,0.0,0.0,0.0,0.0,0.0,0.0,0.0,0.0,0.0,0.0,0.0,0.0,3.7905,3.7905,3.7905,3.7821,3.7787,3.7787,3.8396,3.8447,3.7804,3.9191,3.9673,3.9005,3.974,4.0096,4.0096,4.0096,4.0096,4.0096,4.0096,4.0096,4.0096,4.0096,4.0096,4.0096,4.0096,4.0096,4.0096,4.0096,4.0096,4.0096,4.0096,4.0096,4.0096,0.0,3.4556,3.4991,3.5143,3.516,3.516,3.516,3.5278,3.538,3.538,3.6079,3.6789,3.7398,3.7442,3.7516,3.7669,3.755,3.7263,3.6829,3.666,3.6282,3.5616,3.56,3.591,3.6535,3.5943,3.6208,3.7442,3.6504,3.6928,3.8554,3.836,3.874,3.9679,3.9969,3.9662,3.8935,0.0,0.0,3.7094,3.6749,0.0,3.5611,3.4106,3.3664,3.3858,3.3589,3.3574,3.3847,3.4697,3.5257,3.5921,0.0,0.0,0.0,0.0,0.0,0.0,0.0,0.0,0.0,0.0,0.0,0.0,3.7134,3.6282,3.5549,0.0,0.0,0.0,0.0,0.0,0.0,0.0,0.0,0.0,0.0,0.0,0.0,0.0,0.0,0.0,0.0,3.7905,3.7905,3.7905,3.7347,3.7015,3.7015,3.7151,3.7168,3.7032,3.8454,3.914,3.8988,3.974,4.0096,4.0096,4.0096,4.0096,4.0096,4.0096,4.0096,4.0096,4.0096,4.0096,4.0096,4.0096,4.0096,4.0096,4.0096,4.0096,4.0096,4.0096,4.0096,4.0096,0.0,3.4793,3.5182,3.5532,3.5943,3.6197,3.6197,3.6518,3.6749,3.6749,3.7094,3.7483,3.7872,3.7905,3.8058,3.8413,3.7742,3.7475,3.7889,3.7172,3.6577,3.6169,3.6152,3.6336,3.6743,3.5993,3.6175,3.7311,3.6901,3.7094,3.787,3.8591,3.8955,3.8998,3.9758,3.9435,3.844,0.0,3.901,3.7246,3.7339,0.0,3.6016,3.4954,3.4744,3.4957,3.4238,3.3978,3.4176,3.5183,3.5799,0.0,0.0,3.8608,3.9059,0.0,4.0096,4.0096,0.0,0.0,0.0,3.9656,0.0,0.0,0.0,3.6738,3.5977,3.5216,0.0,0.0,0.0,0.0,0.0,0.0,0.0,0.0,0.0,0.0,0.0,0.0,0.0,0.0,0.0,3.6749,3.6749,3.6749,3.6417,3.6197,3.6197,3.6924,3.7161,3.6812,3.8589,3.9385,3.8988,3.974,4.0096,4.0096,4.0096,4.0096,4.0096,4.0096,4.0096,4.0096,4.0096,4.0096,4.0096,4.0096,4.0096,4.0096,4.0096,4.0096,4.0096,4.0096,4.0096,4.0096,3.4709,3.4709,3.4895,3.5498,3.6265,3.6795,3.6795,3.7432,3.7956,3.8091,3.8125,3.8111,3.8083,3.7982,3.8202,3.8891,3.7463,3.7155,3.8639,3.7466,3.6516,3.6109,3.6474,3.6633,3.6569,3.606,3.6324,3.7358,3.7649,3.7654,3.7376,3.9075,3.9292,3.8285,3.9404,3.9107,3.7898,3.9302,0.0,3.7393,0.0,3.7568,3.6584,3.5714,3.5784,3.6229,3.51,3.4698,3.4818,3.5459,0.0,3.6753,3.7703,3.8415,0.0,0.0,0.0,0.0,0.0,0.0,0.0,0.0,0.0,3.8836,0.0,0.0,0.0,3.5182,0.0,0.0,0.0,0.0,0.0,0.0,0.0,0.0,0.0,0.0,0.0,0.0,0.0,0.0,0.0,3.56,3.56,3.56,3.56,3.56,3.56,3.6766,3.7263,3.6812,3.8674,3.9469,3.8988,3.974,4.0096,4.0096,4.0096,4.0096,4.0096,4.0096,4.0096,4.0096,4.0096,4.0096,4.0096,4.0096,4.0096,4.0096,4.0096,4.0096,4.0096,4.0096,4.0096,4.0096,3.5481,3.5481,3.5498,3.5583,3.6265,3.6795,3.6795,3.7432,3.8142,3.8785,3.887,3.8849,3.8798,3.8308,0.0,0.0,0.0,0.0,3.7753,0.0,3.5929,3.4041,3.5729,3.647,3.6009,3.6361,3.7615,3.9699,3.8439,3.8463,3.969,3.9256,3.9335,3.9817,3.9335,3.8648,3.7862,0.0,3.781,0.0,3.7973,3.7931,0.0,3.5123,3.505,3.5604,3.5447,3.5385,3.5489,0.0,3.6493,3.6831,0.0,3.8776,3.9059,0.0,0.0,0.0,0.0,0.0,0.0,0.0,3.9554,0.0,0.0,0.0,3.6745,3.6575,0.0,0.0,0.0,0.0,0.0,0.0,0.0,0.0,0.0,0.0,0.0,0.0,0.0,0.0,0.0,0.0,3.56,3.56,3.56,3.56,3.56,3.5769,3.6163,3.6778,3.7669,3.843,3.8988,3.974,4.0096,4.0096,4.0096,4.0096,4.0096,4.0096,4.0096,4.0096,4.0096,4.0096,4.0096,4.0096,4.0096,4.0096,4.0096,4.0096,4.0096,4.0096,4.0096,4.0096,3.5684,3.5994,3.6299,3.6299,3.728,3.8082,3.8082,3.8684,3.9276,3.9605,3.9656,3.9614,0.0,0.0,0.0,0.0,0.0,3.6448,0.0,0.0,3.6355,3.5386,3.6618,3.7226,3.7005,3.6778,3.7351,3.8778,3.8547,3.8547,3.8778,3.9332,3.9564,3.9453,3.914,0.0,3.721,0.0,3.7214,0.0,0.0,0.0,0.0,3.5782,3.5637,3.5504,3.5504,3.5504,3.5549,0.0,3.6493,0.0,0.0,0.0,0.0,0.0,0.0,0.0,0.0,0.0,0.0,0.0,0.0,0.0,0.0,0.0,3.7845,0.0,0.0,0.0,0.0,0.0,0.0,0.0,0.0,0.0,0.0,0.0,0.0,0.0,0.0,0.0,0.0,0.0,0.0,0.0,3.56,3.56,3.56,3.6445,3.6891,3.6795,3.8352,3.9106,3.8988,3.974,4.0096,4.0096,4.0096,4.0096,4.0096,4.0096,4.0096,4.0096,4.0096,4.0096,4.0096,4.0096,4.0096,4.0096,4.0096,4.0096,4.0096,4.0096,4.0096,4.0096,3.6366,0.0,3.7117,3.7117,3.8142,3.9056,3.9259,3.9757,4.0088,4.0051,0.0,0.0,3.9826,3.9205,0.0,0.0,3.72,3.6394,0.0,0.0,3.6413,0.0,0.0,0.0,0.0,3.6831,3.7219,3.7793,3.8761,3.8843,3.8149,3.948,3.9808,3.9276,3.9089,3.8264,3.7022,0.0,3.6908,3.5554,3.6306,3.6165,3.5554,3.6086,3.5975,3.5504,3.5504,3.5504,3.5534,3.5714,3.6478,0.0,3.6987,0.0,0.0,0.0,0.0,0.0,3.7793,0.0,0.0,0.0,0.0,0.0,0.0,0.0,0.0,0.0,0.0,0.0,0.0,0.0,0.0,0.0,0.0,0.0,0.0,0.0,0.0,0.0,0.0,0.0,0.0,0.0,0.0,3.5008,3.5177,3.5295,3.5295,3.6755,3.7449,3.7094,3.8877,3.9656,3.9292,3.9842,4.0096,4.0096,4.0096,4.0096,4.0096,4.0096,4.0096,4.0096,4.0096,4.0096,4.0096,4.0096,4.0096,4.0096,4.0096,4.0096,4.0096,4.0096,4.0096,4.0096,3.7838,3.7855,0.0,0.0,3.8481,3.9225,3.996,0.0,0.0,0.0,0.0,0.0,0.0,0.0,0.0,0.0,0.0,3.6064,3.7357,0.0,3.5553,0.0,0.0,3.6534,0.0,0.0,3.7777,3.7793,3.9305,3.9636,3.8881,3.9714,4.0096,4.0028,3.9334,3.8546,3.7771,3.7802,3.6908,3.5554,3.6306,3.6165,3.5504,0.0,3.5537,3.5504,3.5504,0.0,0.0,3.6237,3.6554,0.0,0.0,0.0,0.0,0.0,0.0,0.0,0.0,0.0,0.0,3.8881,0.0,0.0,0.0,0.0,3.8988,0.0,0.0,0.0,0.0,0.0,0.0,0.0,0.0,0.0,0.0,0.0,0.0,0.0,0.0,0.0,0.0,0.0,0.0,3.3525,3.4134,3.4523,3.4523,3.6,3.7168,3.7838,3.8616,3.9385,4.0062,4.0096,4.0096,4.0096,4.0096,4.0096,4.0096,4.0096,4.0096,4.0096,4.0096,4.0096,4.0096,4.0096,4.0096,4.0096,4.0096,4.0096,4.0096,4.0096,4.0096,4.0096,0.0,0.0,0.0,0.0,0.0,0.0,0.0,4.0098,0.0,0.0,0.0,0.0,0.0,4.1249,4.0836,0.0,0.0,3.7791,3.8185,3.818,0.0,0.0,0.0,3.7014,0.0,0.0,0.0,0.0,3.8536,3.8924,3.8189,3.9506,4.0096,4.0079,3.9326,3.8562,0.0,0.0,0.0,0.0,0.0,3.6297,3.6855,0.0,0.0,3.5504,3.5504,3.5504,0.0,3.5759,3.615,3.6516,3.6271,3.654,3.6857,3.6427,3.629,0.0,0.0,0.0,3.6905,3.7905,0.0,0.0,0.0,0.0,0.0,0.0,0.0,0.0,0.0,0.0,0.0,0.0,0.0,0.0,0.0,0.0,0.0,0.0,0.0,0.0,0.0,0.0,0.0,3.3457,3.4083,3.4489,3.4489,3.6417,3.7652,3.7889,3.9089,3.9859,4.0096,4.0096,4.0096,4.0096,4.0096,4.0096,4.0096,4.0096,4.0096,4.0096,4.0096,4.0096,4.0096,4.0096,4.0096,4.0096,4.0096,4.0096,4.0096,4.0096,4.0096,4.018,3.9402,0.0,0.0,0.0,0.0,0.0,0.0,0.0,0.0,0.0,4.2607,0.0,4.3739,0.0,4.2358,0.0,4.0873,3.956,3.9369,3.9518,0.0,3.6067,3.7313,0.0,0.0,0.0,0.0,0.0,0.0,3.8525,3.7835,3.9375,4.0096,4.0079,3.9605,3.8926,3.8129,3.7395,3.6618,0.0,0.0,3.6071,0.0,0.0,3.5819,3.6228,0.0,3.5504,3.5504,3.5504,3.5789,3.6073,3.5639,3.5804,3.6058,3.5624,3.5504,3.5504,3.5504,3.5701,0.0,3.7145,3.7203,0.0,3.8941,0.0,0.0,0.0,0.0,0.0,0.0,0.0,0.0,0.0,0.0,0.0,0.0,3.432,0.0,0.0,0.0,0.0,0.0,0.0,3.4184,3.3457,3.4083,3.4489,0.0,0.0,3.7905,3.7905,3.9326,4.0096,4.0096,4.0096,4.0096,4.0096,4.0096,4.0096,4.0096,4.0096,4.0096,4.0096,4.0096,4.0096,4.0096,4.0096,4.0096,4.0096,4.0096,4.0096,4.0096,4.0096,4.0096,4.0214,0.0,0.0,0.0,0.0,3.942,0.0,0.0,0.0,4.1037,0.0,4.2937,4.399,4.4383,4.3878,4.3474,4.3379,4.2269,0.0,4.0842,4.0973,0.0,0.0,3.8231,3.757,3.467,0.0,0.0,0.0,0.0,3.8525,3.7835,3.9375,4.0096,4.0096,4.0096,0.0,3.8854,3.8149,3.7368,3.6523,3.5814,3.5552,3.5599,3.5519,3.6432,3.7497,3.6023,3.5504,3.5504,3.5504,3.5504,3.5504,3.5504,3.5504,3.5504,3.5504,3.5504,3.5504,3.5504,3.6006,3.6554,3.6569,0.0,0.0,0.0,0.0,3.7706,0.0,0.0,0.0,0.0,0.0,0.0,0.0,0.0,0.0,0.0,0.0,0.0,0.0,0.0,0.0,0.0,3.4438,3.4134,3.3406,3.3998,3.4404,0.0,0.0,3.7872,3.7905,3.9326,4.0096,4.0096,4.0096,4.0096,4.0096,4.0096,4.0096,4.0096,4.0096,4.0096,4.0096,4.0096,4.0096,4.0096,4.0096,4.0096,4.0096,4.0096,4.0096,4.0096,4.0096,4.013,4.0265,4.0096,4.0096,4.0096,0.0,3.942,3.9128,0.0,0.0,0.0,0.0,4.5985,4.7718,4.6662,4.6219,4.5648,4.4862,4.4392,0.0,0.0,0.0,0.0,3.9151,3.9421,3.8497,3.6049,3.697,0.0,3.5504,0.0,3.8525,3.7835,3.9375,4.0096,4.0096,4.0096,3.9662,3.8881,3.869,3.786,3.6523,3.5814,3.6165,0.0,0.0,3.6432,3.7497,3.6023,3.5504,3.5504,3.5504,3.5504,3.5504,3.5504,3.5504,3.5504,3.5504,3.5504,3.5504,3.5504,3.5651,3.5911,3.6461,3.6352,3.6399,0.0,0.0,0.0,0.0,0.0,0.0,0.0,0.0,0.0,0.0,0.0,0.0,0.0,0.0,0.0,0.0,0.0,0.0,0.0,3.3677,3.3372,3.2649,3.2767,3.3343,0.0,0.0,0.0,3.7889,3.9326,4.0096,4.0096,4.0096,4.0096,4.0096,4.0096,4.0096,4.0096,4.0096,4.0096,4.0096,4.0096,4.0096,4.0096,4.0096,4.0096,4.0096,4.0096,4.0096,4.0096,4.0096,4.0468,4.1018,4.002,0.0,0.0,4.0578,0.0,0.0,4.0686,0.0,0.0,4.3318,4.6284,0.0,4.6575,4.6289,4.6127,4.5925,4.4949,0.0,4.3418,0.0,0.0,3.946,3.9691,3.8701,3.6106,3.6878,0.0,3.5975,0.0,0.0,3.8318,3.9532,4.0096,4.0096,4.0096,3.985,3.9368,3.8707,3.7892,3.6987,3.5935,0.0,0.0,3.5819,3.6023,3.6636,3.5804,3.5504,3.5504,3.5504,3.5504,3.5504,3.5504,3.5504,3.5504,3.5504,3.5504,3.5504,3.5504,3.5504,3.5587,3.6038,3.5814,3.5733,3.6616,3.6116,3.5733,0.0,0.0,0.0,0.0,0.0,0.0,0.0,0.0,0.0,0.0,0.0,0.0,0.0,0.0,0.0,0.0,3.3592,3.3237,3.2797,3.3089,0.0,0.0,0.0,0.0,3.7889,3.9326,4.0096,4.0096,4.0096,4.0096,4.0096,4.0096,4.0096,4.0096,4.0096,4.0096,4.0096,4.0096,4.0096,4.0096,4.0096,4.0096,4.0096,4.0096,4.0096,4.0146,4.0468,4.0832,4.1356,0.0,0.0,0.0,0.0,0.0,0.0,0.0,4.1796,0.0,4.3373,0.0,4.6693,4.5668,4.5518,4.5778,4.6441,0.0,4.3563,4.4011,4.3219,4.1616,3.9098,3.9581,3.856,3.5687,3.6352,0.0,0.0,0.0,0.0,3.8772,3.9662,4.0096,4.0096,4.0197,0.0,0.0,3.8576,3.7794,3.7436,3.6041,3.5504,3.5504,3.5504,3.5549,3.5624,3.5624,3.5579,3.5504,3.5504,3.5504,3.5504,3.5504,3.5504,3.5504,3.5504,3.5504,3.5504,3.5504,3.5504,3.5504,3.5504,3.5504,3.5504,3.5504,3.5504,3.5504,3.5504,3.5504,3.5325,0.0,0.0,0.0,0.0,0.0,0.0,0.0,0.0,0.0,0.0,0.0,0.0,0.0,0.0,0.0,3.3541,3.4049,0.0,0.0,0.0,0.0,3.7905,3.9225,0.0,4.0096,0.0,4.0096,4.0096,4.0096,4.0096,4.0096,4.0096,4.0096,4.0096,4.0096,4.0096,4.0096,4.0096,4.0096,4.0096,4.0096,4.0096,4.0197,4.1035,4.1339,4.1542,0.0,0.0,0.0,0.0,0.0,4.1102,4.3828,4.5199,4.5665,4.5041,4.7751,4.9031,4.7134,4.6732,4.6312,4.5589,4.4426,0.0,0.0,0.0,0.0,4.0518,4.0087,3.878,3.6394,3.714,3.6965,0.0,0.0,0.0,3.8035,3.9454,4.0096,4.013,4.073,0.0,4.004,3.9091,0.0,3.6724,3.5859,3.5504,3.5504,3.5504,3.5833,3.6312,3.6312,3.5968,3.5504,3.5504,3.5504,3.5504,3.5504,3.5504,3.5504,3.5504,3.5504,3.5504,3.5504,3.5504,3.5504,3.5504,3.5504,3.5504,3.5504,3.5504,3.5504,3.5504,3.5504,3.5474,3.5355,0.0,0.0,0.0,0.0,0.0,0.0,0.0,0.0,0.0,0.0,0.0,0.0,0.0,0.0,0.0,0.0,0.0,0.0,0.0,0.0,0.0,3.8734,0.0,0.0,0.0,4.0096,4.0096,4.0096,4.0096,4.0096,4.0096,4.0096,4.0096,4.0096,4.0096,4.0096,4.0096,4.0096,4.0096,4.0096,4.0096,4.0265,4.1593,4.21,4.2219,0.0,0.0,0.0,0.0,0.0,0.0,0.0,4.7221,0.0,4.5458,4.7105,4.7727,4.5935,4.5934,4.5772,4.5087,4.3823,4.298,4.2771,4.1779,4.055,3.9093,3.8806,0.0,3.6016,3.6786,3.6985,3.6604,0.0,0.0,3.891,3.9295,3.9906,4.0679,4.0635,4.0381,0.0,0.0,0.0,3.708,3.6328,3.6013,3.6043,3.6372,3.6686,3.6971,3.6971,3.6761,3.6447,3.6118,3.6013,3.5953,3.5609,3.5504,3.5504,3.5504,3.5504,3.5504,3.5504,3.5504,3.5504,3.5504,3.5504,3.5504,3.5504,3.5504,3.5504,3.5504,3.5504,3.5619,3.6006,3.5769,0.0,0.0,0.0,0.0,0.0,0.0,0.0,0.0,0.0,0.0,0.0,0.0,0.0,0.0,0.0,0.0,0.0,0.0,0.0,0.0,0.0,0.0,0.0,0.0,0.0,4.0096,4.0096,4.0096,4.0096,4.0096,4.0096,4.0096,4.0096,4.0096,4.0096,4.0096,4.0096,4.0096,4.0096,4.0096,4.0282,4.1745,4.2286,4.2455,0.0,4.266,0.0,0.0,4.6209,0.0,4.9341,4.8498,4.7171,4.6007,4.6235,4.6016,4.4668,4.487,4.4911,4.4504,4.3084,4.2002,4.154,4.0035,3.8732,3.7722,3.7478,3.6853,3.578,3.6134,3.6614,0.0,0.0,0.0,0.0,3.944,4.0016,0.0,0.0,0.0,0.0,0.0,3.7064,3.7383,3.6745,3.6567,3.6731,3.7225,3.7494,3.7614,3.7614,3.7704,3.7734,3.7105,3.6791,3.6596,3.6073,3.5818,3.5714,3.5714,3.5609,3.5504,3.5504,3.5504,3.5504,3.5504,3.5504,3.5504,3.5504,3.5504,3.5504,3.5504,3.5504,3.5668,3.6244,3.5876,0.0,0.0,0.0,0.0,0.0,0.0,0.0,0.0,0.0,0.0,0.0,0.0,0.0,0.0,0.0,0.0,0.0,0.0,0.0,0.0,0.0,3.9106,3.9859,0.0,4.0096,0.0,4.0096,4.0096,4.0096,4.0096,4.0096,4.0096,4.0096,4.0096,4.0096,4.0096,4.0096,4.0096,4.0096,4.0096,4.0265,4.1576,4.2168,4.2489,0.0,0.0,0.0,0.0,0.0,0.0,0.0,4.9088,4.8414,4.7657,4.6826,4.6047,4.5274,4.4721,4.4163,4.3508,4.2269,4.1235,4.0574,3.9272,3.8484,3.8494,3.7291,3.6576,3.6508,3.5926,3.5617,0.0,0.0,0.0,0.0,0.0,0.0,0.0,0.0,0.0,0.0,3.7685,3.7209,3.661,3.6543,3.6821,3.733,3.7389,3.7778,3.8302,3.8302,3.8706,3.9125,3.8437,3.7823,3.7315,3.7255,3.6851,3.6402,3.6402,3.5968,3.5504,3.5504,3.5504,3.5504,3.5504,3.5504,3.5504,3.5504,3.5504,3.5504,3.5504,3.5504,3.5537,3.5587,3.5542,3.604,0.0,0.0,0.0,0.0,0.0,0.0,0.0,0.0,0.0,0.0,0.0,0.0,0.0,0.0,0.0,0.0,0.0,0.0,3.688,0.0,3.8362,3.9089,3.9774,4.0096,4.0096,4.0096,4.0096,4.0096,4.0096,4.0096,4.0096,4.0096,4.0096,4.0096,4.0096,4.0096,4.0096,4.0096,4.0096,4.0197,4.1001,4.1728,4.2405,0.0,0.0,0.0,0.0,0.0,0.0,0.0,5.035,4.9082,4.9004,4.741,4.5876,4.4825,4.4466,4.3918,4.3023,4.1995,4.141,4.1342,3.9123,3.8069,3.8643,3.6897,3.5922,3.5958,3.5636,3.5699,0.0,0.0,0.0,0.0,0.0,0.0,0.0,0.0,3.8787,3.8083,3.7673,3.7337,3.7075,3.7464,3.7778,3.8033,3.8452,3.8781,3.896,3.8542,3.8841,3.932,3.8616,3.8212,3.7928,3.7539,3.724,3.6971,3.6596,3.6297,3.6013,3.5609,3.5504,3.5504,3.5504,3.5504,3.5504,3.5504,3.5504,3.5504,3.5504,3.5504,3.5504,3.5504,3.5504,3.5846,0.0,0.0,0.0,0.0,0.0,0.0,0.0,0.0,0.0,0.0,0.0,0.0,0.0,0.0,0.0,0.0,0.0,0.0,3.7432,0.0,3.8903,3.9656,3.996,4.0096,4.0096,4.0096,4.0096,4.0096,4.0096,4.0096,4.0096,4.0096,4.0096,4.0096,4.0096,4.0096,4.0096,4.0096,4.0096,4.0197,4.0933,4.166,4.2405,4.7393,0.0,5.0135,0.0,5.1296,5.1427,5.323,5.1364,4.975,4.9795,4.7902,4.6127,4.4991,4.461,4.4189,4.3508,4.2659,4.224,4.2317,3.9446,3.8152,3.903,3.6753,0.0,3.6179,3.5733,3.5844,3.6542,3.6505,0.0,0.0,0.0,0.0,0.0,3.8508,3.8135,3.7793,3.7345,3.724,3.7464,3.8123,3.8512,3.8751,3.923,3.9388,3.9349,3.8871,3.9005,3.9349,3.8856,3.8691,3.8616,3.8153,3.7734,3.733,3.6881,3.6492,3.6154,3.587,3.5799,3.5799,3.5799,3.5799,3.575,3.5554,3.5668,3.5799,3.5799,3.5636,3.5504,3.5504,3.5504,3.5718,3.6477,0.0,0.0,0.0,0.0,0.0,0.0,3.6023,3.5563,3.4423,0.0,0.0,0.0,0.0,0.0,0.0,0.0,0.0,0.0,0.0,0.0,0.0,3.9994,4.0096,4.0096,4.0096,4.0096,4.0096,4.0096,4.0096,4.0096,4.0096,4.0096,4.0096,4.0096,4.0096,4.0096,4.0096,4.0096,4.0163,4.0679,4.1474,4.2371,5.0534,5.1151,5.1674,5.3213,5.3467,5.345,5.3501,5.1959,5.0554,4.988,4.8285,4.6949,4.6234,4.5337,4.4888,4.5147,4.4493,4.3789,4.3119,4.0319,3.9046,0.0,0.0,3.6196,3.7735,3.629,3.5863,3.6584,0.0,0.0,3.7747,0.0,3.9685,3.9637,3.8103,3.7075,3.6507,3.6492,3.6851,3.7464,3.8123,3.8796,3.9373,3.9388,3.9388,3.9388,3.9373,3.9373,3.9388,3.9373,3.9373,3.9373,3.9394,3.8482,3.7404,3.7404,3.6507,3.5683,3.6384,3.6584,3.6584,3.6584,3.6584,3.6384,3.5668,3.6054,3.6584,3.6584,3.6006,3.5504,3.5504,3.5504,3.5718,3.6477,0.0,0.0,0.0,0.0,0.0,0.0,3.6781,3.595,3.3815,0.0,0.0,0.0,0.0,0.0,0.0,0.0,0.0,3.7889,3.8616,0.0,3.9005,3.974,4.0096,4.0096,4.0096,4.0096,4.0096,4.0096,4.0096,4.0096,4.0096,4.0096,4.0096,4.0096,4.0096,4.0096,4.0096,4.0096,4.0096,4.0113,4.1044,4.2286,5.0655,5.1917,5.2926,5.3416,5.3501,5.3501,5.3501,5.2102,5.1011,5.0776,4.8844,4.7652,4.8064,4.6257,4.5093,0.0,4.4121,4.3573,0.0,4.1682,4.0428,4.0769,3.8886,3.7828,3.7793,3.6783,3.6353,3.6615,0.0,0.0,0.0,3.7937,3.8376,3.8799,3.8292,3.8227,3.8482,3.8482,3.8601,3.8796,3.9005,3.923,3.9388,3.9388,3.9388,3.9328,3.8886,3.902,3.9313,3.8871,3.9035,3.9298,3.8871,3.8422,3.8092,3.8187,3.7606,3.7016,3.7315,3.7427,3.7427,3.7427,3.701,3.6676,3.6995,3.6844,3.6768,3.7293,3.6814,3.643,3.6981,3.6615,3.6508,3.7279,3.7174,0.0,0.0,0.0,0.0,0.0,3.5736,3.5587,0.0,3.5795,0.0,0.0,0.0,0.0,0.0,0.0,0.0,0.0,3.9385,0.0,3.9757,3.9994,4.0096,4.0096,4.0096,4.0096,4.0096,4.0096,4.0096,4.0096,4.0096,4.0096,4.0096,4.0096,4.0096,4.0096,4.0096,4.0096,4.0096,4.0096,4.1044,4.2286,5.1241,5.2504,5.3501,5.3501,5.3247,5.3061,5.3061,5.1775,5.0794,5.0794,4.9234,4.837,4.894,4.732,0.0,4.6335,4.4851,4.4225,4.4941,4.2792,4.1398,4.1222,3.9732,3.8685,3.8206,0.0,0.0,3.7467,3.6846,3.6733,3.706,3.73,3.7629,3.8033,3.8287,3.8497,3.8676,3.8931,3.9035,3.905,3.932,3.9388,3.943,3.9466,3.9305,3.8981,3.8625,3.8717,3.896,3.8542,3.8676,3.896,3.8527,3.8275,3.8135,3.8186,3.795,3.7755,3.8119,3.8218,3.8218,3.8218,3.7616,3.7174,3.769,3.7427,3.7263,3.8048,3.7587,3.7203,3.769,3.7397,3.7219,3.7719,3.7364,3.7058,3.7104,0.0,0.0,0.0,0.0,0.0,0.0,3.6761,0.0,0.0,0.0,0.0,0.0,0.0,0.0,3.9394,3.9859,0.0,4.0096,4.0096,4.0096,4.0096,4.0096,4.0096,4.0096,4.0096,4.0096,4.0096,4.0096,4.0096,4.0096,4.0096,4.0096,4.0096,4.0096,4.0096,4.0096,4.0096,4.1044,4.2286,5.2097,5.2875,0.0,0.0,5.2723,0.0,5.2232,5.0997,5.0084,5.0084,4.9458,4.9001,4.9001,4.8331,4.7845,4.7821,0.0,0.0,0.0,4.3635,4.2113,4.1307,3.9897,3.9109,3.8978,3.8262,3.8206,3.8827,3.7395,3.6659,3.6592,3.7222,3.7522,3.7597,3.8202,3.8177,3.774,3.8267,3.8487,3.8617,3.9155,3.9388,3.9406,3.9486,3.904,3.8407,3.8524,3.8522,3.8407,3.8437,3.8422,3.8412,3.8402,3.8065,3.7685,3.7685,3.7785,3.8035,3.8772,3.8989,3.8989,3.8989,3.8486,3.795,3.7892,3.7863,3.8092,3.8827,3.8386,3.7892,3.795,3.7892,3.7892,3.795,3.7856,3.7811,3.7804,0.0,0.0,0.0,0.0,0.0,0.0,3.8217,3.8768,0.0,0.0,0.0,0.0,0.0,3.9402,4.0079,4.0096,4.0096,4.0096,4.0096,4.0096,4.0096,4.0096,4.0096,4.0096,4.0096,4.0096,4.0096,4.0096,4.0096,4.0096,4.0163,4.0146,4.0113,4.0163,4.0146,4.0113,4.0163,4.1094,4.2303,0.0,0.0,5.2418,5.186,5.1606,5.1471,5.1471,5.0693,5.0084,5.0084,4.9458,4.9001,4.9001,4.8219,4.7525,4.7098,4.6187,4.5416,4.4891,4.4344,4.3452,4.2095,4.1707,4.0977,3.9841,3.9032,3.8442,3.8064,3.769,3.7461,3.7351,3.801,3.8642,3.9149,3.9159,3.9814,4.0825,3.9651,3.9551,4.0098,3.9606,3.9388,3.9349,3.8858,3.8552,3.8397,3.8441,3.8432,3.8467,3.899,3.8826,3.8407,3.8513,3.8543,3.8532,3.8532,3.8566,3.8799,3.961,3.9808,3.9808,3.9808,3.9679,3.9385,3.8772,3.8635,3.8854,3.9636,3.9183,3.8843,3.9454,3.9049,3.8843,3.9454,3.8586,3.7819,3.7876,3.7253,0.0,0.0,3.7449,3.7838,3.7669,3.8954,3.9537,0.0,0.0,0.0,0.0,3.9842,3.9926,4.0096,4.0096,4.0096,4.0096,4.0096,4.0096,4.0096,4.0096,4.0096,4.0096,4.0096,4.0096,4.0096,4.0096,4.0096,4.0146,4.0696,4.0595,4.0163,4.0713,4.0595,4.018,4.073,4.1508,4.2371,5.1792,5.2029,5.2181,5.1775,5.115,5.071,5.071,5.0067,4.9593,4.9593,4.9255,4.9001,4.9001,4.8545,4.7981,4.7365,4.6227,4.5278,4.4637,4.4615,4.4045,4.2861,4.2472,4.1762,4.0612,3.9847,3.9059,3.8302,3.8302,3.7908,3.7173,3.8216,3.8544,3.8319,3.9177,4.0124,4.0959,3.9915,3.9964,4.0622,3.9737,3.923,3.8906,3.8633,3.8258,3.7967,3.7997,3.8439,3.8998,3.8953,3.8747,3.854,3.8587,3.8481,3.8411,3.8743,3.9112,3.9542,3.9978,4.0096,4.002,3.9636,3.985,3.9901,3.9086,3.9166,3.9584,4.002,3.9756,3.9568,4.002,3.9756,3.9467,3.9581,3.8598,3.7736,3.7435,3.6738,0.0,3.6761,3.7449,3.8041,3.8379,3.9411,3.9943,3.9537,0.0,0.0,4.0096,4.0096,4.0096,4.0096,4.0096,4.0096,4.0096,4.0096,4.0096,4.0096,4.0426,4.0434,4.0113,4.0468,4.0434,4.0096,4.0096,4.0096,4.013,4.0536,4.0646,4.0629,4.1035,4.1153,4.1136,4.1559,4.2168,4.2861,5.2317,5.23,5.2266,5.2147,5.0997,5.0135,5.0236,4.9644,4.9171,4.9171,4.9171,4.912,4.9018,4.9001,4.8714,4.7956,4.6622,4.5499,4.4812,4.4666,4.4231,4.3426,4.2811,4.2117,4.139,4.0629,3.9874,3.9086,3.8962,3.8213,3.6964,3.8213,3.8199,3.7198,3.8992,3.9966,4.02,3.9795,4.0019,4.0622,3.9652,3.8975,3.8522,3.8333,3.7968,3.7567,3.772,3.8501,3.9431,3.8921,3.864,3.8531,3.8741,3.8323,3.7978,3.8843,3.9542,4.0096,4.0096,4.0096,3.9927,3.9262,3.9584,3.9927,3.9236,3.961,4.0096,4.0096,4.0096,4.0096,4.0096,4.0096,3.991,3.9259,3.8447,3.7686,3.7066,0.0,3.6079,3.688,3.7618,3.8362,3.9089,3.974,4.0096,4.0096,4.0096,4.0096,0.0,4.0096,4.0096,4.0096,4.0096,4.0096,4.0096,4.0096,4.0163,4.0282,4.0899,4.0865,4.0299,4.1018,4.0899,4.0113,4.0231,4.0282,4.0282,4.04,4.0781,4.139,4.1491,4.1847,4.2303,4.2422,4.2861,4.3409,5.2435,5.23,5.2097,5.1488,5.0676,5.0304,5.0947,5.0405,4.9915,4.9915,4.9915,4.9678,4.9069,4.9001,4.8714,4.7956,4.7663,4.6941,4.5635,4.4942,4.4231,4.3426,4.3274,4.2895,4.2151,4.1407,4.0662,3.9927,3.9236,3.8772,3.8553,3.8731,3.9062,3.9572,3.973,4.0573,4.1727,4.0243,4.0019,4.0576,3.9123,3.8841,3.9065,3.7421,3.7436,3.8277,3.846,3.8555,3.8801,3.9941,3.9123,3.7849,3.9204,3.8762,3.8064,3.9506,3.9995,4.0096,4.0096,4.0096,4.007,3.9952,4.002,4.007,3.9952,4.002,4.0096,4.0096,4.0096,4.0096,4.0096,4.0096,4.0062,3.996,3.8785,3.7872,3.7753,0.0,3.6874,3.7652,3.8379,3.9106,3.9859,4.0028,4.0096,4.0096,4.0096,4.0096,4.0096,4.0096,4.0096,4.0096,4.0096,4.0096,4.0096,4.0096,4.0417,4.1035,4.1153,4.1136,4.1052,4.1779,4.1373,4.013,4.0747,4.1035,4.1085,4.1694,4.2016,4.2185,4.2828,4.276,4.2371,4.3014,4.3291,4.3494,5.3027,5.2283,5.1742,5.1792,5.0845,5.0338,5.1099,5.093,5.0557,5.0135,5.0084,4.9813,4.9086,4.9001,4.8866,4.8528,4.8125,4.7248,4.5698,4.4886,4.4152,4.3389,4.2972,4.2618,4.2303,4.1576,4.1035,4.0679,3.9915,3.9315,3.8908,3.9298,3.9704,4.01,4.0418,4.1165,4.2114,4.0832,4.0436,4.0591,3.941,3.8916,3.8766,3.7853,3.8163,3.9115,3.9228,4.0016,4.1003,4.0785,4.0124,3.9486,3.9718,3.9133,3.8624,3.9756,4.0096,4.0096,4.0096,4.0096,4.0096,4.0096,4.0096,4.0096,4.0096,4.0096,4.0096,4.0096,4.0096,4.0096,4.0096,4.0096,3.9977,3.9571,3.8937,0.0,0.0,3.7601,3.7669,3.8396,3.8785,3.9276,4.0028,4.0096,4.0096,4.0096,4.0096,4.0096,4.0096,4.0096,4.0096,4.0096,4.0096,4.0299,4.0679,4.0679,4.1052,4.1796,4.2202,4.2185,4.1813,4.2557,4.2303,4.1314,4.1644,4.1779,4.1813,4.2151,4.2523,4.2929,4.3257,4.347,4.3572,4.391,4.4045,4.4096,5.3501,5.2553,5.186,5.2232,5.1352,5.0794,5.1386,5.1471,5.1251,5.0676,5.0456,5.0067,4.934,4.9103,4.9001,4.9001,4.8276,4.7233,4.5823,4.4671,4.3823,4.3309,4.2956,4.27,4.2574,4.183,4.1373,4.1204,4.0272,3.961,3.9193,3.961,3.9929,4.0126,4.0682,4.1301,4.1835,4.0849,4.0529,4.0591,3.9425,3.8953,3.8907,3.8605,3.9217,4.0233,4.0289,4.1453,4.2784,4.1484,4.0972,4.0765,4.004,3.941,3.9059,3.9859,4.0096,4.0096,4.0096,4.0096,4.0096,4.0096,4.0096,4.0096,4.0096,4.0096,4.0096,4.0096,4.0096,4.0096,4.0096,4.0096,3.991,3.9368,0.0,0.0,0.0,3.8159,3.8362,3.892,3.914,3.9486,4.0045,4.0096,4.0096,4.0096,4.0096,4.0096,4.0096,4.0096,4.018,4.0367,4.0197,4.0553,4.1457,4.1288,4.166,4.2557,4.3149,4.3115,4.2574,4.3335,4.3166,4.2303,4.2472,4.2557,4.2557,4.2557,4.2997,4.369,4.369,4.4062,4.4615,4.4615,4.4615,4.4615,5.3501,5.3416,5.3112,5.2418,5.2215,5.2164,5.2215,5.2232,5.2198,5.2147,5.1555,5.0845,5.0101,4.9407,4.9001,4.9001,4.8143,4.7276,4.6469,4.4227,4.3053,4.3295,4.4013,4.4074,4.3325,4.2591,4.188,4.1204,3.9708,3.9342,3.9995,3.9315,3.9375,4.0104,4.0155,4.0514,4.1001,3.9546,3.9645,4.0514,3.8398,3.8732,4.0371,3.9152,3.9988,4.1853,4.2043,4.212,4.2093,4.2094,4.1165,3.9985,3.9891,3.9451,3.9059,3.9859,4.0096,4.0096,4.0096,4.0096,4.0096,4.0096,4.0096,4.0096,4.0096,4.0096,4.0096,4.0096,4.0096,4.0096,4.0096,4.0096,4.0079,4.0028,0.0,0.0,3.892,3.892,3.8937,3.8988,3.9605,4.0045,4.0096,4.0096,4.0096,4.0096,4.0096,4.0096,4.0096,4.0096,4.0417,4.1102,4.0468,4.079,4.2202,4.1542,4.1914,4.3308,4.3358,4.3358,4.3341,4.4147,4.369,4.2337,4.3031,4.3308,4.3308,4.3308,4.3792,4.4513,4.4513,4.4564,4.4615,4.4615,4.4615,4.4615,5.3501,5.3112,5.2824,5.301,5.2266,5.1944,5.2909,5.2621,5.23,5.23,5.1674,5.093,5.0168,4.9441,4.875,4.8193,4.7803,4.6794,4.4938,4.3948,4.2903,4.1754,4.2013,4.253,4.3323,4.262,4.2345,4.2547,4.1059,4.0471,4.0764,4.0001,4.0296,4.1441,4.1441,4.1804,4.239,4.1844,4.1559,4.143,4.0567,4.0742,4.1447,4.0958,4.1597,4.2814,4.2887,4.3208,4.3459,4.2508,4.1824,4.1221,4.0209,3.979,3.9688,4.002,4.0409,4.0781,4.0781,4.0468,4.0096,4.0096,4.0096,4.0096,4.0096,4.0096,4.0096,4.0096,4.0096,4.0096,4.0096,4.0096,4.0096,4.0096,0.0,3.9859,4.0307,4.0358,4.0527,4.0984,4.1271,4.1441,4.1441,4.1035,4.0781,4.0781,4.0367,4.0096,4.0096,4.0527,4.1119,4.1863,4.117,4.1255,4.2286,4.1576,4.1948,4.3392,4.3392,4.3673,4.4147,4.4479,4.4293,4.3752,4.4012,4.413,4.413,4.413,4.4316,4.4615,4.4615,4.4615,4.4615,4.4615,4.4615,4.4615,5.3501,5.3061,5.2773,5.3078,5.2469,5.2198,5.301,5.2655,5.23,5.23,5.1471,5.0659,5.0152,4.9441,4.875,4.808,4.777,4.6741,4.4688,4.3793,4.2663,4.1059,4.1273,4.1896,4.2878,4.2463,4.2481,4.3026,4.1782,4.1204,4.1187,4.0679,4.0984,4.1965,4.2185,4.2662,4.3285,4.2848,4.2561,4.2363,4.1885,4.1996,4.2426,4.2426,4.2939,4.371,4.371,4.3942,4.4024,4.2684,4.2116,4.1717,4.0377,4.018,4.0468,4.0468,4.0967,4.1542,4.1542,4.117,4.0807,4.0807,4.0807,4.0739,4.0519,4.0468,4.0383,4.0146,4.0096,4.0096,4.0096,4.0096,4.018,4.0417,4.0468,4.0696,4.1441,4.1542,4.1728,4.2236,4.2286,4.2286,4.2286,4.183,4.1542,4.1542,4.1068,4.0807,4.0807,4.1491,4.2117,4.2625,4.2151,4.2134,4.2642,4.1677,4.183,4.3064,4.3274,4.369,4.4215,4.4496,4.4615,4.4615,4.4615,4.4615,4.4615,4.4615,4.4615,4.4615,4.4615,4.4615,4.4615,4.4615,4.475,4.4891,5.3501,5.3501,5.3247,5.2435,5.2959,5.323,5.2435,5.23,5.23,5.23,5.1014,5.0101,5.0084,4.9441,4.9001,4.9001,4.8161,4.7205,4.6244,4.3826,4.2213,4.1751,4.2521,4.2685,4.2013,4.2146,4.2219,4.2219,4.154,4.1221,4.1221,4.1221,4.1221,4.1255,4.1982,4.2726,4.3314,4.1832,4.2047,4.318,4.1651,4.1951,4.3306,4.3306,4.3844,4.4615,4.4615,4.4079,4.3274,4.254,4.1813,4.1085,4.0367,4.0612,4.1221,4.1221,4.1728,4.2303,4.2303,4.2303,4.2303,4.2286,4.2286,4.21,4.139,4.1221,4.1001,4.0282,4.013,4.013,4.013,4.013,4.0367,4.1085,4.1221,4.1474,4.2202,4.2303,4.2303,4.2303,4.2303,4.2303,4.2303,4.2303,4.2303,4.2303,4.2286,4.2286,4.2303,4.3014,4.3392,4.3392,4.3392,4.3392,4.3375,4.1948,4.1576,4.2303,4.3064,4.3392,4.3426,4.4231,4.4615,4.4615,4.4615,4.4615,4.4615,4.4615,4.4615,4.4615,4.4615,4.4615,4.4632,4.4632,4.506,4.5602,5.2773,5.3112,5.3247,5.2435,5.2503,5.2773,5.3095,5.2655,5.23,5.23,5.1471,5.0676,5.0152,4.9441,4.8719,4.808,4.777,4.7205,4.6244,4.4876,4.3602,4.2503,4.1653,4.137,4.1763,4.1949,4.2367,4.2977,4.2814,4.2733,4.2743,4.2219,4.2252,4.2733,4.2953,4.3521,4.4215,4.3783,4.3821,4.4179,4.3726,4.3805,4.4196,4.4196,4.4384,4.4615,4.4615,4.4079,4.3274,4.254,4.2151,4.1931,4.1694,4.1779,4.1965,4.1965,4.2489,4.3081,4.3081,4.3859,4.4299,4.2692,4.2286,4.2236,4.2016,4.1965,4.1897,4.1677,4.1653,4.1653,4.1653,4.1653,4.1711,4.1931,4.1965,4.2236,4.298,4.3081,4.3284,4.3853,4.3921,4.3921,4.3921,4.3403,4.3081,4.3081,4.2591,4.2523,4.3047,4.3274,4.3392,4.3392,4.3392,4.3166,4.2625,4.2185,4.2337,4.3081,4.3274,4.3707,4.4248,4.4496,4.4615,4.4615,4.4615,4.4615,4.4615,4.4615,4.4919,4.5365,4.5365,4.5686,4.6126,4.6126,4.6278,4.643,5.2469,5.2959,5.323,5.2302,5.215,5.2163,5.2262,5.1612,5.1154,5.1245,5.061,5.0054,4.9697,4.9272,4.875,4.8193,4.7803,4.7373,4.6781,4.5541,4.444,4.3624,4.1795,4.0775,4.0792,4.1247,4.1723,4.2252,4.2712,4.2942,4.2925,4.2793,4.298,4.3409,4.3741,4.413,4.4615,4.4615,4.4615,4.4615,4.4615,4.4615,4.4615,4.4615,4.4615,4.4615,4.4615,4.4079,4.3325,4.2895,4.254,4.2286,4.2286,4.2489,4.2743,4.2743,4.3487,4.4316,4.4316,4.5213,4.5805,4.4418,4.3859,4.3487,4.2878,4.2743,4.2642,4.2354,4.2286,4.2286,4.2286,4.2286,4.2388,4.2692,4.2743,4.2997,4.3775,4.3876,4.4062,4.4547,4.4615,4.4615,4.4615,4.4147,4.3995,4.4299,4.391,4.3842,4.4299,4.4045,4.3876,4.3876,4.3876,4.3656,4.32,4.3227,4.3115,4.298,4.324,4.3656,4.413,4.4462,4.4615,4.4615,4.4615,4.4615,4.4615,4.4615,4.5026,4.5703,4.5703,4.616,4.6786,4.6786,4.6972,4.7192,5.2469,5.2959,5.3128,5.1999,5.1872,5.1578,5.055,4.9891,4.9591,4.977,4.922,4.8879,4.8967,4.8894,4.8829,4.8767,4.8047,4.7622,4.7737,4.5957,4.4878,4.4831,4.2682,4.0876,3.9634,4.0301,4.0721,4.0783,4.1799,4.2311,4.24,4.3143,4.354,4.3629,4.4367,4.4699,4.4699,4.4699,4.4666,4.4615,4.4615,4.4615,4.4615,4.4615,4.4615,4.4615,4.4615,4.4079,4.3392,4.3392,4.2963,4.2405,4.2472,4.2963,4.3521,4.3521,4.457,4.5703,4.5703,4.6295,4.687,4.6802,4.6346,4.55,4.3978,4.3595,4.3403,4.2658,4.2506,4.2523,4.2574,4.254,4.2743,4.3504,4.3544,4.3775,4.4513,4.4615,4.4615,4.4615,4.4666,4.4699,4.4699,4.4767,4.5089,4.5754,4.5805,4.5805,4.5805,4.5094,4.4699,4.4699,4.4632,4.4615,4.4615,4.4615,4.3904,4.2506,4.32,4.3521,4.3511,4.4265,4.4615,4.4615,4.4615,4.4615,4.4615,4.4615,4.506,4.5805,4.5805,4.6295,4.6989,4.6989,4.7428,4.7889,5.2469,5.2959,5.2959,5.1322,5.1542,5.1578,5.055,5.095,5.1159,5.065,5.0626,5.0157,4.8895,4.8249,4.7622,4.6884,4.7306,4.7901,4.8656,4.6918,4.5667,4.5145,4.3247,4.1811,4.0965,4.0775,4.0954,4.1477,4.2374,4.3183,4.3854,4.4007,4.449,4.5213,4.5382,4.5466,4.5466,4.5466,4.5128,4.4615,4.4615,4.4615,4.4615,4.4615,4.4615,4.4615,4.4615,4.4079,4.3392,4.3392,4.3274,4.3284,4.3893,4.4225,4.4333,4.4333,4.4976,4.5703,4.5703,4.6667,4.753,4.6938,4.7107,4.701,4.5551,4.5213,4.4993,4.4259,4.4107,4.4293,4.4857,4.4485,4.4333,4.5077,4.4722,4.4412,4.4581,4.4615,4.4615,4.4615,4.5094,4.5466,4.5466,4.5974,4.638,4.6549,4.6549,4.6549,4.6549,4.5855,4.5466,4.5466,4.4919,4.4615,4.4615,4.4615,4.4445,4.4107,4.4276,4.4333,4.4361,4.453,4.4615,4.4615,4.4615,4.4615,4.4615,4.4615,4.5376,4.6549,4.6549,4.7361,4.8528,4.8528,4.8629,4.8748,5.2469,5.2959,5.3027,5.1569,5.1243,5.0817,4.9813,4.9694,4.9622,4.9351,4.9434,4.9238,4.8505,4.8083,4.7629,4.7165,4.7558,4.7934,4.8115,4.6776,4.5698,4.5056,4.3342,4.2246,4.1886,4.1334,4.1224,4.1553,4.242,4.3331,4.4188,4.462,4.5322,4.6227,4.6227,4.6227,4.6194,4.5855,4.5686,4.5596,4.4886,4.4818,4.5077,4.475,4.4615,4.4615,4.4615,4.4344,4.3978,4.3978,4.3978,4.4113,4.4874,4.5111,4.5179,4.5563,4.616,4.6769,4.6769,4.7581,4.8342,4.7953,4.8139,4.8054,4.6566,4.6227,4.6007,4.5263,4.5399,4.5652,4.5703,4.5669,4.5771,4.616,4.5889,4.5664,4.5664,4.5331,4.5111,4.5111,4.5466,4.5838,4.6194,4.6887,4.7327,4.7327,4.7327,4.7327,4.7327,4.6633,4.6227,4.6227,4.55,4.5111,4.5111,4.4784,4.4615,4.4615,4.4615,4.4615,4.4615,4.4615,4.4615,4.4615,4.4615,4.4615,4.4632,4.4976,4.5568,4.6346,4.7056,4.78,4.8528,4.8883,4.9001,4.9001,5.2638,5.3044,5.3144,5.2082,5.108,5.0048,4.8973,4.8099,4.7637,4.7849,4.7945,4.7989,4.8044,4.7811,4.7694,4.7844,4.7844,4.7734,4.736,4.6423,4.5672,4.5131,4.3706,4.2845,4.274,4.2201,4.1773,4.1587,4.2276,4.3207,4.4285,4.5017,4.5928,4.6989,4.6989,4.6989,4.6955,4.6346,4.6363,4.6684,4.5478,4.5331,4.5821,4.5196,4.4902,4.4818,4.4936,4.4902,4.4784,4.4649,4.4615,4.4733,4.5466,4.5703,4.5838,4.6583,4.7327,4.7889,4.7889,4.8443,4.9001,4.9001,4.9001,4.868,4.7445,4.7073,4.6769,4.6041,4.6363,4.665,4.6177,4.6464,4.6836,4.6972,4.687,4.6786,4.6786,4.6261,4.5889,4.5889,4.6007,4.638,4.709,4.7733,4.8075,4.8075,4.8075,4.8075,4.8075,4.7394,4.6989,4.6989,4.616,4.5703,4.5703,4.4987,4.4615,4.4615,4.4733,4.4801,4.4801,4.4801,4.4801,4.4801,4.4801,4.4733,4.4666,4.5399,4.5771,4.6024,4.7365,4.7973,4.8173,4.8781,4.9001,4.9001,5.3365,5.3433,5.3144,5.2082,5.108,5.0048,4.8973,4.8677,4.8605,4.866,4.8899,4.876,4.7941,4.6544,4.6006,4.6819,4.6882,4.7183,4.7941,4.7089,4.6531,4.6438,4.547,4.4631,4.4062,4.3958,4.3359,4.2261,4.2376,4.3319,4.4987,4.509,4.6078,4.7736,4.7736,4.7736,4.772,4.7635,4.7293,4.6769,4.6566,4.6549,4.6633,4.6532,4.6109,4.5635,4.6261,4.6092,4.5449,4.4835,4.4615,4.4733,4.5466,4.5703,4.5838,4.6583,4.7327,4.7889,4.7889,4.8443,4.9001,4.9001,4.9001,4.8951,4.8748,4.8223,4.7547,4.6802,4.6718,4.6955,4.7483,4.7158,4.7005,4.7665,4.7225,4.6786,4.6786,4.6701,4.665,4.665,4.7225,4.7902,4.8629,4.8798,4.8849,4.8849,4.8849,4.8849,4.8849,4.8156,4.7736,4.7736,4.643,4.5703,4.5703,4.4987,4.4615,4.4615,4.5246,4.5551,4.5551,4.5551,4.5551,4.5551,4.5551,4.5179,4.4666,4.5399,4.6075,4.6718,4.7551,4.8308,4.8866,4.8968,4.9001,4.9001,5.3501,5.3501,5.3348,5.287,5.1484,5.0242,4.9773,4.8733,4.7946,4.7946,4.8074,4.8014,4.7547,4.6858,4.6566,4.6982,4.7023,4.7063,4.7096,4.6692,4.6295,4.5941,4.5522,4.5155,4.487,4.487,4.4571,4.4003,4.3269,4.3586,4.4939,4.546,4.6429,4.7758,4.8279,4.8528,4.8494,4.8058,4.797,4.7953,4.7124,4.7056,4.7378,4.6955,4.6599,4.6295,4.621,4.5974,4.5652,4.5314,4.5213,4.5415,4.6583,4.6908,4.709,4.7817,4.8257,4.8528,4.8528,4.8748,4.9001,4.9001,4.9001,4.9001,4.9001,4.8748,4.8325,4.7581,4.775,4.8003,4.7936,4.797,4.8139,4.8477,4.824,4.8037,4.8037,4.7665,4.7348,4.7216,4.7258,4.7747,4.89,4.9001,4.9001,4.9001,4.9001,4.9001,4.9001,4.8697,4.8528,4.8528,4.709,4.6312,4.6312,4.5162,4.4818,4.5213,4.5128,4.5297,4.572,4.6126,4.6312,4.6295,4.5889,4.5517,4.5263,4.6007,4.6261,4.6346,4.7919,4.8714,4.9001,4.9001,4.9001,4.9001]}]]